GFSSW_con_3kmhel_000.txt.gz
Helicity
82 63 67 82 82 79 60 58 63 68 66 90 118 137 137 160 202 251 175 163 132 243 165 94 59 45 18 17 6 27 24 12 63 82 63 11 84 5 20 44 82 52 111 157 160
63 57 54 56 46 34 31 50 60 60 63 77 98 113 117 135 184 246 145 68 58 180 226 131 81 33 38 10 9 15 17 23 94 76 69 84 75 57 -2 -0 43 112 132 149 124
34 12 41 76 79 46 24 34 47 56 60 63 71 89 106 110 194 130 59 68 108 178 168 172 126 63 50 35 24 30 39 68 171 75 39 59 68 76 23 29 28 1 136 126 118
31 27 11 35 29 31 33 37 41 47 50 54 56 53 92 105 298 -29 5 45 122 228 224 193 142 88 56 53 8 36 40 58 74 116 6 27 44 61 21 13 100 133 145 149 116
32 24 26 19 25 31 47 34 38 55 57 53 61 52 105 201 200 54 39 47 88 171 171 173 101 94 37 45 10 30 57 31 40 37 18 52 31 28 34 44 64 102 118 122 112
9 18 13 7 9 9 41 45 47 43 58 47 66 65 97 219 76 126 108 112 123 106 271 169 140 72 82 50 45 39 59 39 38 -42 -40 6 58 67 43 24 60 66 44 90 109
-27 -15 -6 -13 -4 15 19 17 32 15 24 52 38 60 88 97 39 64 50 111 146 137 86 74 84 99 80 66 19 15 42 57 -6 -5 -27 49 -15 2 9 48 57 55 42 48 61
-32 -26 -7 1 13 20 21 31 32 9 7 58 98 91 71 -35 162 69 59 85 131 78 68 44 61 98 119 94 43 27 33 74 26 -75 54 50 32 110 32 76 26 47 53 62 38
-56 -41 -40 32 32 44 35 27 16 44 99 59 126 110 10 190 112 83 34 126 110 135 166 90 126 131 89 68 60 33 62 63 50 100 43 43 56 90 60 5 8 34 46 54 48
-9 -22 35 67 46 13 -9 -39 -95 -20 88 109 79 91 14 95 104 44 66 103 241 261 208 179 163 156 111 86 75 63 91 71 79 70 59 24 30 59 73 56 30 28 44 85 126
24 33 53 27 19 21 -6 -11 4 45 25 27 -58 -4 23 90 179 121 200 241 258 269 208 163 196 145 73 46 124 206 160 60 43 84 42 35 33 65 50 95 104 182 197 207 181
60 60 35 25 9 30 28 83 41 110 64 49 60 31 203 162 272 341 370 319 277 193 198 208 150 78 69 111 116 133 116 85 106 52 31 76 67 58 59 65 132 195 169 165 123
28 21 26 17 55 43 45 39 27 100 210 146 234 167 318 141 261 335 281 184 180 169 175 151 90 115 137 136 89 93 110 137 143 72 63 61 43 66 44 91 144 111 106 104 108
136 66 38 43 49 17 38 -60 62 67 244 139 231 157 96 212 414 579 368 289 259 147 113 106 177 116 101 91 86 110 60 58 113 135 141 47 83 70 76 116 104 120 102 91 97
119 87 65 64 45 23 -25 -110 -25 53 166 72 143 110 262 233 241 446 409 385 390 108 214 185 108 118 108 91 107 82 58 66 86 93 111 64 96 63 132 119 128 97 92 93 77
102 169 149 122 104 -29 -37 20 46 155 101 76 210 190 221 332 219 246 472 273 104 174 125 139 113 102 110 84 79 52 56 47 43 66 111 99 101 110 144 201 188 121 109 94 102
130 117 157 104 75 105 18 59 127 118 89 87 174 196 240 301 279 330 227 156 206 195 167 145 132 84 84 67 42 51 105 160 138 106 101 61 76 -15 111 270 195 162 122 120 122
98 113 131 96 7 66 61 118 37 109 91 55 174 120 347 402 343 148 125 182 84 112 96 118 136 59 47 58 52 37 90 172 217 171 85 35 51 97 158 284 400 220 164 154 162
118 47 11 -25 -8 19 69 57 -20 74 48 95 115 141 201 280 264 213 109 116 84 93 109 97 87 65 78 46 77 64 62 40 67 41 47 43 41 91 217 237 200 129 136 157 125
19 26 12 25 -27 24 35 92 -8 17 37 127 144 109 98 171 216 223 141 101 64 60 108 88 75 44 36 45 32 56 61 54 47 40 37 33 44 56 202 188 133 150 161 146 135
12 21 111 129 17 40 111 70 -16 5 76 126 123 60 42 89 194 128 85 85 92 59 99 98 62 52 45 36 50 44 40 37 53 60 55 59 44 144 190 145 125 188 234 203 160
36 4 146 155 124 96 161 24 37 20 54 78 147 84 19 54 98 96 91 69 59 78 53 72 74 66 59 44 49 61 49 36 68 76 78 120 55 113 112 155 245 172 167 179 168
34 85 122 53 58 80 65 91 12 19 54 47 51 53 59 43 55 54 46 91 130 99 70 84 79 81 77 62 54 46 34 57 68 57 87 130 63 80 84 70 42 11 127 186 168
85 48 119 248 236 121 71 35 11 71 60 81 74 37 50 46 31 25 58 89 103 63 76 88 99 128 136 87 100 65 49 62 75 84 141 146 98 58 82 34 48 94 156 200 223
99 51 78 86 166 102 44 36 6 49 95 118 107 121 74 51 71 76 54 65 71 63 75 86 87 95 91 65 49 26 11 44 103 131 176 118 107 33 57 50 43 117 135 178 171
115 77 89 85 106 105 68 90 56 61 101 100 70 111 79 97 82 63 59 79 59 62 55 73 46 49 21 14 37 35 26 52 74 60 103 79 15 67 74 142 146 147 144 180 243
102 115 82 81 57 85 84 67 61 75 79 94 106 48 76 105 123 133 128 100 64 55 42 48 65 63 29 89 58 -5 16 51 69 67 114 111 85 62 83 121 140 115 137 165 362

GFSSW_con_3kmhel_003.txt.gz
Helicity
76 86 81 68 81 81 86 69 68 69 76 88 82 97 121 155 168 155 170 215 150 194 296 162 90 67 73 64 43 52 53 63 31 57 80 56 48 115 70 27 42 63 37 35 147
54 48 47 51 55 52 60 46 47 63 72 72 79 100 108 127 127 117 162 100 130 150 263 190 115 82 94 64 48 63 42 35 49 75 127 116 23 74 60 67 27 78 99 129 151
20 31 28 10 28 48 48 40 31 50 50 55 69 85 124 125 118 -4 105 147 66 107 184 164 146 118 71 80 47 40 36 46 123 129 87 70 41 23 40 17 14 -14 81 125 139
-1 29 31 8 9 35 70 68 48 48 51 54 57 70 101 148 211 -69 44 72 106 147 188 191 194 161 68 74 46 34 26 37 117 169 74 28 -15 0 6 4 48 34 78 145 134
12 35 51 38 20 11 36 36 34 30 39 52 56 65 120 244 251 197 139 104 113 161 188 201 175 148 99 58 60 53 42 40 53 85 60 45 22 9 2 48 46 75 73 76 103
19 13 29 27 17 4 28 37 43 29 29 52 64 64 136 185 -81 42 259 147 196 185 192 238 157 121 84 66 84 40 31 24 21 35 64 44 38 33 16 42 64 51 33 36 64
2 1 -4 16 6 -15 4 17 33 20 27 33 49 92 126 138 46 -39 199 264 157 195 173 99 102 162 101 112 61 53 39 34 3 -8 5 8 44 26 86 46 57 50 22 16 27
-14 -1 -8 -24 -11 -3 10 16 29 28 18 38 22 119 129 19 116 81 76 246 160 116 134 123 74 133 103 129 109 58 35 45 52 9 -53 50 83 82 104 56 38 48 50 30 36
-2 -26 -16 -20 20 11 18 26 32 6 17 36 119 133 117 3 73 85 62 165 177 54 72 145 262 129 139 101 111 68 54 40 102 -7 16 88 69 111 159 125 94 49 37 119 227
20 5 40 61 50 37 19 -11 16 81 79 113 137 140 83 104 108 20 104 98 164 103 98 106 113 173 148 145 74 71 84 156 130 64 102 101 87 90 22 87 67 92 181 225 243
5 20 24 26 0 1 -21 -16 77 63 149 125 67 129 8 55 86 70 81 92 158 170 291 196 174 211 112 73 60 91 156 116 83 61 121 46 28 44 74 93 120 205 280 241 167
15 -7 23 23 10 5 -11 8 6 14 9 35 69 66 90 62 66 160 75 243 216 298 288 330 226 66 75 56 100 101 168 134 88 38 59 38 39 61 69 99 132 163 174 131 125
47 -3 40 52 11 -12 14 0 -4 36 43 2 5 44 70 62 62 108 177 329 257 281 240 258 182 80 66 113 134 103 105 95 91 108 48 66 73 86 143 123 142 127 111 114 103
88 56 19 38 7 -16 -25 -95 3 61 149 81 44 37 75 118 200 192 219 408 352 237 273 168 108 96 143 117 129 111 70 67 58 71 85 97 89 114 121 135 110 97 106 87 77
93 64 28 50 -31 -77 -122 -166 -46 72 67 79 76 116 77 74 197 242 312 344 333 263 250 296 178 142 143 109 114 105 110 70 67 91 73 75 108 80 172 157 103 78 88 90 100
62 36 17 8 -20 55 28 -2 41 112 74 105 104 65 144 157 268 222 197 282 316 328 286 227 134 134 118 147 120 83 90 79 81 102 114 64 112 70 140 229 127 91 97 118 132
67 48 52 6 80 288 191 104 142 74 126 165 134 96 55 214 315 188 233 242 391 312 286 243 200 145 144 155 141 118 138 180 181 158 96 68 127 49 89 194 238 200 171 157 144
80 36 54 35 132 293 152 63 49 40 77 88 128 171 170 310 179 241 166 343 160 106 291 266 196 117 103 80 101 93 82 151 165 142 134 107 74 40 91 236 296 238 234 196 157
24 6 -45 -42 108 161 125 81 33 38 86 76 136 241 235 359 310 347 463 300 168 159 180 168 174 117 93 99 80 90 67 55 85 95 89 62 59 89 216 303 333 247 216 168 140
-30 -14 -55 93 114 27 48 43 20 2 12 142 207 333 178 341 394 218 176 148 117 45 109 113 154 92 83 75 64 69 66 82 78 64 65 57 51 35 172 237 220 192 167 154 129
-29 -30 -32 104 -7 21 16 -51 75 131 218 133 172 233 217 245 228 259 157 93 79 75 91 88 83 110 75 56 54 70 64 59 70 71 52 51 69 74 96 125 119 147 141 103 112
-30 -29 98 9 33 60 86 -9 70 109 174 161 82 112 140 177 150 75 59 62 76 50 56 76 52 114 67 65 53 50 29 42 68 88 77 48 60 46 54 118 161 118 99 157 138
-4 18 85 36 24 119 85 48 59 73 87 74 92 51 189 175 84 83 94 97 79 56 44 67 64 130 121 65 54 41 56 68 77 65 60 69 46 44 59 65 14 78 87 103 156
-8 -3 100 191 100 70 90 44 42 106 128 109 99 54 84 106 82 82 103 89 101 65 88 89 79 48 57 39 56 52 46 61 82 79 93 124 121 144 127 27 6 39 77 131 203
17 25 44 110 160 106 72 43 42 82 109 115 102 79 51 20 95 69 121 160 160 135 116 109 99 70 71 61 61 37 28 47 61 122 112 123 69 68 51 42 24 71 140 194 222
47 16 56 88 88 88 95 77 37 76 82 98 98 116 110 81 69 67 82 110 88 97 103 121 77 78 74 56 34 15 -6 15 35 67 83 71 -11 134 129 109 115 62 75 139 238
90 72 44 55 50 42 46 31 47 33 90 118 74 110 132 145 160 131 90 97 78 71 83 81 69 61 50 82 31 5 19 69 72 91 86 89 101 65 94 90 73 91 113 227 310

GFSSW_con_3kmhel_006.txt.gz
Helicity
88 84 95 102 111 109 101 104 85 84 77 98 72 64 92 130 158 186 194 224 190 180 289 166 113 90 88 67 52 63 62 58 51 58 115 132 224 108 65 70 58 39 28 9 85
54 49 51 50 62 61 57 60 69 74 68 75 88 78 93 131 149 142 141 143 202 208 264 203 118 108 110 80 82 79 54 23 38 68 80 135 140 259 92 102 60 43 61 88 175
42 36 18 7 20 45 48 53 53 57 50 55 65 64 82 111 132 -2 74 98 139 189 195 254 202 134 110 116 93 69 50 33 81 80 91 73 104 107 94 30 9 -9 40 95 133
21 16 0 0 -5 18 37 51 61 49 35 39 53 68 77 128 151 14 42 46 103 156 239 203 212 199 146 123 79 71 38 43 68 105 105 47 55 45 56 6 15 46 35 146 113
2 -2 -2 12 10 34 45 46 60 64 37 38 48 64 113 177 178 57 253 67 86 184 217 201 222 192 148 103 85 61 41 -1 50 82 60 63 8 32 6 39 36 16 48 102 81
-8 6 9 7 9 28 39 39 38 46 44 36 44 54 136 138 73 40 364 206 134 206 175 180 211 160 109 96 80 64 46 4 13 35 17 33 22 19 5 51 60 33 27 55 61
10 5 4 13 9 0 7 27 38 32 39 32 43 75 119 120 59 -16 246 342 170 127 108 151 156 161 136 109 84 60 49 1 8 38 38 38 31 36 147 97 46 48 40 28 20
21 10 3 11 5 -12 -18 -28 24 32 39 32 25 72 107 41 86 143 235 362 255 197 146 129 161 137 165 141 124 81 66 50 59 27 19 57 49 94 130 104 44 29 109 87 74
-1 14 21 23 -15 -13 -28 -22 -13 21 29 35 68 125 96 3 63 86 139 292 306 165 79 79 218 195 107 119 129 101 56 53 97 19 59 71 50 51 107 125 147 129 104 140 175
-38 -39 -5 33 26 18 4 -21 -61 -29 55 61 84 101 92 106 68 51 84 234 277 125 83 155 180 161 145 165 114 80 85 70 74 41 69 95 19 85 71 61 116 156 177 193 195
-7 -31 -30 -6 -16 -2 10 -21 48 108 84 135 91 130 71 88 109 57 113 139 195 236 199 76 195 193 143 125 72 77 89 94 127 47 82 64 79 59 53 118 157 178 177 177 153
2 -6 -16 12 3 14 -33 -35 -20 47 34 80 113 84 114 150 195 101 66 218 216 180 148 156 63 149 112 105 78 69 62 80 91 38 39 57 54 51 91 83 101 107 112 102 97
59 34 14 10 4 -1 8 -24 -6 71 40 30 105 28 111 129 170 197 84 143 155 184 148 188 176 115 114 87 88 89 60 64 46 62 44 46 62 88 134 136 125 123 94 92 109
93 17 -5 32 -11 -15 -1 -27 -50 -47 29 24 41 72 78 148 50 84 85 143 315 225 150 110 133 125 98 86 111 58 35 62 60 48 56 47 58 101 124 96 101 74 89 105 111
48 4 -10 32 -108 -73 -62 -48 -33 41 80 24 27 10 96 148 76 109 99 395 245 269 306 274 176 117 110 28 82 55 68 83 74 47 63 72 79 52 148 83 99 51 84 99 113
17 -9 -28 -17 138 -92 -55 -66 30 47 51 42 13 30 26 306 115 162 236 316 265 346 299 235 166 155 109 95 91 82 131 152 115 78 85 65 101 40 150 120 125 69 81 106 114
-8 14 56 177 249 188 99 -2 82 57 84 43 54 80 74 134 132 101 346 331 381 356 268 336 224 198 171 193 193 163 175 155 135 139 84 100 139 42 63 85 176 149 110 135 130
-38 40 64 201 181 230 126 108 56 34 75 97 75 97 93 140 161 89 405 349 434 349 398 302 291 177 153 120 124 121 125 161 125 129 118 140 109 67 34 73 221 202 162 150 139
29 73 106 179 329 240 25 84 3 43 101 48 99 121 188 168 117 213 200 299 377 356 304 192 290 211 163 190 140 128 117 68 139 142 148 112 81 46 75 203 221 242 188 135 110
3 39 25 234 285 67 64 14 20 30 62 154 90 89 210 140 235 136 156 306 211 155 206 166 168 185 163 167 140 107 88 138 144 128 114 119 84 55 62 152 227 213 140 103 75
-3 -36 -3 168 50 10 7 57 31 -3 74 70 15 4 82 168 173 268 169 221 271 97 101 135 133 215 163 139 110 133 129 129 106 96 87 95 58 50 40 126 183 110 89 93 114
-24 -42 49 75 10 15 20 80 39 22 115 189 132 168 132 179 145 152 182 217 155 84 101 150 105 198 142 113 87 67 56 90 89 69 75 51 43 58 53 72 116 84 98 105 116
-17 -65 18 -7 40 68 15 28 96 146 133 24 194 268 254 194 176 235 137 157 116 113 97 105 120 205 135 106 92 65 80 79 101 83 47 52 43 63 106 71 95 147 110 103 176
-19 -37 7 11 87 82 17 38 45 109 306 184 139 134 244 288 189 124 78 108 86 85 86 82 82 74 73 44 84 79 84 93 95 80 66 79 80 82 98 138 129 87 51 165 228
-6 -11 15 52 68 33 0 33 51 84 69 113 158 67 30 73 128 41 67 93 93 115 92 64 59 64 89 60 73 62 87 86 98 101 54 55 49 69 88 82 52 42 122 206 208
-5 0 41 44 55 66 57 10 28 49 78 87 79 90 84 37 45 75 104 110 91 107 92 102 74 83 85 86 58 45 49 41 48 64 51 53 -2 46 64 76 110 117 122 122 140
27 3 35 64 36 22 43 24 -15 6 80 87 67 147 139 134 110 133 119 123 121 142 133 103 92 105 74 81 44 14 29 60 79 90 46 6 58 82 73 86 114 63 70 125 220

GFSSW_con_3kmhel_012.txt.gz
Helicity
83 105 112 91 87 89 104 145 161 150 134 111 87 76 39 38 57 69 97 101 110 151 265 170 127 123 128 130 110 80 81 48 43 33 65 76 70 45 58 81 161 78 36 26 21
69 79 72 64 87 71 81 98 112 135 122 105 125 109 76 110 58 37 56 72 108 164 225 240 159 152 152 136 133 107 64 16 33 21 36 94 41 63 27 77 140 139 70 46 26
71 52 52 63 48 46 50 73 83 96 115 122 128 130 114 148 49 -29 -19 31 66 163 206 299 237 178 132 135 121 87 50 41 49 19 -4 67 75 -21 10 26 70 82 63 20 8
44 20 46 56 46 36 38 46 60 78 78 77 73 99 99 128 43 -22 84 55 52 121 181 226 274 216 147 136 124 80 55 44 44 22 6 34 50 42 -22 9 64 65 25 13 20
29 23 34 45 51 48 45 36 58 69 61 50 51 82 139 124 116 35 98 281 117 146 146 211 262 229 159 136 136 88 63 40 34 30 -10 -14 45 40 -36 5 35 17 8 19 8
27 21 45 68 42 36 30 30 40 46 53 48 62 77 133 53 36 56 -10 194 190 158 142 189 217 180 143 110 114 36 45 43 18 18 -7 -16 34 -53 12 40 41 -6 -13 31 31
18 38 48 67 37 20 23 30 34 43 60 55 72 121 91 34 40 93 -17 104 183 122 114 125 191 204 163 133 85 95 41 36 6 -3 3 -25 -11 57 121 73 29 14 -29 59 85
29 58 51 35 23 24 24 13 21 26 38 36 52 140 60 29 16 83 114 123 93 117 79 83 123 219 163 144 132 105 64 -11 -21 51 35 31 114 156 40 48 60 59 48 105 138
81 98 54 44 14 40 61 51 12 22 17 23 105 105 -0 24 20 22 101 142 94 136 93 102 140 194 174 145 153 107 28 6 58 47 28 32 5 42 64 82 89 63 71 103 156
73 70 57 22 3 21 43 52 22 50 37 94 102 110 52 42 34 43 72 77 105 132 123 130 168 189 189 174 131 128 98 59 63 69 34 8 57 104 65 59 46 28 77 113 158
71 69 39 14 -2 11 90 137 155 103 125 187 117 158 59 9 40 57 103 72 135 186 206 146 235 187 146 121 121 78 85 50 90 71 6 28 15 86 57 9 22 50 82 123 151
38 67 61 -1 -19 2 160 188 168 121 80 -0 95 9 20 11 64 85 81 139 187 178 177 174 153 71 146 158 125 106 89 68 58 82 -27 16 8 54 26 3 30 76 105 110 113
21 82 46 -1 5 20 145 134 143 142 2 22 8 -0 17 14 78 65 79 142 175 154 131 219 103 144 141 158 99 91 57 70 67 36 -23 -26 -56 31 52 79 92 126 133 106 99
82 62 89 -15 92 74 118 176 76 96 -0 12 5 -24 32 67 76 76 68 128 134 94 114 197 154 158 120 109 120 50 7 63 90 43 -3 6 -38 19 39 78 111 126 111 91 83
59 69 71 107 40 82 53 197 18 -73 154 35 45 57 55 70 84 89 66 105 117 170 203 224 85 101 90 69 83 2 -5 12 62 26 -6 2 19 -14 48 77 66 91 89 58 61
46 58 88 34 88 38 70 118 -26 97 127 39 29 52 91 43 112 125 98 95 114 110 196 152 97 121 119 97 114 54 65 96 81 52 8 5 71 24 39 102 121 99 80 50 64
65 59 139 124 208 73 102 56 107 202 108 60 40 62 58 79 94 62 74 74 138 252 163 166 119 128 102 145 138 128 94 90 91 90 30 35 44 67 13 29 88 134 87 56 54
57 72 142 165 146 168 87 115 119 92 222 7 68 61 67 101 86 49 83 64 63 233 236 231 103 134 132 113 103 104 104 120 89 62 30 42 28 15 34 32 30 104 139 91 55
24 72 153 122 152 180 75 102 45 51 64 49 76 81 84 85 37 -52 -40 45 78 114 319 170 170 157 137 163 116 111 72 48 83 74 20 26 41 35 45 53 74 139 182 95 68
55 65 76 111 97 165 107 83 23 44 96 42 57 61 70 62 78 65 76 69 93 117 211 227 165 170 194 164 151 96 139 146 152 63 35 40 37 33 45 61 55 84 146 111 101
55 64 61 175 -43 224 95 103 13 33 20 -2 15 55 44 88 74 116 62 137 115 139 187 182 225 244 156 173 201 244 222 210 141 129 75 54 43 12 35 47 43 47 90 97 88
47 58 64 66 89 114 87 19 9 -12 -27 -17 43 58 84 108 106 158 90 107 100 123 137 202 140 223 232 213 190 164 160 190 161 147 124 64 27 -2 7 10 47 112 106 78 72
50 60 48 18 33 92 20 -6 -73 -69 -12 14 38 146 123 110 39 27 46 140 194 222 139 160 136 247 213 189 246 215 209 207 173 144 86 77 64 35 43 58 52 89 88 90 124
51 28 40 30 -11 3 15 23 -22 -10 -1 22 18 51 103 46 55 62 84 177 191 195 139 153 113 123 161 128 212 166 178 205 212 127 107 103 74 54 69 69 58 75 98 132 174
50 8 30 4 20 32 5 24 25 33 30 53 52 38 135 174 132 99 157 201 178 177 171 127 69 107 130 110 184 176 169 204 185 158 128 59 80 96 113 108 123 147 164 174 157
35 40 28 10 -11 33 22 1 41 73 55 48 -19 96 154 131 75 88 101 189 189 146 121 148 103 146 143 139 116 117 124 160 210 217 183 148 123 122 124 132 190 228 203 136 128
36 52 19 14 -9 -18 -3 12 -1 76 71 135 86 90 100 110 130 127 119 181 178 98 123 84 102 98 100 91 103 99 57 139 164 188 169 160 112 135 178 186 203 202 158 138 107

GFSSW_con_3kmhel_015.txt.gz
Helicity
78 89 92 84 95 103 110 116 130 142 82 123 81 88 77 77 90 107 100 57 93 91 286 274 163 134 137 131 124 106 117 54 56 45 35 64 88 33 12 48 76 77 48 43 53
67 81 84 75 75 67 67 83 93 114 130 125 119 131 117 99 99 84 77 31 48 115 162 228 205 176 174 151 148 141 97 38 38 41 26 76 76 47 3 8 77 105 73 56 33
51 66 70 74 80 60 50 48 52 72 95 115 133 141 128 149 93 22 -14 -10 17 95 127 211 266 203 173 168 164 121 80 72 52 32 27 38 86 32 5 -43 49 72 100 90 33
39 52 66 61 49 42 40 48 54 54 60 78 94 111 126 174 162 40 71 128 47 85 142 171 214 246 202 177 163 114 88 56 43 34 29 20 26 66 53 30 49 56 49 24 47
29 38 54 50 29 29 37 42 45 47 61 72 74 95 196 202 171 133 56 149 225 134 161 173 190 232 197 146 158 111 92 39 42 41 9 -4 28 50 44 128 63 56 24 -0 -8
5 21 38 46 31 20 27 37 47 46 54 64 70 114 181 162 103 89 78 17 128 191 153 155 180 201 155 137 118 52 48 40 43 31 4 -11 2 -41 53 77 22 49 1 6 -24
27 24 49 63 48 30 26 28 35 47 51 58 68 148 190 133 88 69 124 17 42 102 127 101 125 177 128 151 121 113 61 53 36 27 -0 -44 -29 11 71 -13 27 50 66 16 54
74 76 120 98 52 40 25 23 35 35 38 66 92 162 188 150 52 50 48 77 43 67 60 73 84 148 181 150 148 108 70 35 22 33 28 -4 21 67 24 18 65 110 98 44 112
84 82 89 52 27 15 26 39 47 35 54 80 145 169 139 102 101 54 54 45 102 74 50 65 106 132 159 169 149 140 75 68 46 39 61 46 -21 27 37 71 90 114 57 67 120
77 83 119 61 26 -0 29 88 93 94 110 127 146 138 101 65 68 49 81 37 81 61 92 81 132 159 177 165 138 110 100 88 71 77 78 46 39 95 54 14 47 60 68 96 111
88 95 135 132 40 2 39 172 187 161 216 284 165 222 101 -11 41 83 88 58 66 71 161 77 158 176 127 150 117 113 74 58 83 92 51 41 -20 90 62 30 62 56 76 100 127
69 69 105 134 43 11 52 214 181 136 181 81 153 51 46 85 41 56 84 83 89 116 125 164 124 138 105 143 141 103 79 84 95 62 42 29 -19 46 25 9 34 50 70 90 136
40 74 100 144 5 25 91 208 304 194 154 96 116 48 36 38 38 57 49 89 89 75 103 131 119 80 107 139 122 112 112 92 105 98 20 -31 -62 15 25 68 71 83 94 117 137
47 48 59 122 56 142 132 178 259 207 102 106 104 -32 30 26 30 41 28 99 87 72 91 181 156 105 103 107 115 73 53 52 83 87 34 18 -30 26 50 31 51 108 124 151 141
65 55 43 85 169 99 49 218 185 81 266 86 65 15 61 56 21 48 31 71 23 135 131 145 65 139 93 90 96 69 34 51 82 74 21 38 31 45 82 73 57 83 81 96 103
77 71 77 100 124 91 137 144 128 159 250 68 39 22 58 47 47 38 58 90 84 106 53 125 83 116 118 101 132 66 122 87 47 60 12 22 47 84 26 11 68 85 54 64 91
78 90 130 138 125 160 127 207 201 279 121 151 51 35 47 45 66 64 73 79 89 194 7 178 130 129 212 172 230 154 147 170 134 95 41 51 50 54 37 -3 7 83 55 62 78
70 86 109 130 129 240 154 156 180 154 222 45 -14 33 48 61 59 63 79 76 46 301 95 151 300 96 94 130 136 178 175 129 109 91 63 46 48 44 25 46 18 52 114 100 82
68 87 128 147 224 193 131 154 166 205 249 90 35 23 36 53 42 60 81 -18 2 252 187 117 269 161 91 123 72 130 153 130 98 72 73 52 47 30 18 36 55 64 135 104 88
72 72 71 107 178 391 159 175 108 91 62 149 11 35 30 52 50 68 99 -20 7 80 237 156 173 156 116 174 203 102 147 141 143 76 81 54 50 48 49 41 43 68 85 91 116
84 56 70 148 271 331 191 151 89 64 134 133 36 36 32 59 89 55 88 38 15 34 193 145 161 246 186 161 145 159 152 137 125 98 69 62 44 42 112 112 19 30 64 89 96
77 51 73 177 263 230 151 156 63 14 1 39 33 50 41 70 99 93 72 119 26 22 103 171 129 156 198 149 115 146 127 112 136 120 107 77 64 -16 -19 -7 -10 31 67 72 90
66 60 79 69 94 167 131 120 42 -7 -7 30 28 66 -55 61 65 85 61 53 64 -48 102 139 156 218 159 156 184 143 194 173 144 136 100 91 59 50 40 29 10 2 35 99 148
73 50 85 80 88 21 37 -15 -23 -46 -37 6 47 61 101 81 95 80 74 81 38 -11 43 117 96 97 149 113 195 174 203 209 194 152 125 127 88 98 65 24 40 48 87 128 136
70 27 59 45 120 122 74 46 -3 -2 -26 13 38 47 98 159 89 72 89 133 115 47 19 107 104 94 125 133 151 233 259 235 226 169 140 96 120 75 64 67 102 134 132 149 180
60 48 47 39 17 30 87 32 32 -7 -16 -1 25 28 81 31 27 69 165 127 105 174 120 47 21 67 103 103 105 133 162 193 166 192 183 160 102 88 137 172 164 138 137 158 176
44 32 31 -0 2 5 4 -0 15 -26 66 76 46 54 51 60 -8 104 142 128 86 157 134 66 62 100 78 99 92 88 84 145 148 180 144 184 104 164 187 184 189 198 205 192 173

GFSSW_con_3kmhel_018.txt.gz
Helicity
48 56 66 83 95 108 122 136 144 149 132 130 113 78 74 58 90 52 88 71 93 77 165 186 163 139 140 153 138 127 115 61 43 64 74 44 80 66 42 38 71 49 55 76 58
46 68 74 80 77 69 82 96 112 129 121 139 160 107 99 108 48 61 56 42 45 77 145 177 177 140 168 161 153 137 112 44 58 49 52 63 72 78 42 34 71 50 39 50 72
43 60 73 74 81 79 72 67 84 92 95 105 118 133 162 105 118 40 -12 16 34 61 110 129 230 229 142 148 155 139 70 72 43 35 61 54 54 45 44 16 28 85 96 78 92
39 43 48 64 62 68 71 71 61 51 61 68 88 119 120 108 174 114 107 144 144 65 82 135 181 258 229 138 131 133 79 77 52 48 41 35 37 35 34 34 56 88 94 91 78
20 8 21 38 49 59 64 62 57 50 50 55 67 107 147 182 175 127 63 107 148 118 81 88 154 203 164 120 104 96 63 56 49 40 32 43 32 32 23 114 76 68 61 33 57
23 19 16 7 4 51 40 36 41 46 46 51 60 96 130 155 102 85 85 116 89 78 136 108 179 127 186 112 80 73 72 44 46 34 37 29 40 -25 28 80 92 28 32 35 30
26 37 35 58 55 54 42 27 29 31 40 43 53 86 135 83 83 74 90 104 73 61 91 114 89 166 174 122 133 62 53 34 46 32 32 17 7 16 54 35 50 48 40 55 58
24 49 56 60 61 67 85 37 20 30 40 58 67 91 168 96 31 80 103 73 67 52 52 76 99 197 226 159 105 69 66 62 41 13 33 11 17 31 33 31 69 80 105 106 82
33 50 68 55 57 59 88 39 39 26 45 86 126 148 138 119 84 56 53 80 89 52 70 102 87 158 124 165 145 119 55 49 71 6 44 11 13 36 26 60 41 46 93 88 75
48 34 65 84 101 77 106 57 131 108 119 115 128 155 136 85 74 76 47 35 85 80 90 93 81 184 137 187 166 104 93 60 39 38 33 14 14 41 51 42 45 47 58 62 65
57 31 66 96 106 79 136 210 263 212 190 221 107 221 202 63 81 31 67 75 69 99 89 89 168 118 127 103 128 66 46 43 37 56 84 52 44 41 77 49 29 31 57 62 82
60 43 50 70 67 82 126 328 254 172 127 108 166 83 142 135 62 18 57 110 74 18 24 127 106 156 43 94 84 76 50 42 70 60 64 73 31 44 77 45 38 39 59 73 103
65 58 84 71 58 67 163 167 171 253 190 163 116 124 116 26 31 29 54 46 18 -106 30 109 34 141 82 54 88 93 58 45 75 57 35 47 44 32 36 53 73 78 85 103 114
74 65 83 81 86 106 120 283 243 288 97 124 160 86 23 30 -17 17 6 51 14 -141 10 129 167 46 125 66 64 65 98 72 79 112 68 84 34 39 57 53 42 71 105 150 162
78 71 77 108 104 115 159 227 351 173 260 135 156 31 24 42 46 16 15 27 17 -67 73 145 143 130 68 42 36 98 59 64 90 106 58 34 38 67 105 64 43 76 105 144 160
69 80 106 92 74 96 225 181 228 150 344 128 110 78 50 -3 18 34 18 28 -18 39 41 58 127 106 35 57 43 64 87 91 95 91 55 46 50 99 114 89 54 70 95 114 115
64 94 129 118 76 171 196 202 168 269 220 119 128 63 28 23 9 47 22 2 -55 66 69 9 55 200 91 96 102 75 94 163 101 101 86 59 56 54 40 32 24 35 42 60 82
62 98 124 104 81 140 330 188 252 149 309 152 72 26 -5 3 13 33 40 11 -36 239 4 160 105 186 66 102 198 126 118 205 125 104 50 84 76 92 82 64 30 14 56 88 83
70 123 144 124 99 197 348 295 219 228 235 235 78 30 1 21 18 43 49 -82 10 175 -79 172 204 247 260 179 145 229 158 149 147 124 91 89 94 42 35 40 37 39 104 102 89
143 110 87 94 181 203 351 279 156 161 137 240 93 12 -6 21 43 64 -40 -106 51 85 187 33 295 115 213 257 325 187 142 164 163 105 121 113 106 100 68 98 50 45 60 88 98
103 71 80 146 182 371 333 233 164 197 139 128 50 1 -3 5 43 73 -25 -69 18 69 135 158 234 174 103 218 192 159 183 156 146 102 116 133 86 70 114 95 65 22 47 96 105
80 86 120 264 223 290 255 165 53 131 165 39 42 15 14 11 37 77 22 38 26 106 77 104 167 167 130 107 33 79 59 72 93 76 127 140 75 40 82 39 17 10 49 84 102
74 91 93 217 105 216 211 163 112 26 88 26 1 6 10 13 38 80 39 48 11 62 178 140 120 125 111 92 129 98 64 40 61 104 51 75 61 100 92 114 78 51 21 71 132
91 99 95 71 89 130 153 94 48 21 -28 17 -0 6 22 -3 58 42 91 23 13 42 85 181 127 80 92 96 89 98 50 55 48 52 63 69 65 53 51 39 30 22 49 111 151
86 82 76 82 50 54 103 17 -29 17 -44 -11 41 9 -23 -15 14 31 52 58 18 -24 22 197 146 72 91 73 -29 23 108 89 103 69 89 29 34 8 44 45 30 49 102 139 157
76 80 61 35 53 92 126 81 91 -18 -26 -12 -4 20 11 11 -12 -31 47 36 40 -36 -36 95 110 98 74 82 68 65 44 57 66 66 56 52 17 82 107 114 86 84 126 121 118
68 63 52 8 16 26 40 57 57 -9 -29 14 -2 -0 35 58 47 74 62 59 23 28 -33 31 62 103 97 80 76 46 45 64 61 58 66 53 -10 69 112 119 115 138 144 133 146

GFSSW_con_3kmhel_024.txt.gz
Helicity
24 28 26 27 25 37 60 79 88 104 153 145 179 154 148 127 100 73 68 69 152 107 97 117 149 120 106 122 120 123 168 118 61 47 49 57 57 48 70 46 96 88 66 20 -20
20 29 27 31 35 43 49 61 68 71 108 140 175 187 174 142 97 73 44 39 56 78 100 108 152 119 114 116 138 189 184 134 81 45 61 50 53 57 79 53 102 102 86 49 29
16 30 31 24 24 31 47 54 59 63 73 106 133 153 149 102 94 26 3 26 26 51 69 125 148 196 215 123 103 127 145 129 79 74 57 78 141 110 77 65 59 96 102 130 122
22 32 35 29 18 33 44 67 66 63 55 67 95 117 132 132 110 170 114 113 78 80 60 64 106 163 187 141 93 84 86 83 92 63 56 101 89 76 66 49 77 93 96 90 130
20 29 37 36 18 21 26 48 49 56 57 56 73 112 166 189 136 122 87 34 -2 17 56 65 75 119 139 165 108 75 97 69 77 95 101 54 67 41 39 49 45 56 77 54 50
16 21 38 42 37 28 27 51 32 32 44 61 53 99 152 146 101 93 95 39 117 110 45 47 75 71 148 115 137 165 62 106 87 77 80 107 40 49 27 33 44 39 74 67 52
17 22 36 42 41 28 26 44 41 33 32 46 69 90 138 112 112 150 121 45 50 86 114 57 32 124 137 147 150 132 161 104 75 95 113 45 32 17 23 27 39 45 39 37 94
30 26 31 39 42 43 51 47 55 55 50 60 68 83 174 57 43 43 138 81 34 40 81 81 80 91 124 182 200 227 157 162 87 155 86 90 26 34 40 66 62 49 79 77 113
31 38 33 36 57 60 60 65 70 77 72 86 93 104 116 79 63 35 61 60 59 51 49 48 93 109 112 171 173 162 217 144 128 142 122 88 15 25 31 3 72 65 50 112 108
29 43 44 45 59 78 84 85 110 135 130 164 126 144 98 70 49 17 48 58 59 104 75 79 141 143 148 197 192 221 176 197 105 132 145 91 25 59 49 100 85 66 68 129 143
41 47 56 58 60 106 117 122 137 173 240 287 152 149 161 87 47 74 35 47 74 99 138 116 206 195 132 133 78 132 172 106 102 115 87 56 13 43 41 46 56 38 81 110 235
46 61 69 61 63 106 133 129 121 175 131 98 71 166 28 156 107 67 78 125 102 114 114 155 165 118 116 92 101 118 139 111 83 78 29 -1 37 34 55 49 33 77 76 124 321
53 59 73 75 93 105 91 92 143 195 170 237 157 155 123 110 151 94 112 124 157 124 153 178 165 112 113 123 146 103 102 96 94 13 96 84 66 56 30 33 60 110 68 195 334
56 65 81 152 122 69 56 56 195 158 190 232 234 180 142 254 267 162 233 181 210 160 101 120 62 92 99 115 165 107 39 17 -29 46 177 107 35 3 103 20 13 82 111 250 348
52 66 105 107 131 91 114 114 133 73 211 193 195 75 105 203 218 67 74 113 120 92 107 189 140 98 114 120 104 90 34 -3 -1 44 128 99 62 37 73 44 57 138 137 264 370
56 64 94 70 71 130 100 78 78 194 262 279 263 187 181 114 114 115 75 3 82 19 41 43 65 66 36 27 59 49 -77 31 151 136 139 128 56 24 103 105 141 130 171 335 378
58 70 108 102 88 223 123 149 179 263 237 227 174 145 117 118 75 20 67 76 31 -9 -18 -68 -38 2 41 2 -95 -61 -188 -25 223 294 129 75 89 38 113 235 133 165 260 332 393
54 71 77 70 173 230 162 180 206 147 258 334 205 129 144 105 56 46 -19 4 14 -1 -48 -91 -37 1 -21 -53 -73 -116 -224 222 295 218 255 172 98 79 117 152 147 172 260 341 356
74 85 167 93 205 175 188 222 269 218 252 251 184 152 194 89 41 1 40 -1 -34 58 5 -33 64 -38 -117 44 -21 -76 -65 120 200 116 259 175 127 142 126 151 117 150 227 239 246
112 114 164 165 248 208 179 263 242 211 290 213 139 105 118 91 17 -33 3 4 11 -5 -19 -34 84 -36 -2 34 -62 6 35 271 284 143 144 98 79 67 93 89 105 148 192 200 201
148 122 101 243 273 243 254 254 183 301 279 146 124 86 50 49 9 -30 -13 -2 11 49 -23 -6 110 42 -20 27 49 94 36 284 259 289 176 186 185 84 78 74 51 113 177 185 185
124 134 88 195 175 283 248 256 227 235 172 97 68 55 14 -2 33 15 29 20 -40 118 229 112 -1 58 58 98 49 151 104 227 282 222 206 174 173 126 97 81 53 43 165 168 184
118 136 94 140 165 186 219 171 240 304 166 72 72 50 -3 30 -1 41 3 9 -33 9 10 48 17 55 125 190 72 175 176 186 271 185 215 230 120 90 91 68 43 53 149 179 208
168 94 129 142 169 119 82 80 206 185 100 116 23 36 0 33 -2 43 47 -8 -31 49 18 -31 25 52 229 206 115 39 55 111 210 171 212 196 98 56 74 55 42 20 70 173 208
164 104 122 87 79 124 78 16 43 31 76 38 10 31 19 11 15 48 17 2 -10 7 13 5 70 -10 310 -88 89 73 16 60 67 81 115 146 51 33 42 25 18 2 71 151 171
121 106 119 62 27 40 8 -3 94 117 47 -32 45 37 0 25 19 7 6 26 13 -9 15 65 164 102 66 120 60 56 46 52 34 55 68 87 75 95 89 94 42 36 61 134 153
197 112 95 51 21 33 6 2 -15 58 -9 11 80 46 29 45 54 14 9 -12 1 8 21 29 75 123 80 38 64 42 -2 5 30 26 34 32 -6 70 133 176 119 101 90 173 190

GFSSW_con_3kmhel_027.txt.gz
Helicity
15 24 30 36 38 49 64 71 79 95 110 153 151 148 133 143 134 99 71 42 70 76 96 112 133 144 156 137 161 155 217 132 118 73 -27 63 98 30 54 52 61 91 85 35 -11
17 26 28 27 26 39 58 72 70 75 84 112 136 139 118 126 94 65 48 32 55 67 85 138 191 259 201 149 179 211 247 159 152 76 47 121 106 52 88 65 43 109 138 47 33
14 22 29 32 29 30 46 57 63 69 79 94 106 125 119 94 82 50 31 19 38 71 75 103 133 185 175 161 188 177 172 185 102 34 -1 56 91 92 107 73 65 77 158 31 60
15 21 28 32 30 24 33 48 52 60 75 92 104 106 128 117 87 83 55 94 27 74 100 87 105 151 170 195 132 139 142 107 54 48 7 70 91 107 86 55 78 66 84 116 128
19 22 30 37 37 27 31 29 30 37 57 84 99 105 134 108 125 143 161 129 72 57 77 102 135 151 163 151 161 118 96 121 68 40 -12 59 134 114 61 57 95 53 27 62 97
24 27 36 45 44 38 34 31 30 23 34 50 83 131 156 93 55 65 135 82 99 76 69 62 108 102 168 170 194 201 133 67 38 53 68 75 126 157 69 60 63 53 48 40 65
23 39 44 48 55 48 38 45 39 39 37 46 78 101 122 73 86 173 207 79 83 130 148 119 83 136 245 205 150 146 140 130 81 59 45 85 114 163 70 65 37 42 47 43 30
28 41 47 51 54 65 66 63 60 56 54 55 73 130 120 82 45 1 118 103 108 106 98 70 142 156 166 192 212 209 172 131 116 117 76 85 -8 104 50 60 37 74 135 108 127
46 33 41 47 63 84 89 79 72 61 53 87 96 119 88 21 52 7 87 76 90 83 72 61 154 184 198 216 225 223 238 186 113 144 137 143 76 68 51 66 17 28 119 100 166
55 39 41 47 58 89 103 91 85 89 102 116 116 106 55 86 79 25 22 74 98 147 139 157 217 211 235 272 270 189 159 138 113 61 139 121 92 74 59 58 46 49 79 96 180
64 49 38 55 66 112 130 110 98 111 156 168 133 142 92 100 52 70 49 77 93 171 240 186 257 290 170 151 148 143 128 129 79 68 80 89 87 38 38 60 69 83 110 105 224
59 65 43 68 79 106 142 93 100 105 87 76 44 105 37 159 221 114 94 142 144 138 126 194 175 156 132 100 122 99 89 61 65 65 71 79 102 50 59 71 43 51 48 170 319
65 51 48 85 101 134 85 83 88 104 76 116 125 152 119 115 210 127 124 123 156 166 164 172 195 106 126 112 125 110 111 60 74 93 44 32 62 79 104 50 80 86 94 164 323
39 52 65 133 143 116 75 42 107 140 63 103 67 24 77 194 171 151 144 145 180 153 148 146 96 116 138 108 122 129 91 82 63 93 51 88 65 55 69 63 104 90 90 216 348
39 60 130 130 100 110 85 138 106 52 94 89 92 31 69 116 208 55 48 250 194 285 271 268 157 89 108 91 127 117 99 91 72 66 37 51 90 -5 86 74 60 80 117 256 354
44 86 127 72 169 103 77 86 69 124 62 149 136 82 92 74 106 170 188 64 91 106 126 153 157 136 87 65 75 65 112 106 91 81 78 31 93 19 89 46 39 106 193 292 423
46 110 151 167 122 119 78 136 145 140 137 94 82 77 71 90 97 103 112 145 113 150 130 101 52 131 114 102 116 103 93 195 133 138 41 -12 12 47 109 102 78 200 258 396 416
52 124 126 158 167 156 146 199 135 97 115 199 124 107 117 92 92 87 90 81 80 20 8 27 -24 56 111 37 122 151 126 232 211 67 -231 -19 68 153 -10 143 193 271 330 433 461
43 118 210 215 176 172 213 180 95 87 171 132 129 129 122 99 95 91 92 51 28 97 46 -18 -81 -55 -13 120 101 71 55 15 58 42 113 159 104 117 175 189 261 291 346 367 437
129 113 202 221 189 195 206 164 124 173 217 135 116 83 97 93 124 92 36 21 107 163 159 20 77 12 -23 50 19 -51 -72 -116 -220 89 92 229 239 111 181 208 239 268 305 339 364
153 119 109 290 267 222 202 189 133 166 159 100 105 100 92 99 87 80 33 -11 104 39 177 57 97 83 49 2 -47 -101 -172 -176 -179 -71 165 134 130 96 124 155 179 194 247 324 287
153 146 138 303 246 239 222 182 169 173 126 134 101 76 107 60 27 70 91 55 85 166 78 123 74 116 166 -26 -21 -24 -60 -23 -46 47 85 244 261 134 70 63 137 175 210 233 257
192 188 133 286 159 195 193 118 148 136 174 155 121 60 46 -13 -21 74 81 14 104 120 53 99 38 30 -16 -6 -36 18 -37 13 -19 185 258 176 179 129 110 57 103 181 182 215 246
230 181 125 163 166 168 153 97 112 95 175 251 132 59 46 -27 -56 27 123 -10 145 124 59 53 58 90 19 55 117 52 8 133 111 178 221 105 164 101 61 59 75 109 172 218 244
240 166 203 131 131 119 86 65 20 46 39 47 41 86 46 -15 -20 -17 89 15 47 92 86 8 102 162 168 75 9 79 57 110 110 304 249 89 72 3 -23 -28 -1 73 167 201 224
155 171 173 76 84 106 53 41 17 45 97 58 52 41 11 -15 14 -21 33 -1 31 48 25 38 153 270 133 93 42 56 41 40 82 126 146 65 93 -15 11 60 35 56 107 159 213
167 178 109 76 62 55 55 -18 -17 72 -38 49 62 -19 12 1 50 97 38 14 20 42 84 29 88 79 191 151 84 78 24 17 23 21 58 63 101 131 105 39 21 49 55 129 206

GFSSW_con_3kmhel_030.txt.gz
Helicity
2 14 29 32 35 38 40 47 60 85 106 138 139 144 143 137 120 102 86 56 64 48 66 114 131 187 176 168 180 211 246 189 149 127 59 84 164 117 55 65 57 89 85 78 45
-1 5 19 26 28 32 40 53 62 72 85 101 120 149 113 135 88 80 50 32 29 60 88 118 168 196 204 181 200 234 261 225 171 124 59 45 93 132 101 105 70 80 145 126 91
2 2 15 21 33 38 44 54 62 63 73 79 105 126 126 113 89 14 20 13 25 108 102 112 115 146 175 181 218 219 178 207 144 60 69 28 68 88 133 84 68 61 124 172 154
20 8 11 22 34 41 49 56 56 62 67 69 85 96 100 127 74 62 64 55 18 58 122 117 140 145 151 165 147 146 161 134 107 98 84 53 9 165 140 97 80 61 67 142 140
15 22 16 22 35 43 52 53 46 45 58 67 71 72 84 119 129 115 141 141 128 49 63 98 149 152 131 121 128 117 106 127 93 29 44 42 24 53 61 94 97 62 65 41 55
27 21 26 24 37 50 54 52 43 48 46 42 45 44 67 85 61 98 106 150 116 94 73 93 85 130 140 120 128 200 188 105 102 64 51 66 18 51 19 68 82 66 38 48 38
36 44 41 33 37 50 55 54 56 53 49 53 61 47 71 53 68 118 147 150 119 92 111 108 97 184 200 133 122 84 88 99 118 92 63 91 8 -100 56 73 69 28 39 53 45
49 58 51 45 38 47 66 70 73 68 60 70 84 88 51 43 75 35 62 92 114 66 62 67 129 164 178 170 205 163 100 82 123 129 96 108 -126 95 87 108 81 36 25 42 73
51 71 71 52 46 50 70 75 76 68 65 73 103 92 42 49 78 49 129 103 138 97 71 41 100 156 212 186 153 155 143 165 127 120 183 162 -27 54 65 87 78 53 34 47 88
52 62 70 47 50 56 77 83 87 96 105 109 134 89 53 74 59 58 97 101 123 161 167 162 225 224 250 258 236 192 185 134 137 170 146 89 57 64 86 83 58 41 22 55 79
51 68 62 64 55 76 132 116 117 121 151 150 92 99 89 75 78 75 81 132 160 224 216 199 275 261 197 176 165 156 154 122 144 172 155 135 40 25 26 12 60 43 64 69 80
44 69 73 53 55 99 138 117 98 117 89 40 26 95 71 150 190 109 127 197 217 145 183 235 216 185 114 110 145 139 117 77 89 69 120 117 70 54 33 26 57 62 40 102 156
64 57 47 64 95 142 94 89 76 93 79 49 93 121 97 149 170 135 175 143 192 188 175 177 163 69 155 119 156 135 130 110 91 57 27 95 56 39 14 46 55 34 35 104 182
74 64 63 120 195 152 91 50 69 85 80 45 73 48 40 43 109 88 132 160 154 127 113 154 102 136 92 126 135 161 113 93 87 104 120 191 75 78 44 46 76 37 51 88 174
47 53 124 194 165 140 79 89 95 72 159 66 79 42 45 52 107 73 36 131 153 211 212 209 160 120 110 119 105 112 92 110 109 88 101 111 152 -28 27 69 60 62 103 116 224
77 33 142 277 224 110 107 127 92 178 154 100 92 75 77 46 114 136 93 73 131 153 180 197 234 226 99 64 125 133 118 132 145 139 161 76 154 -31 51 76 30 67 127 169 256
46 61 176 220 117 153 157 147 194 203 116 104 97 46 78 100 99 109 143 149 166 182 109 133 144 190 157 135 112 91 141 195 195 238 186 32 110 27 80 22 41 76 143 230 360
4 72 155 229 232 212 218 211 171 133 131 115 65 51 102 103 91 114 114 86 73 134 127 132 73 175 140 176 153 103 115 258 257 236 94 64 133 8 -58 -48 91 11 39 360 535
113 45 331 227 252 242 239 228 125 107 108 87 74 70 93 99 107 89 103 99 139 201 188 131 112 109 113 143 126 133 117 61 145 167 154 90 51 1 48 -4 17 93 197 349 433
54 67 385 231 236 264 187 141 121 99 124 90 65 54 93 90 91 84 86 40 99 212 173 128 114 138 134 110 44 21 85 127 123 153 172 97 76 32 62 94 88 173 231 312 370
-34 56 210 234 264 215 207 203 122 125 121 79 47 76 96 92 107 106 27 -1 69 58 211 171 164 176 213 224 172 161 -34 103 129 136 108 83 -17 -52 44 106 127 153 204 289 347
37 -1 212 289 202 227 205 134 121 90 102 112 71 80 98 95 92 83 71 47 56 132 119 218 15 223 469 228 151 185 -12 -34 -185 -204 -146 7 -40 32 7 137 176 177 191 255 334
142 124 182 254 297 186 113 153 111 117 110 74 60 87 81 85 57 72 45 -9 9 116 4 58 75 179 83 32 24 21 35 12 -66 -281 -400 33 204 -40 96 153 164 291 245 266 281
116 298 271 158 168 188 125 54 101 85 78 140 88 123 61 56 27 10 -1 2 56 139 206 137 56 97 33 -26 10 81 -33 -39 -111 -337 -59 93 51 102 124 107 146 182 215 212 207
188 215 270 196 130 128 74 15 66 91 55 51 51 94 60 6 6 32 -13 49 -3 139 199 128 116 162 219 146 19 102 44 12 140 -79 130 222 189 57 46 40 71 130 145 165 173
192 359 152 93 116 104 20 22 30 32 63 61 72 50 47 43 55 -24 32 28 7 64 139 151 299 306 112 6 53 8 23 98 127 158 209 148 171 56 65 106 67 67 114 125 154
163 222 189 71 104 46 61 60 -5 -18 -31 13 21 38 15 123 58 11 16 44 -8 5 85 175 212 279 87 94 99 76 129 19 104 145 84 176 62 38 59 47 21 30 56 94 152

GFSSW_con_3kmhel_033.txt.gz
Helicity
15 17 11 18 24 29 40 48 51 47 58 95 139 117 84 87 86 106 64 58 57 46 67 99 98 116 115 138 179 207 235 154 152 149 109 43 136 150 149 162 112 89 75 67 91
10 20 9 6 16 19 30 36 53 47 55 78 125 138 109 96 92 81 51 24 35 56 103 132 126 125 149 157 199 234 247 192 169 151 72 69 81 131 147 158 126 93 74 91 107
8 19 15 4 10 15 15 24 42 43 47 68 92 111 123 97 37 20 48 23 16 68 90 105 119 124 140 172 217 237 148 178 151 95 65 31 28 27 119 114 96 73 62 81 125
6 16 13 10 11 13 11 19 32 43 44 58 73 95 113 98 42 46 61 28 36 153 153 131 137 148 144 162 161 197 159 132 86 87 73 58 5 46 111 108 153 143 98 94 94
20 12 17 18 14 20 20 27 35 39 39 45 53 90 103 89 44 89 152 178 109 82 78 109 125 152 131 119 141 154 109 96 70 57 38 35 34 42 50 99 110 132 129 64 47
46 37 32 34 23 23 29 30 34 44 48 46 47 58 75 64 48 72 112 124 149 128 88 103 114 115 158 125 124 144 135 83 81 68 39 30 11 35 16 39 91 104 124 95 46
51 59 51 54 32 34 29 26 37 43 50 55 60 61 63 31 69 71 125 125 126 100 113 94 115 163 198 138 130 95 86 65 56 71 46 75 -30 -121 10 5 39 70 97 94 67
57 48 71 72 46 39 40 45 54 65 64 59 70 70 32 59 79 50 68 109 111 97 104 96 127 186 198 184 190 134 104 99 59 104 99 81 -102 47 72 58 43 57 82 80 62
35 48 60 97 62 56 50 63 70 67 58 50 85 70 37 73 78 47 74 104 135 117 95 107 162 172 224 194 180 163 145 125 148 105 135 124 12 -13 47 117 90 78 68 68 29
37 32 52 65 72 58 74 100 95 96 80 72 130 76 55 70 75 80 66 104 143 169 167 169 203 217 227 224 252 183 151 113 100 108 143 102 44 38 41 86 110 53 63 51 40
101 23 47 64 87 82 147 159 144 120 136 141 68 53 94 108 107 112 118 201 199 216 183 220 275 295 172 164 163 151 144 137 149 147 114 87 44 18 17 13 64 32 52 30 22
117 49 49 65 89 114 188 168 112 127 85 32 76 65 115 148 139 150 152 197 204 187 223 253 208 200 154 166 151 178 146 135 103 80 115 87 39 35 54 17 43 63 51 24 51
107 140 58 66 95 189 125 119 97 98 98 82 99 100 92 117 131 134 151 172 165 226 218 191 231 112 189 186 188 173 159 151 124 98 80 70 16 54 57 61 51 60 71 47 43
101 152 53 47 184 234 162 117 105 95 123 57 97 114 132 182 106 93 107 175 210 181 191 189 148 102 155 153 177 132 118 95 117 143 171 128 -24 4 81 108 88 82 86 59 105
155 149 94 134 289 302 133 140 99 116 151 92 133 85 86 99 101 94 73 138 158 196 238 217 151 127 129 160 105 179 65 95 92 142 139 142 177 -150 -52 92 58 87 117 97 79
160 140 125 242 308 195 161 163 159 202 179 105 106 97 112 58 96 123 113 105 172 149 119 120 170 197 192 118 132 195 120 97 90 127 215 170 200 -126 12 62 43 71 100 86 107
88 69 158 356 271 184 210 247 255 242 134 121 118 98 103 90 66 100 157 181 197 191 159 183 132 195 195 164 151 169 183 212 196 279 293 50 132 70 58 71 50 79 81 82 153
9 54 35 358 287 265 256 388 256 133 181 82 75 114 96 88 88 128 140 138 130 180 145 123 67 158 239 263 260 249 209 259 250 256 188 145 130 52 -43 -70 175 58 64 45 143
-39 42 0 267 229 252 194 300 205 170 128 109 136 118 72 81 130 119 111 132 141 193 179 139 93 94 111 131 216 257 222 129 173 153 143 168 128 34 28 38 -2 95 68 133 166
-31 -24 20 119 203 171 232 190 203 179 140 101 97 52 65 72 97 88 110 72 64 163 171 29 -35 96 139 104 106 196 168 168 177 135 -63 87 60 -5 -46 60 54 -20 29 93 189
-18 44 53 259 390 260 249 244 184 122 108 89 90 92 44 105 105 100 97 50 62 65 104 150 84 115 233 381 355 255 132 182 160 159 124 35 -17 -48 -36 8 27 67 131 171 194
65 -37 39 389 357 277 241 212 136 116 120 111 127 100 72 84 71 90 106 56 31 145 69 92 70 141 246 399 269 273 141 156 106 169 137 -10 -180 -13 -37 41 34 115 125 161 224
56 84 128 332 395 261 244 169 142 117 99 89 58 42 44 94 83 84 55 15 -7 61 21 74 54 36 85 79 104 114 205 161 103 -37 -38 -59 -46 -7 58 104 94 203 178 200 217
57 118 282 214 216 173 198 137 121 79 69 84 52 41 62 68 58 46 -32 27 -8 71 105 145 90 262 187 146 -6 99 137 228 128 -65 -76 -109 -86 -56 200 148 140 97 160 222 209
58 46 240 139 144 122 144 68 79 49 35 33 33 61 85 47 42 32 -15 -16 -25 7 178 170 123 268 420 410 166 18 144 121 114 156 7 -100 -30 148 321 223 142 117 186 196 162
54 35 177 47 131 122 93 75 12 21 48 59 47 22 39 49 26 -12 26 -34 -17 -24 69 84 206 270 409 241 227 37 25 136 90 100 1 -92 152 161 150 126 139 135 126 116 117
-12 53 152 107 133 92 54 59 16 57 4 21 -13 9 12 -5 56 64 2 -11 -6 -51 44 73 126 215 252 19 27 79 93 302 142 124 305 275 346 312 193 132 138 79 74 81 99

GFSSW_con_3kmhel_036.txt.gz
Helicity
3 13 16 26 30 30 33 42 49 46 52 61 94 116 64 17 61 83 45 49 58 44 86 101 83 97 98 124 156 160 203 95 86 107 98 53 68 100 124 142 150 116 91 69 71
16 12 4 20 19 24 30 39 43 44 45 50 68 114 89 56 85 59 4 11 31 55 102 112 106 115 125 118 155 175 167 97 70 69 53 58 73 104 168 189 175 156 101 81 66
40 11 9 32 14 20 35 34 43 43 37 42 57 83 89 63 46 19 40 6 8 38 84 85 99 103 120 136 162 194 167 139 130 125 112 50 47 21 72 97 151 161 178 130 80
23 26 -1 25 13 19 26 26 43 41 35 39 47 59 87 75 40 52 64 73 45 77 115 107 101 115 94 120 130 189 172 119 70 84 71 50 46 47 61 56 91 148 200 182 120
13 28 25 18 20 20 22 20 38 37 32 29 36 45 74 77 57 85 94 115 86 102 97 90 125 125 94 98 135 162 155 142 117 105 76 59 29 20 20 70 92 115 143 192 167
28 18 35 37 25 26 25 29 29 37 35 35 35 39 58 52 37 110 100 127 113 59 75 99 93 106 107 104 115 167 147 137 115 72 72 62 33 78 -13 -15 66 118 135 143 142
112 30 18 45 56 30 28 36 35 38 40 46 46 47 45 24 48 68 128 113 101 86 100 96 111 139 152 103 125 100 105 104 102 103 88 61 16 64 60 61 70 29 118 124 127
179 90 6 35 69 47 22 38 57 77 56 51 54 52 16 44 54 58 73 114 107 107 121 94 96 137 170 175 177 143 126 133 122 96 116 112 -13 46 87 49 80 112 117 133 116
137 199 31 24 64 70 37 51 89 84 68 57 72 47 25 73 64 81 88 100 132 143 127 126 148 142 159 169 156 157 171 149 143 121 122 119 111 8 71 72 101 122 108 108 105
141 193 143 25 42 100 55 94 121 112 108 114 94 63 68 69 61 59 50 99 135 157 168 164 179 195 207 174 178 147 166 138 127 98 143 121 96 68 53 74 94 108 113 128 95
151 136 256 70 33 116 179 188 172 149 136 118 76 72 86 60 73 99 86 163 191 196 159 194 220 231 138 156 146 190 167 151 174 143 114 108 57 43 14 27 37 38 66 97 119
151 87 172 175 43 165 280 215 122 88 86 33 91 80 99 168 133 109 93 134 174 152 217 231 156 142 146 176 185 181 145 127 105 80 103 65 7 46 32 22 28 35 51 47 75
114 141 71 83 113 250 191 132 149 87 85 85 82 95 121 101 105 111 117 143 151 207 177 179 184 160 166 204 207 179 153 130 107 119 125 77 -86 -13 43 65 90 79 95 68 82
72 113 227 73 84 275 237 150 153 77 136 60 92 101 139 137 82 108 161 178 170 115 154 143 137 128 188 238 186 115 135 93 105 134 103 77 -56 -56 54 87 77 96 119 130 110
79 123 121 154 86 291 269 139 120 123 159 88 130 155 108 133 160 113 81 120 141 158 211 184 155 152 148 115 193 207 103 94 102 119 121 148 220 -120 -113 7 54 102 92 113 141
71 93 170 91 55 249 277 211 160 251 159 78 93 98 130 104 139 115 76 114 150 121 139 121 140 170 166 134 122 193 140 167 146 160 152 114 142 -99 -24 -78 -43 119 101 89 99
104 24 111 70 121 259 253 238 279 250 160 95 113 105 100 126 107 88 93 137 162 145 158 155 153 203 196 124 90 163 191 174 142 209 247 42 39 100 -7 59 0 -9 72 79 85
79 24 60 27 165 290 318 430 245 140 210 66 153 127 133 107 93 84 103 126 127 184 187 152 132 87 103 157 183 200 277 341 245 220 158 152 166 112 2 -82 34 64 189 89 93
56 44 42 -53 144 370 294 326 228 202 166 121 83 128 112 90 87 92 91 99 130 197 187 141 81 72 112 117 108 208 298 241 280 162 195 220 187 88 -17 -10 48 -28 10 78 76
17 7 50 46 115 451 373 311 225 208 187 151 132 115 94 78 69 61 81 77 52 161 140 152 49 12 122 163 157 181 251 303 421 382 325 252 191 103 46 96 100 146 41 96 76
34 -2 44 53 214 278 299 263 245 177 177 136 131 125 91 68 61 91 91 64 55 73 162 84 114 120 165 156 216 249 306 338 385 388 333 163 117 12 -20 -16 -8 41 87 74 155
-8 70 29 159 213 194 215 320 230 144 170 147 124 121 91 48 28 68 72 51 81 126 116 99 128 79 177 243 220 261 294 204 251 471 346 220 12 97 -62 -76 -66 41 89 87 147
54 58 -21 121 170 207 224 274 178 175 108 90 104 94 65 58 47 42 63 41 142 130 110 81 92 -53 27 138 259 362 270 276 223 214 236 51 68 -88 -51 -66 -186 -11 96 142 155
94 55 81 282 170 250 242 187 180 122 76 82 57 45 57 39 58 67 12 5 -23 80 62 67 133 74 145 176 143 263 344 270 270 227 178 136 164 181 -26 -91 -9 32 94 159 125
57 69 158 150 92 247 203 123 152 90 69 47 3 3 31 24 37 28 10 -29 -35 -32 15 81 81 177 303 353 448 467 387 429 316 263 319 194 128 32 -22 -57 -12 52 129 157 145
22 90 99 17 134 120 186 106 67 130 37 38 21 17 -7 47 58 40 -16 -2 -18 58 128 119 126 116 323 402 248 181 223 249 382 228 303 193 81 -2 -9 -45 44 178 170 148 107
38 -77 63 -7 125 123 128 60 41 69 8 45 27 -3 -18 -19 24 4 -20 -23 -18 22 -31 17 39 133 351 228 140 176 247 326 224 115 196 217 239 89 191 373 287 246 197 91 52

GFSSW_con_3kmhel_039.txt.gz
Helicity
23 28 -5 10 6 17 24 35 45 47 42 53 84 119 97 61 51 86 70 51 33 36 77 95 103 119 124 154 170 168 224 145 112 102 60 69 61 73 98 119 140 129 120 104 79
23 16 17 12 9 11 24 32 38 46 47 54 77 101 106 94 89 71 50 17 22 37 96 116 120 128 146 156 176 193 170 77 67 58 25 55 72 102 150 185 183 191 147 108 70
45 18 14 7 1 5 27 33 31 35 53 56 63 86 94 82 68 32 52 10 -4 28 89 111 106 122 143 155 159 175 102 75 51 77 88 70 69 55 114 144 129 193 209 185 144
81 42 20 18 2 -9 25 29 31 30 53 58 59 74 89 96 86 50 83 109 79 53 92 90 109 118 117 131 160 168 90 43 18 60 63 56 62 81 86 73 108 134 192 180 240
116 96 58 27 36 -16 2 32 33 40 44 59 64 73 80 91 54 67 67 59 35 70 75 107 114 117 92 97 121 121 91 79 53 65 74 87 54 56 35 24 56 107 160 170 179
169 103 126 75 29 32 -4 34 35 36 47 46 58 63 72 68 41 91 100 83 83 74 68 99 69 87 99 98 119 112 92 70 55 20 41 64 56 91 31 11 34 79 107 133 134
242 159 126 139 45 53 22 25 27 35 39 42 50 59 58 31 30 55 87 81 78 57 58 99 93 109 110 91 113 102 67 45 38 64 87 72 24 68 58 69 68 89 105 135 116
168 212 132 167 100 44 61 36 11 35 43 38 51 59 28 42 45 62 63 86 85 86 87 76 84 109 112 132 122 87 80 67 100 104 91 121 62 114 68 46 64 78 111 120 98
136 177 189 193 197 46 81 56 47 87 84 68 73 46 39 57 48 51 55 68 98 120 129 100 110 110 121 116 106 112 105 81 91 119 122 83 73 60 104 132 109 103 122 151 110
113 148 133 123 294 98 98 125 124 142 109 104 73 56 69 63 71 87 88 114 128 143 156 138 132 128 118 129 107 77 101 90 102 123 146 120 71 63 62 63 85 105 114 127 172
111 126 126 93 190 159 158 296 194 147 148 90 79 110 100 84 104 99 81 134 132 127 115 130 115 123 91 110 133 139 113 82 91 97 77 57 27 61 60 43 36 61 65 61 101
32 72 125 145 112 240 327 343 216 55 68 25 87 64 100 104 108 96 82 108 129 120 166 162 86 89 116 119 113 107 89 84 80 54 115 79 6 24 47 73 88 81 70 63 78
58 48 75 162 93 187 280 228 195 154 89 76 67 107 105 104 117 84 89 120 123 147 114 147 110 77 96 132 131 131 114 100 97 131 118 77 7 -39 -29 11 75 91 88 76 89
55 53 59 152 77 110 133 242 163 155 114 63 103 78 138 183 84 89 101 122 130 76 123 95 98 132 143 150 131 100 133 88 92 105 72 73 10 -15 -21 2 33 68 93 77 80
24 39 48 65 126 -85 88 221 216 167 115 97 130 146 118 165 120 101 131 177 145 125 150 114 90 116 105 89 188 155 143 121 106 102 100 96 131 11 -23 -23 28 65 66 88 86
-20 40 13 1 -4 -15 61 261 267 302 168 89 101 132 154 134 139 145 113 144 130 99 77 92 124 134 113 119 104 185 157 101 121 152 170 138 160 63 71 2 -65 -46 21 81 70
8 43 23 -10 3 5 88 328 390 230 142 100 106 109 118 152 151 143 138 130 117 112 88 84 86 151 185 164 163 213 208 213 177 238 264 92 99 299 135 53 3 20 64 74 78
-13 102 4 -17 24 25 238 417 269 195 207 105 129 124 113 120 109 118 110 89 66 140 104 64 72 104 69 60 137 165 185 287 223 266 227 232 280 350 135 -33 -22 11 48 59 102
83 18 20 -14 54 39 449 380 289 155 162 138 105 143 126 109 129 88 65 74 72 168 105 66 61 73 78 108 90 180 221 100 263 242 284 373 327 221 177 20 31 -13 38 57 18
6 17 39 73 54 76 274 276 260 152 187 141 122 77 98 60 91 54 35 34 61 110 94 130 91 60 99 170 135 242 221 318 464 502 435 369 306 402 253 36 8 34 -50 63 75
-7 -5 6 53 126 234 198 281 312 205 153 164 142 138 95 62 43 49 38 49 35 74 113 106 100 63 96 135 189 196 233 373 437 553 504 379 385 232 87 67 57 57 27 9 98
49 15 140 70 219 211 214 265 254 188 188 136 125 123 106 87 73 37 16 37 60 115 80 90 35 78 132 187 183 212 248 325 413 485 516 405 308 199 126 162 -2 -79 86 -20 37
66 24 16 167 105 115 79 214 194 205 148 118 110 114 98 81 49 24 27 24 104 121 106 92 65 60 22 73 143 283 334 418 517 332 399 359 244 3 -49 -70 -68 -68 -31 -7 53
72 61 124 118 173 98 98 123 193 212 132 95 79 94 88 60 47 27 20 -6 69 -15 95 93 96 177 131 204 123 287 474 503 503 436 407 397 450 167 130 -5 -157 -137 -19 68 85
72 109 74 34 20 10 109 160 151 167 75 69 69 49 43 15 22 25 1 -26 -3 -81 83 96 24 186 257 307 360 435 388 281 416 485 304 254 369 261 83 28 -13 5 51 91 117
82 77 48 2 66 94 132 94 115 95 69 63 52 -7 -0 4 24 3 -32 -41 -24 76 98 22 74 84 278 291 295 340 239 246 120 207 175 218 300 156 49 -31 1 83 63 135 129
102 39 59 6 96 132 131 112 55 43 45 -12 13 9 -11 -0 -9 -1 -8 12 17 52 55 24 68 53 124 96 130 88 183 162 82 106 116 161 187 102 77 93 98 89 173 204 160

GFSSW_con_3kmhel_042.txt.gz
Helicity
68 48 17 19 -3 -2 -3 14 17 26 41 57 75 85 103 130 80 91 51 78 57 44 65 120 79 96 119 126 155 173 147 100 54 31 53 67 62 48 84 99 98 108 165 156 107
102 90 52 15 29 6 -6 5 22 33 41 49 70 89 99 131 88 76 45 41 24 43 74 87 66 74 117 119 140 142 143 62 102 81 58 69 82 92 120 86 82 103 129 163 129
175 93 74 46 24 32 4 -2 19 28 37 47 60 77 96 119 104 61 35 -8 12 27 81 105 94 95 119 132 138 144 77 71 88 78 89 57 48 71 90 92 101 124 149 181 178
182 157 131 99 54 28 24 -7 11 26 36 53 56 78 78 78 90 93 146 90 48 38 57 82 101 96 108 109 132 125 76 84 81 61 63 7 21 11 31 28 148 173 197 212 197
167 208 115 120 104 53 49 13 5 24 39 54 62 69 81 80 79 52 56 88 68 52 95 91 64 71 71 95 101 83 61 78 54 47 41 54 -27 -40 10 19 63 87 127 185 205
144 187 177 157 116 105 37 47 5 24 43 54 59 64 69 67 67 107 98 57 49 9 34 92 74 62 82 76 81 96 69 39 37 34 39 23 -8 1 -25 -9 1 39 81 106 162
112 144 200 233 132 141 80 49 19 19 42 48 55 63 59 78 55 93 115 86 69 43 28 51 61 51 58 61 70 60 42 28 5 14 12 18 3 4 -14 13 -32 -5 42 84 103
66 117 126 184 189 172 171 39 54 41 44 43 53 56 64 68 56 53 70 89 82 79 48 68 91 93 95 106 55 64 50 49 46 63 46 46 -27 48 61 34 30 -1 13 64 95
53 101 116 158 115 205 203 46 69 71 54 61 64 70 85 55 67 56 65 62 82 97 105 88 80 81 56 51 42 23 56 28 51 72 82 45 40 39 93 82 63 63 79 120 154
48 75 99 130 146 195 208 51 116 170 158 94 77 78 60 68 73 90 97 73 115 101 100 81 78 49 36 49 73 44 40 42 38 54 69 36 19 30 43 46 44 52 67 73 106
42 37 47 93 141 170 209 169 376 321 195 158 88 132 56 117 57 88 98 115 104 51 52 41 56 38 20 17 40 86 68 57 44 45 48 23 20 37 38 30 36 48 47 54 60
21 25 63 57 119 -28 124 167 380 199 114 64 82 40 88 73 96 84 62 79 57 31 64 61 36 18 43 32 29 30 36 50 55 48 92 67 12 50 47 79 55 45 51 48 51
18 15 33 35 44 -4 -15 291 191 170 119 91 87 84 68 67 91 58 25 78 30 41 5 37 61 43 10 31 32 26 42 41 49 83 76 42 40 -45 81 65 43 28 23 44 58
-1 -0 42 14 -2 27 -63 214 159 210 128 52 91 57 93 96 69 66 50 84 82 18 39 26 35 83 58 52 43 50 80 50 61 85 75 111 91 97 65 33 22 2 9 -7 39
-14 16 32 10 -5 23 -48 59 266 276 117 61 157 107 95 105 66 98 80 128 63 79 94 59 41 32 27 7 37 80 87 66 90 111 118 85 145 96 93 27 40 40 75 107 79
-12 -58 8 5 -75 10 39 12 247 251 121 101 159 133 136 109 122 116 102 138 113 87 94 82 122 86 41 55 67 166 91 80 127 151 140 87 127 97 64 78 74 55 5 59 126
6 9 -34 -18 -2 3 -1 201 213 238 111 110 120 140 126 149 144 88 93 103 96 95 64 59 36 75 93 97 124 128 156 153 94 163 198 181 133 228 133 165 121 45 28 76 72
-28 95 1 22 21 40 37 92 225 208 205 82 104 94 153 97 142 112 86 93 62 107 103 65 43 26 55 34 101 106 118 153 151 147 117 194 226 248 178 200 145 133 43 72 78
85 16 8 22 14 43 55 105 113 161 137 68 124 142 159 115 151 142 94 89 63 63 56 29 52 58 58 90 64 112 110 47 102 136 183 270 198 87 52 37 6 -77 3 74 92
57 2 25 8 16 23 134 73 177 141 85 39 101 95 111 61 89 62 53 56 30 24 14 76 55 61 117 104 82 82 142 186 246 257 205 199 161 225 144 71 65 68 101 91 65
-8 7 27 30 109 136 167 88 133 67 82 115 60 69 88 32 81 49 40 53 -1 8 6 70 62 69 88 62 88 121 164 199 238 347 353 279 279 223 190 100 27 67 85 136 122
1 13 60 79 86 131 102 87 189 111 150 99 109 102 36 62 64 65 38 48 13 47 26 75 64 59 79 41 47 84 121 169 301 307 363 364 435 220 157 100 104 83 45 -22 6
82 95 101 111 65 120 182 189 240 184 136 89 93 88 87 39 61 50 28 18 20 31 64 120 60 32 3 41 69 102 105 195 374 317 355 326 344 193 107 85 54 15 26 29 -23
50 68 83 111 95 146 193 192 225 231 148 96 95 93 89 68 88 44 27 12 -25 24 122 86 75 63 30 32 37 164 311 371 386 368 335 409 302 66 75 6 5 12 -23 1 -22
45 183 109 69 80 47 50 61 85 117 94 79 89 58 59 61 41 28 19 31 10 12 47 26 49 38 102 128 126 187 237 255 215 347 240 157 -0 31 -9 -0 -3 -8 1 -6 136
266 84 82 54 54 29 47 19 36 100 89 56 35 24 36 12 14 10 17 -10 -3 32 8 64 45 13 67 105 122 216 187 164 72 56 110 111 19 8 28 -15 5 45 41 102 124
95 124 57 64 42 30 55 70 52 64 84 51 36 9 -1 11 -2 10 26 40 25 9 10 42 32 1 5 56 118 39 51 69 85 70 34 70 47 31 67 31 69 94 121 126 22

GFSSW_con_3kmhel_045.txt.gz
Helicity
151 179 97 82 33 24 10 1 4 21 26 41 54 69 96 123 64 84 58 81 57 62 69 89 85 91 121 135 153 110 132 108 50 40 58 84 159 71 92 118 95 81 75 113 141
168 166 195 134 85 36 26 17 -0 20 30 35 53 66 86 111 41 45 47 75 59 36 58 86 78 73 98 114 142 122 127 63 60 69 70 125 78 89 127 68 93 88 95 120 100
133 158 155 171 117 93 33 25 19 7 32 32 45 62 83 108 105 38 17 21 19 24 27 91 106 69 90 113 84 82 68 47 105 172 188 178 96 98 119 130 74 64 76 97 156
89 146 174 146 154 156 108 32 26 14 19 34 45 63 87 94 97 152 123 31 -0 27 56 53 66 82 112 92 65 89 68 74 133 106 92 89 94 67 37 62 120 73 113 223 163
36 91 146 172 143 197 146 95 39 21 16 31 41 65 87 83 78 24 46 71 62 58 47 56 63 80 110 115 110 89 86 74 99 85 57 72 61 68 89 43 97 188 120 148 138
23 12 108 166 149 146 154 139 30 39 22 33 39 63 78 75 119 62 24 55 73 59 59 65 112 143 124 187 126 106 89 74 55 54 38 37 31 40 22 11 -9 29 56 78 87
23 31 45 127 174 125 146 157 75 61 40 38 44 43 71 83 70 68 87 63 56 39 73 47 80 105 63 116 84 76 49 43 20 17 23 7 1 16 14 -42 -42 -13 -9 -0 33
25 11 48 106 135 174 154 130 121 73 70 46 45 51 76 92 75 64 79 76 65 85 82 65 63 69 94 154 66 54 36 61 33 62 52 56 -8 83 7 31 32 27 36 -0 6
26 28 45 62 119 154 166 160 102 72 79 66 82 71 72 53 66 52 45 64 86 117 123 93 47 83 79 64 69 46 108 29 63 11 81 17 16 58 77 77 68 51 72 64 35
39 25 35 53 57 116 128 133 83 90 122 61 144 80 69 75 88 91 83 59 62 96 142 118 91 73 54 67 97 80 43 79 73 22 27 56 24 25 58 24 44 64 72 99 102
36 26 12 26 44 74 121 8 84 226 243 355 75 168 50 111 87 95 78 65 69 57 91 77 76 51 32 28 66 92 131 80 62 54 35 25 12 17 21 14 18 47 57 64 73
27 13 -4 7 32 56 48 -34 173 290 335 198 115 110 93 48 108 112 87 92 52 46 68 84 45 29 65 82 49 48 43 44 40 39 46 34 28 28 24 42 44 52 72 71 80
12 -7 3 18 55 43 50 47 -20 125 270 137 105 76 75 77 75 61 30 74 36 34 33 39 49 42 26 28 38 27 39 43 55 75 48 18 17 -25 29 40 14 -1 19 48 62
1 -12 -13 29 16 8 55 -101 -16 24 274 189 127 127 111 85 95 46 14 89 108 34 31 35 19 37 24 22 16 35 35 55 50 50 29 90 20 68 79 37 50 48 73 78 73
-6 -22 -14 -32 18 24 30 -81 56 204 223 81 183 79 80 101 77 72 20 94 66 61 69 36 32 6 11 -7 32 48 90 55 56 77 75 55 102 72 110 48 57 75 80 78 79
-35 -43 3 -79 -7 14 5 -32 67 239 226 279 230 147 149 120 114 77 86 133 136 64 42 52 56 43 5 48 35 116 35 26 44 42 74 17 64 89 99 165 198 43 79 84 23
-27 -50 -43 -59 15 17 -8 14 92 166 41 162 205 174 146 155 121 91 101 139 98 100 50 23 31 42 50 68 64 79 84 56 12 98 141 133 133 214 112 63 117 107 112 123 128
-6 135 33 3 -3 32 30 45 183 77 164 105 97 115 195 139 89 73 53 78 50 63 50 38 43 11 56 41 74 35 89 102 117 100 155 227 184 169 64 115 109 131 99 91 94
56 44 -5 -3 10 40 10 87 94 95 123 95 117 153 170 87 116 96 50 45 36 45 72 52 81 66 61 51 39 96 78 92 110 89 142 198 133 110 63 8 112 90 73 46 98
51 32 2 -7 41 65 27 81 93 119 62 43 142 134 146 98 117 79 73 39 64 18 47 88 79 55 81 90 47 47 110 158 180 130 101 112 115 154 105 97 176 193 106 102 110
82 13 16 27 58 79 107 39 103 74 89 80 50 77 56 56 66 59 54 106 18 30 -14 44 64 66 88 36 70 105 93 150 157 219 192 126 195 163 224 170 149 134 136 170 67
63 3 22 31 37 116 87 25 68 71 200 86 16 65 22 40 73 92 88 123 -3 3 13 26 54 56 31 28 48 65 86 90 188 165 217 273 291 146 64 124 79 31 67 70 57
34 53 77 43 96 80 59 93 58 152 164 81 70 53 32 39 114 100 65 36 8 -0 20 61 35 43 72 90 47 54 1 95 193 165 321 301 466 219 108 69 82 49 43 33 26
11 23 57 31 129 59 91 93 117 86 79 46 44 31 29 46 69 44 51 41 13 8 123 59 43 58 75 90 38 80 116 162 232 295 289 541 304 194 62 48 27 62 53 37 49
109 57 42 90 156 125 74 106 40 121 113 70 63 67 51 79 68 67 38 47 28 38 47 56 34 37 51 61 48 50 72 96 145 276 325 312 98 99 -22 -8 -5 6 -35 45 72
163 53 109 112 45 54 73 28 57 112 131 76 33 34 60 59 81 52 20 29 29 14 36 55 62 63 113 62 23 80 30 24 67 104 91 124 135 74 44 37 63 12 25 -34 -46
153 148 125 91 74 35 73 41 12 33 78 47 13 21 50 68 56 51 58 47 47 16 18 58 54 21 40 41 47 40 14 45 105 92 78 89 74 4 5 102 100 88 83 127 179

GFSSW_con_3kmhel_048.txt.gz
Helicity
82 118 131 151 157 119 89 22 31 17 14 35 38 41 56 83 106 43 44 66 38 44 50 75 89 100 110 131 122 118 168 128 91 64 57 67 67 154 182 108 86 76 85 66 113
31 54 82 113 142 164 123 74 34 35 14 28 34 47 54 87 87 54 24 42 53 53 62 62 95 101 128 109 185 240 188 143 96 68 75 73 71 114 181 114 138 154 95 64 46
33 38 62 66 97 121 141 137 48 39 32 19 34 45 60 91 71 41 1 -2 24 21 7 44 122 96 128 140 148 162 150 131 109 126 52 150 275 175 238 221 138 101 109 135 61
22 29 38 57 73 91 130 167 131 36 40 30 19 39 66 86 81 69 23 -3 4 38 24 48 105 131 139 128 108 108 102 89 95 202 75 76 173 271 175 122 106 149 112 129 152
38 30 18 28 72 91 90 160 182 147 48 37 25 49 78 86 101 25 37 85 42 33 38 43 58 86 100 113 105 90 86 84 164 159 130 50 117 153 184 171 66 88 210 115 202
49 41 31 -1 27 108 105 139 185 166 47 48 36 54 93 76 127 10 -6 18 65 53 34 40 113 99 158 148 156 120 86 94 148 146 84 65 46 83 113 13 35 107 156 216 222
65 47 30 -8 16 86 141 135 162 154 165 57 44 56 80 62 115 64 64 32 90 51 45 65 119 126 130 146 144 161 110 101 97 91 88 55 30 42 29 52 52 55 -21 8 132
45 31 24 23 32 63 109 137 170 148 124 72 48 75 91 76 82 60 61 78 60 126 62 76 91 119 167 169 106 87 73 90 37 17 53 52 22 38 61 91 57 29 37 -45 14
52 38 29 17 24 57 83 108 132 163 35 50 107 144 76 97 84 52 51 68 57 45 90 44 84 118 153 142 86 77 118 80 79 39 48 69 37 23 141 79 98 83 69 39 -5
41 43 29 18 18 30 36 43 93 127 71 90 91 133 140 81 94 52 62 77 101 95 120 135 115 106 119 119 117 109 93 108 111 70 6 38 38 42 81 53 61 88 97 108 118
41 20 23 12 3 3 29 14 2 18 38 274 166 255 67 142 125 105 95 63 84 111 161 97 138 95 47 36 58 229 186 228 183 190 76 46 32 39 40 56 45 77 95 83 78
17 10 7 -8 9 11 17 19 107 93 -2 126 140 131 108 93 123 104 84 144 94 89 117 149 84 35 70 93 99 113 94 81 66 46 42 23 52 42 61 90 83 92 102 118 113
14 9 -1 -5 7 7 -4 23 -26 -148 147 52 179 117 76 91 117 92 93 128 88 55 82 80 76 34 74 90 89 78 71 74 84 58 20 36 3 -10 91 51 44 53 78 111 125
-13 -5 -21 7 -1 20 25 3 -38 -212 108 91 215 159 124 158 122 70 45 140 104 45 48 53 54 65 64 49 49 70 70 59 63 62 44 74 7 15 39 41 57 78 86 95 98
7 -7 -40 -47 1 12 8 -39 -108 -110 194 76 256 92 104 98 155 88 31 125 85 91 129 65 58 37 52 43 51 73 98 92 73 74 50 15 58 -15 32 18 16 55 83 85 73
1 -6 -37 -41 16 8 35 -19 -10 -22 199 182 288 147 169 123 156 155 117 154 208 143 72 63 40 60 46 59 81 110 45 22 34 27 33 -18 37 -4 -1 84 256 220 138 90 65
1 -3 82 106 83 23 38 -7 72 96 58 178 292 136 149 198 153 137 165 160 136 137 79 59 26 34 82 45 60 75 51 30 -5 22 22 -9 33 142 88 64 79 71 144 172 178
-9 30 39 29 7 38 36 56 164 -14 69 131 187 152 162 181 130 139 104 102 76 95 54 40 31 58 40 56 62 41 56 47 42 57 102 176 132 115 18 40 111 104 137 144 140
28 88 36 6 22 46 29 60 96 86 50 122 129 240 179 163 155 121 84 60 57 81 66 35 49 31 30 42 62 69 26 114 132 88 101 123 171 96 -5 1 46 114 145 103 99
62 50 23 -4 28 32 78 -69 -22 159 43 60 199 167 183 130 114 95 71 31 54 23 48 116 77 61 59 39 30 37 64 129 155 84 75 89 65 43 159 233 257 242 173 149 123
60 20 3 17 44 82 116 -45 140 133 -6 98 62 89 62 135 97 88 43 27 21 35 35 65 83 88 100 43 68 70 62 108 153 122 123 79 73 165 176 207 206 223 199 123 155
49 25 14 15 69 125 -14 3 115 136 96 44 53 50 53 95 74 100 61 123 1 40 21 57 71 72 53 25 13 69 92 126 153 86 136 178 233 71 90 186 202 161 76 96 97
13 48 30 34 152 122 8 89 71 175 111 48 69 25 25 71 138 132 105 81 50 32 51 70 47 63 59 86 76 88 73 99 82 101 162 196 318 212 198 53 56 65 114 113 96
47 57 27 -5 94 73 27 75 77 194 126 56 27 -7 33 94 70 96 103 65 43 49 106 47 49 43 61 118 109 75 53 20 117 186 185 399 328 340 170 3 14 25 58 88 109
56 68 45 148 70 46 46 56 72 141 99 110 103 16 32 100 59 57 66 56 44 54 71 74 35 31 44 25 21 7 31 66 144 247 277 314 202 233 95 79 61 106 196 266 185
35 25 93 66 49 37 48 73 49 64 113 64 23 60 89 62 98 31 31 33 26 36 41 69 38 54 44 60 10 -1 14 68 90 145 188 166 207 137 114 96 108 88 114 121 83
65 95 122 106 76 85 51 64 23 36 92 85 47 60 87 116 90 133 101 33 47 28 19 26 25 25 46 75 47 8 32 25 88 99 60 66 81 46 13 33 33 57 60 92 83

GFSSW_con_3kmhel_051.txt.gz
Helicity
43 45 57 77 68 104 106 120 126 23 30 16 18 37 48 65 84 67 55 57 24 32 90 103 91 96 150 158 151 136 197 141 111 82 68 47 20 88 149 190 218 200 106 77 80
47 48 52 53 50 70 87 108 123 160 28 26 20 29 47 67 67 47 37 4 34 4 69 73 89 107 179 140 201 230 190 147 155 78 49 70 50 105 134 168 191 210 137 92 111
45 47 35 57 56 52 58 103 116 146 153 27 29 27 47 66 41 41 -1 -29 -8 15 58 60 122 124 159 165 181 176 166 139 114 61 59 72 121 113 229 239 174 156 176 102 92
36 25 41 57 48 50 47 53 107 113 157 43 31 35 57 74 56 93 92 -26 -24 38 55 36 92 145 161 170 171 161 167 98 80 41 96 96 129 209 195 257 302 241 208 179 116
53 47 49 53 74 50 36 58 104 130 154 138 56 45 92 93 84 67 85 19 8 56 39 -10 58 93 136 123 151 144 137 120 119 118 120 92 113 147 161 225 246 162 154 231 204
76 80 80 65 64 53 47 47 65 179 172 93 44 97 118 99 62 54 28 45 75 48 41 26 95 93 118 97 156 182 138 188 150 110 138 100 70 110 114 146 96 91 20 138 232
85 74 44 37 41 39 27 49 62 177 199 114 173 105 114 67 85 61 51 35 34 87 65 19 104 112 100 129 156 157 170 137 96 52 37 79 52 103 60 63 39 32 21 -6 154
47 48 45 38 31 30 23 51 85 135 202 92 139 173 151 60 31 107 79 93 55 95 85 67 80 133 138 169 162 132 71 76 41 63 75 115 25 47 55 100 107 81 46 -25 -26
24 35 45 40 27 22 27 35 53 95 164 87 60 244 133 102 98 62 64 81 70 96 120 93 142 119 164 139 161 122 97 57 87 44 79 125 44 15 104 107 84 83 133 56 -74
46 41 39 28 19 11 18 17 45 34 106 24 77 209 166 92 107 103 65 50 120 146 153 182 147 166 178 181 144 101 100 102 100 116 98 109 80 69 69 37 55 66 72 81 22
39 31 23 18 8 1 18 -2 11 30 101 86 90 294 197 67 104 93 47 102 121 170 149 133 195 153 77 86 97 175 170 141 121 192 113 81 59 46 62 43 -4 8 32 28 55
21 13 12 -13 -1 18 8 23 6 19 165 68 50 97 123 112 127 92 111 201 164 147 173 204 153 78 78 81 117 103 113 69 66 139 83 42 23 22 63 91 86 65 50 51 39
14 3 13 -11 -7 17 17 -11 33 0 101 -14 92 49 148 137 148 96 145 192 109 142 176 173 122 75 55 98 85 85 65 49 54 24 33 14 18 69 59 21 -6 5 49 74 90
-2 15 8 -7 16 27 -40 13 -16 6 42 -185 -66 51 131 124 140 60 96 179 185 118 122 104 106 104 92 70 68 81 92 74 76 62 63 41 25 95 58 35 37 35 58 49 73
7 17 -1 10 -8 21 9 -7 -53 37 -177 -20 48 71 87 141 121 71 85 203 145 132 150 84 91 76 84 58 65 64 75 82 74 59 44 60 68 1 -35 16 36 79 31 46 78
-7 -1 1 33 140 80 7 -14 21 74 242 68 68 219 175 83 173 111 190 193 163 158 118 87 92 70 56 86 87 57 56 63 53 39 89 53 66 -2 -40 -48 -1 73 118 2 42
7 14 22 22 95 46 25 -6 -24 84 162 118 195 144 145 185 193 169 180 208 176 214 140 106 51 67 80 82 92 85 84 90 77 87 58 71 51 71 -10 -50 -27 -23 17 77 149
26 59 67 54 3 5 12 25 -59 54 118 139 193 127 221 179 138 187 154 180 186 144 150 75 51 73 52 73 43 92 56 72 53 54 48 81 18 -13 -49 -26 12 42 88 68 123
32 88 41 16 2 41 32 -29 -38 68 55 177 268 277 277 209 180 155 132 93 117 90 76 62 62 53 46 104 97 60 55 74 76 68 61 53 76 25 24 105 103 144 178 199 190
51 37 36 20 25 29 47 33 96 161 145 225 330 236 238 162 123 123 92 43 59 38 60 71 48 32 49 70 49 55 64 91 93 41 36 42 28 23 36 107 119 162 218 232 217
33 28 55 11 49 42 -15 23 122 159 138 160 174 149 170 130 75 100 37 41 56 14 52 89 70 92 90 36 55 54 63 78 76 81 33 16 11 -6 58 29 48 120 125 113 136
52 -1 56 26 56 125 44 34 137 64 148 235 120 54 111 125 64 95 42 73 8 93 73 83 67 53 49 25 38 76 74 103 92 63 86 100 114 -28 -36 163 78 -88 -116 -39 69
25 44 24 31 72 6 61 120 258 152 145 75 53 72 91 125 69 82 82 87 -9 66 77 82 49 64 67 67 74 68 39 71 114 93 82 128 64 74 136 52 -42 79 77 48 50
40 144 104 80 85 100 104 186 115 231 106 63 38 30 103 110 87 103 133 136 107 77 55 73 35 27 22 56 73 48 60 83 118 135 82 294 146 290 203 79 15 37 102 95 101
0 118 93 49 69 106 128 98 187 137 111 52 -8 -5 41 98 65 109 108 119 105 104 86 60 34 24 -3 -8 16 39 46 24 120 173 186 226 134 220 92 53 94 75 156 130 119
30 44 24 98 64 98 59 61 116 140 116 49 7 70 104 100 70 54 52 74 61 84 99 93 41 52 23 19 16 20 12 53 90 84 158 201 233 138 111 103 95 164 121 65 71
80 74 52 83 79 83 99 15 101 109 140 66 62 89 132 106 112 89 30 12 33 57 79 45 19 34 32 67 34 5 40 113 91 120 165 139 179 74 17 55 135 122 45 35 21

GFSSW_con_3kmhel_054.txt.gz
Helicity
51 69 56 56 52 77 78 76 85 115 170 127 25 18 28 43 57 62 49 43 47 63 110 129 119 118 156 195 210 198 189 158 104 84 67 53 59 80 84 102 142 202 164 104 105
39 36 48 61 48 34 69 89 90 108 152 195 76 27 23 45 48 35 29 6 9 -12 119 121 113 132 203 169 224 231 203 152 113 87 68 54 37 60 174 181 209 219 193 227 199
51 44 54 35 66 61 45 31 99 88 147 157 206 32 38 52 23 29 21 -8 -11 7 29 83 127 151 182 193 234 216 169 143 110 106 69 63 95 91 186 202 178 217 161 179 205
54 68 68 68 60 61 58 48 18 118 111 140 147 125 68 82 71 62 116 -2 -22 33 78 92 134 203 177 200 194 193 164 138 98 70 63 61 69 92 184 172 160 235 293 227 139
99 112 108 87 90 79 67 56 34 38 125 160 123 186 158 118 81 42 103 22 10 73 72 82 120 122 164 151 167 157 177 151 92 87 91 95 82 86 103 179 178 159 179 258 268
124 120 103 65 31 44 54 51 54 32 116 156 156 148 167 87 45 45 69 59 50 92 90 74 76 55 120 125 151 190 103 126 122 105 103 80 68 105 87 113 154 129 160 178 252
105 94 53 37 44 42 30 31 32 45 64 157 153 169 130 69 68 69 64 61 81 61 84 48 75 97 101 131 120 167 177 178 152 107 103 98 -1 59 61 30 73 64 58 64 110
30 42 53 58 50 36 23 15 20 40 63 155 128 66 86 46 52 127 83 98 50 83 53 50 80 148 112 140 158 139 152 134 104 65 74 103 4 32 37 46 36 39 41 26 22
44 50 47 45 32 18 11 4 6 15 49 135 145 116 23 72 100 7 80 87 82 80 92 89 116 171 209 163 189 218 163 124 106 64 91 124 30 -7 57 90 77 70 89 87 61
40 36 28 19 9 -2 6 5 5 -5 22 56 104 17 86 88 95 68 56 58 114 82 135 139 106 131 210 195 184 119 129 120 117 143 89 125 97 69 89 77 87 69 54 68 59
23 17 9 4 7 2 31 21 32 20 11 116 180 204 118 88 136 86 77 75 128 167 178 149 191 160 117 90 97 106 131 130 124 109 83 93 54 33 25 39 32 -7 -6 14 -2
15 9 -14 0 -6 -7 39 41 10 1 33 70 176 87 251 99 114 80 99 154 140 142 173 191 140 128 107 100 89 115 111 108 111 84 58 59 41 18 40 88 98 32 -9 2 17
1 -1 -25 -17 -23 34 6 -26 0 6 11 110 15 110 263 73 142 115 78 135 114 146 147 158 103 118 130 126 112 113 78 61 77 60 0 38 29 73 95 49 53 50 49 32 22
-40 -26 -9 4 37 42 -43 36 27 13 75 45 -122 84 87 124 170 197 87 124 171 143 162 126 127 106 119 105 99 118 67 36 63 43 59 68 29 72 58 54 38 52 51 48 62
-25 -15 7 19 64 61 92 31 13 32 69 -65 -147 71 165 192 151 104 148 158 171 213 165 119 112 124 119 87 91 77 55 32 27 34 32 37 57 47 53 73 90 52 94 55 32
-13 15 20 82 103 87 42 12 40 95 80 73 -134 200 164 148 202 133 195 203 146 181 145 118 117 120 77 108 102 53 78 75 38 16 78 44 83 46 40 68 82 51 97 79 20
27 26 12 31 51 44 -8 13 56 188 154 92 55 207 144 195 226 186 173 182 195 197 163 146 123 110 102 146 148 117 96 92 109 107 66 33 60 15 34 -23 21 38 58 59 103
29 12 42 37 42 -8 24 38 90 171 173 227 150 163 242 151 150 138 167 194 192 161 217 102 87 68 87 81 51 102 65 58 86 77 70 59 38 36 50 5 -5 43 90 165 174
11 43 48 17 -22 14 30 73 86 229 192 161 231 209 242 217 167 142 128 132 111 69 73 103 99 99 46 102 66 64 59 42 32 41 30 53 50 37 71 96 113 144 186 201 177
40 31 60 12 12 27 27 77 129 204 284 212 237 180 203 168 162 133 107 45 75 68 97 80 86 56 69 94 80 47 68 77 93 40 29 44 46 1 33 75 81 145 144 93 51
24 13 81 38 22 42 -56 104 257 350 312 149 138 175 154 166 119 122 56 72 47 51 81 95 63 84 77 44 76 86 81 82 72 60 28 41 10 7 40 51 56 88 -13 -48 -37
46 92 49 81 60 40 125 144 269 215 261 255 135 163 157 153 117 103 43 103 21 47 56 103 47 60 72 55 35 70 44 69 61 48 72 46 -1 -10 -28 25 52 -52 -158 -52 67
65 133 85 91 114 288 255 248 199 184 226 137 79 109 145 86 59 65 48 71 32 76 82 86 42 69 61 39 35 34 54 83 90 75 38 51 9 55 13 -9 -24 28 58 91 84
124 62 59 31 90 262 222 317 143 152 183 81 40 76 141 99 85 81 102 106 47 89 85 74 36 26 13 16 43 68 58 89 115 69 97 143 137 111 104 42 77 87 51 86 145
65 46 32 149 189 232 204 260 132 149 88 106 87 110 110 80 87 101 110 126 142 103 97 53 20 18 12 14 22 20 36 88 116 118 126 136 95 232 108 77 97 14 69 10 -2
37 17 32 68 102 77 97 159 162 110 52 48 21 25 62 69 65 52 85 93 54 87 88 70 45 39 26 14 2 8 1 19 108 89 132 205 237 248 112 39 15 28 5 -1 0
56 56 51 50 101 52 100 126 130 97 154 87 11 50 99 111 58 54 58 52 30 115 107 70 51 33 14 35 19 10 34 84 38 48 134 135 178 67 20 -1 101 30 29 31 2

GFSSW_con_3kmhel_057.txt.gz
Helicity
67 52 46 40 59 58 72 54 109 102 127 152 204 257 27 33 51 67 43 67 47 21 115 124 125 154 188 223 231 231 222 189 162 118 88 58 103 90 62 130 87 84 88 91 211
44 35 44 36 53 56 69 70 47 87 106 177 166 210 179 44 47 33 54 21 24 47 123 135 136 161 205 199 250 265 222 178 143 87 26 50 47 67 114 176 155 153 139 181 281
59 63 66 73 67 67 62 69 56 32 101 166 154 219 272 102 40 22 49 11 12 25 39 115 140 174 189 212 239 229 170 209 132 100 64 42 90 45 92 156 138 167 218 265 236
36 90 99 118 115 98 91 78 72 63 44 118 163 153 201 120 54 40 53 60 -11 36 38 115 183 192 198 208 212 188 154 174 92 73 57 29 56 62 84 111 115 191 192 216 202
62 92 99 101 94 70 35 44 66 72 61 88 149 153 166 170 104 3 64 86 34 60 31 105 173 196 174 152 195 159 198 139 90 81 57 32 52 62 60 91 134 180 215 235 249
96 79 55 33 43 46 25 24 26 38 65 65 121 149 141 117 40 46 61 36 80 73 93 112 121 138 123 138 133 140 82 96 119 76 69 39 46 77 55 51 141 122 190 190 216
56 27 44 55 55 40 38 24 15 29 27 61 103 174 99 123 56 100 64 54 55 87 102 102 82 133 141 145 113 163 117 144 106 85 89 49 23 73 77 61 60 94 93 158 143
73 57 37 43 39 28 23 10 7 9 10 40 74 183 86 46 62 107 150 87 71 82 78 73 104 88 122 143 177 163 158 150 138 103 109 89 15 106 70 85 60 52 20 53 105
21 20 27 29 15 7 5 -7 -17 -1 5 22 77 148 133 132 77 44 104 104 83 84 71 78 72 120 125 157 194 197 155 151 149 80 107 126 13 -27 24 80 96 75 40 37 32
6 17 13 5 -12 -12 -8 12 45 5 23 31 33 185 175 109 81 62 49 125 109 98 109 101 134 134 183 181 176 188 142 134 131 130 122 122 81 57 67 75 78 89 81 34 5
7 5 -3 -13 -24 -15 27 37 55 49 24 12 38 136 166 136 111 77 81 94 138 130 121 94 143 105 158 194 183 125 137 146 123 107 101 53 43 61 42 51 41 30 26 22 11
-14 -26 -34 -36 -21 -10 69 83 88 32 -8 9 47 155 65 214 100 60 95 132 136 145 128 96 18 89 92 70 150 136 123 117 104 81 75 75 27 30 16 42 53 56 59 56 57
-61 -47 -18 -10 -1 76 84 61 48 40 -18 17 30 75 5 175 71 67 111 140 132 170 141 118 110 110 73 68 51 67 62 60 60 91 50 52 5 72 63 57 65 36 40 33 44
-13 -3 -6 17 85 113 52 42 34 50 -4 3 74 -29 -64 172 81 146 98 132 124 149 128 109 75 133 130 121 105 84 61 53 72 70 58 75 16 66 80 86 59 60 82 103 106
14 8 29 21 106 128 137 73 41 -2 80 35 95 -28 36 105 103 145 129 131 138 167 150 106 131 91 122 97 100 74 74 59 49 32 38 59 44 62 93 121 110 105 135 140 121
23 33 17 34 52 56 28 -1 9 15 162 118 51 -27 233 128 191 173 162 153 137 215 150 106 152 142 98 127 96 44 88 66 43 44 82 54 88 80 84 128 168 217 163 196 230
54 53 54 33 6 24 -17 8 73 192 192 30 -85 108 193 117 194 166 205 143 177 194 197 171 138 133 106 168 164 114 83 88 116 132 78 43 76 37 141 138 103 78 96 147 181
45 25 42 18 9 19 7 53 146 94 105 124 11 213 210 160 155 179 232 221 146 102 238 111 102 92 97 94 59 121 75 68 100 91 87 35 66 56 106 63 35 64 104 139 124
25 87 73 52 65 13 22 173 50 127 281 203 121 184 257 203 202 146 175 189 129 107 73 100 114 119 73 91 83 69 80 57 16 48 62 42 56 30 28 63 121 155 137 117 97
57 42 37 41 -12 33 122 252 222 253 336 327 254 178 191 199 189 175 120 80 98 118 86 72 100 75 98 99 111 58 44 75 92 25 44 55 51 40 56 90 88 128 94 22 -52
89 88 78 37 29 44 293 394 397 265 364 235 198 182 176 153 112 152 104 81 74 81 98 85 78 69 77 50 67 105 87 94 75 66 44 67 36 25 15 67 61 44 -37 -80 -52
56 -9 76 69 202 271 332 328 336 297 277 192 140 184 133 123 99 103 67 59 60 66 73 74 48 78 56 61 43 65 48 67 51 40 66 48 29 32 18 -61 -42 -9 -25 35 42
29 88 97 104 165 184 221 216 237 162 151 99 76 85 101 76 75 70 57 61 56 63 39 46 43 65 61 35 52 37 56 75 87 67 40 47 35 49 16 -30 9 8 16 28 28
41 90 111 122 224 254 174 163 124 138 152 64 47 74 79 76 87 62 63 55 31 55 24 30 31 16 11 19 26 55 57 94 102 68 71 83 54 13 6 24 59 44 50 19 27
-23 29 69 94 148 171 147 134 120 94 93 85 88 105 81 54 78 68 89 83 74 88 116 41 6 18 26 18 18 10 16 46 115 124 54 80 80 146 82 70 80 72 49 19 -18
28 25 16 101 122 112 118 148 124 124 74 146 106 83 60 45 48 50 72 104 59 87 92 66 25 23 26 25 8 7 -9 13 44 39 100 137 216 253 102 38 56 55 16 -0 -9
28 15 -8 82 77 88 125 104 111 71 80 75 100 77 133 130 72 96 102 60 40 86 77 66 47 40 32 53 31 24 15 61 102 106 141 92 218 62 34 22 34 9 24 9 9

GFSSW_con_3kmhel_060.txt.gz
Helicity
45 44 40 45 39 22 31 45 45 29 85 95 113 172 176 252 82 71 36 64 60 13 158 122 109 141 183 219 226 231 239 184 158 107 85 49 53 115 112 112 113 69 127 109 84
49 35 37 67 73 73 77 69 52 52 47 85 148 196 207 221 189 74 69 41 23 49 87 141 130 164 205 191 235 265 214 160 170 147 85 116 85 118 158 166 127 137 153 138 145
43 45 41 72 88 100 115 96 77 63 57 29 130 205 204 225 83 9 74 25 25 34 88 118 125 172 177 202 234 230 193 202 183 140 121 83 96 81 97 144 113 152 168 161 187
84 81 93 99 97 71 67 44 39 40 60 63 65 143 192 197 113 33 51 75 1 71 74 116 171 184 184 198 215 193 151 183 158 140 103 67 62 80 62 77 102 134 161 195 157
103 102 102 64 41 51 32 39 43 25 25 31 47 127 112 164 139 28 51 167 67 63 68 112 203 208 163 151 176 154 184 122 113 123 58 43 28 21 38 53 92 157 185 215 210
86 39 65 40 35 31 36 36 30 23 42 54 31 74 188 159 118 12 -58 39 79 62 60 107 158 214 153 126 158 90 96 126 108 77 38 10 10 26 20 47 73 103 154 190 205
28 57 25 20 19 19 19 25 15 12 19 20 29 46 158 151 140 126 80 -4 67 53 89 113 159 154 111 146 100 184 97 103 83 62 62 -13 9 63 52 74 80 95 111 162 166
46 15 6 17 20 10 -3 -1 -0 -9 2 21 29 56 105 89 90 105 186 83 36 51 73 101 109 118 126 136 178 127 128 109 99 88 87 58 20 -31 30 57 72 70 52 101 133
13 10 19 14 5 -6 -19 -6 3 1 -3 -2 38 41 60 108 78 51 137 145 60 75 53 70 124 112 143 162 178 153 141 160 172 67 112 113 9 -4 56 51 71 88 88 61 77
15 12 4 -0 -0 -5 -19 -16 16 21 54 64 71 55 81 158 -9 99 66 130 132 86 100 95 97 180 95 150 183 206 169 142 103 109 115 117 74 34 45 44 32 83 95 73 38
2 -12 -24 -10 -6 -7 23 46 82 83 57 39 9 94 128 101 27 62 79 120 123 153 118 61 92 133 68 114 130 150 153 141 132 123 102 57 10 13 48 49 49 60 46 37 38
5 10 9 16 9 18 106 100 77 81 -14 -5 -15 24 103 216 147 91 85 135 129 142 111 129 67 116 69 148 176 175 161 142 157 130 79 72 9 20 44 43 56 77 87 63 49
18 16 3 -5 17 92 149 73 78 86 -16 -9 -10 56 -29 148 121 81 122 167 145 106 78 20 26 91 148 397 288 247 145 111 105 107 55 36 -21 46 52 51 67 61 51 63 22
18 22 14 -5 73 163 172 103 94 55 -32 -28 34 24 18 219 90 103 126 168 155 82 119 97 7 -163 37 92 43 122 83 61 60 85 94 105 30 91 77 129 119 179 220 191 160
54 58 36 4 66 118 62 76 -1 -33 86 22 54 17 51 216 74 102 127 145 127 123 181 162 77 39 25 33 23 39 53 66 63 60 64 92 62 93 118 158 214 265 210 175 136
51 43 44 47 34 32 63 21 -19 9 146 99 49 -80 89 180 106 216 134 121 132 160 194 169 129 111 89 126 79 57 129 103 73 48 97 80 92 95 116 184 200 167 204 224 221
47 43 69 71 86 27 23 32 51 176 133 74 -102 120 220 124 156 155 134 152 135 101 153 165 181 160 116 163 164 92 93 111 133 152 96 87 86 63 119 91 97 98 171 179 151
28 68 66 50 44 38 63 57 176 214 101 21 -40 78 166 165 262 265 162 149 195 132 214 142 132 116 126 103 61 120 67 76 124 114 102 73 93 80 97 72 53 72 82 63 84
34 67 38 11 15 39 106 182 228 181 144 -88 97 207 152 206 163 175 139 135 120 175 84 93 125 110 85 78 83 80 113 83 62 95 103 70 75 49 46 71 86 124 96 64 40
75 70 96 85 81 161 298 393 385 276 101 36 159 119 152 139 162 224 125 130 112 134 122 86 89 113 104 102 139 83 54 90 107 82 99 79 76 53 77 125 134 114 80 36 3
92 86 140 132 174 196 266 378 249 196 167 153 121 170 139 131 124 209 150 141 115 93 73 52 55 81 86 80 68 111 93 95 79 65 63 85 65 31 60 25 59 12 -17 -69 -50
77 45 112 130 115 143 245 259 240 203 218 114 130 175 130 145 93 88 102 59 97 67 82 74 50 67 68 52 40 54 37 61 58 48 55 39 56 73 112 82 -17 -54 -13 -3 -4
44 75 95 147 81 165 197 173 170 114 92 88 57 59 118 110 63 72 75 57 72 78 60 48 63 65 66 25 42 38 55 80 75 69 29 44 39 35 46 44 -64 -58 9 13 -10
34 35 48 51 100 160 130 162 85 105 108 90 63 76 56 63 76 70 64 53 61 90 58 48 39 29 39 27 26 47 69 78 75 59 49 52 52 19 9 -7 6 45 20 12 -5
-7 17 73 57 115 175 149 100 104 113 105 92 80 63 35 47 70 84 80 77 83 56 66 31 16 17 29 16 22 22 27 42 66 94 35 64 42 116 74 39 60 43 39 10 1
8 -16 32 54 60 69 74 115 85 129 69 121 92 62 37 40 77 56 81 66 30 80 99 60 11 3 30 30 17 26 4 1 4 13 75 93 113 76 47 21 26 35 32 19 -16
26 8 23 46 49 25 57 66 65 41 94 63 70 66 118 89 63 73 78 52 46 64 126 66 15 18 37 35 20 27 13 26 87 78 77 72 66 47 65 41 22 28 30 9 20

GFSSW_con_3kmhel_063.txt.gz
Helicity
53 29 41 45 50 70 102 102 92 53 49 33 100 107 160 147 191 134 62 78 71 17 117 129 114 163 195 240 236 237 236 158 118 98 82 59 69 82 82 96 100 87 132 131 71
56 67 69 53 70 92 96 101 88 82 47 40 44 102 115 172 149 70 61 24 37 51 66 152 138 170 214 222 253 281 215 148 157 128 92 67 55 82 115 137 129 131 136 85 38
74 83 90 90 92 84 72 74 71 58 50 58 79 70 125 158 84 -15 -16 28 41 48 85 89 130 151 171 220 241 243 187 196 159 139 132 100 110 117 107 116 120 152 153 102 104
71 78 86 92 103 80 49 25 43 39 41 31 43 64 86 144 148 93 83 60 21 63 88 111 149 171 173 169 223 200 179 162 191 144 152 121 104 123 102 87 89 118 145 108 107
80 77 51 33 58 26 14 11 17 29 26 36 33 43 53 125 154 89 177 214 207 90 73 85 172 157 141 143 182 155 161 150 164 152 112 104 78 74 77 73 89 95 142 148 125
74 36 19 45 18 12 14 10 5 10 21 36 31 52 41 145 146 -57 -28 60 213 88 69 65 127 190 166 144 132 98 107 133 112 90 87 63 54 44 62 62 63 90 111 144 145
41 30 35 27 20 22 17 9 1 -3 1 16 25 50 52 117 114 58 31 11 228 104 55 43 138 154 179 167 124 148 82 110 84 95 84 41 23 25 51 69 56 60 98 114 138
27 24 25 30 21 16 10 -5 -10 -13 -6 2 15 62 46 21 57 130 157 9 62 80 65 38 122 186 170 152 145 133 154 92 98 90 110 73 24 -2 63 32 67 75 94 97 106
27 17 33 17 7 1 -0 -13 -8 -11 3 17 53 98 26 -2 92 59 118 51 80 52 71 40 124 165 184 175 138 136 126 118 181 70 105 82 6 -9 99 39 87 100 94 93 106
25 12 8 10 -9 3 3 -3 3 55 78 118 152 63 11 27 76 -90 108 137 129 78 95 86 84 109 139 159 164 168 179 130 108 104 109 95 73 104 109 59 66 81 76 74 74
47 34 23 20 2 7 45 54 88 54 87 69 88 45 25 43 119 -25 60 134 162 122 164 118 106 51 96 125 126 95 134 128 107 119 115 81 52 52 57 45 46 57 70 77 73
9 18 43 32 -12 -15 65 105 48 60 -6 45 6 4 23 32 191 96 47 156 140 140 161 175 34 53 58 112 115 82 153 153 168 150 106 93 66 49 56 67 63 65 79 74 65
22 48 43 48 123 38 256 68 128 53 64 -7 -14 19 -1 5 157 54 102 159 136 136 39 41 96 112 104 79 96 133 126 164 141 138 104 65 12 51 69 89 117 125 100 100 94
17 10 11 25 83 39 52 156 88 37 10 -2 13 32 14 -49 71 32 93 169 136 129 94 25 49 -7 167 239 172 206 167 128 116 127 123 109 96 113 91 158 206 241 222 223 219
24 7 29 82 87 54 65 45 20 -4 61 28 69 63 37 87 118 110 116 154 119 133 89 93 -123 -55 2 128 191 173 198 126 136 140 129 125 73 145 140 193 200 288 289 269 237
-33 -41 -36 64 57 29 62 41 26 67 176 95 57 63 50 60 168 121 132 122 189 174 122 98 102 66 22 -7 -20 15 131 196 131 132 145 145 123 164 149 155 159 206 249 244 223
-22 22 35 42 57 26 36 61 149 173 140 120 71 50 33 219 269 145 170 135 114 127 234 178 146 184 51 132 75 69 111 155 147 191 128 106 104 112 120 133 96 146 196 189 152
-0 88 92 99 90 62 118 126 65 76 57 12 -23 167 212 181 220 174 152 154 153 109 173 173 143 112 92 96 55 89 64 111 124 112 100 89 106 99 109 46 65 126 114 86 82
43 97 117 112 158 145 185 157 138 53 46 19 166 304 159 199 208 156 181 135 145 84 74 121 150 117 122 84 95 87 72 56 82 104 100 83 91 82 89 115 116 85 51 56 43
105 83 141 157 205 147 138 87 117 47 108 206 240 166 139 183 162 119 118 105 168 144 106 90 131 93 63 90 129 74 69 80 83 97 122 104 98 73 67 126 112 99 67 38 16
108 57 153 181 182 164 138 111 136 64 75 95 112 131 137 161 147 119 114 75 89 120 88 45 76 100 78 73 49 86 91 91 90 88 103 149 106 49 41 75 123 104 32 -11 -2
59 46 111 77 116 181 141 103 97 117 82 102 94 98 70 107 161 78 70 76 74 64 62 48 32 75 69 54 51 63 72 79 87 80 61 79 99 46 45 76 125 67 -10 -20 -21
52 54 77 61 47 147 154 126 120 62 60 52 51 48 92 80 50 79 69 67 89 80 39 35 50 60 59 41 66 54 63 70 52 45 36 70 59 49 66 47 65 -75 -52 -21 -12
31 39 24 33 14 67 111 103 58 92 78 58 46 58 62 79 54 57 57 49 108 88 78 68 52 43 43 45 38 52 62 75 69 44 39 48 90 67 98 35 16 17 -14 -1 -16
22 14 47 30 71 81 33 53 72 76 80 66 48 63 45 50 47 57 69 71 97 110 75 48 30 41 36 34 48 46 40 56 70 65 42 68 45 81 55 46 14 10 39 7 19
17 -36 12 28 49 37 10 47 80 87 58 101 60 68 51 52 65 59 51 52 41 76 57 62 23 29 44 33 31 48 27 20 35 40 65 49 93 84 44 36 38 41 19 24 20
14 17 -1 10 -4 -8 9 23 48 43 64 58 57 42 72 69 52 52 62 48 26 47 116 64 19 17 44 35 26 42 32 46 48 42 38 52 48 36 39 31 17 15 20 25 8

GFSSW_con_3kmhel_066.txt.gz
Helicity
52 52 59 61 55 53 48 58 68 81 83 56 35 59 90 110 114 125 80 96 52 55 111 124 116 161 143 182 203 249 184 112 65 49 41 92 33 48 90 70 63 65 103 118 88
51 62 77 81 76 77 69 75 80 83 77 75 87 75 84 109 166 96 129 35 11 51 77 139 122 139 164 180 192 204 164 96 85 73 78 25 22 41 72 69 60 66 88 90 65
52 72 63 79 76 72 72 72 61 66 64 47 51 50 84 80 146 36 72 -1 11 36 65 83 120 133 141 150 188 192 153 137 139 120 100 48 43 75 74 69 64 62 106 102 86
49 69 72 58 53 46 49 70 55 47 53 36 49 44 48 78 193 133 188 30 17 38 48 82 111 170 169 156 121 190 143 283 135 133 145 99 93 89 91 118 110 132 159 137 94
83 55 61 46 23 43 31 29 27 25 20 25 28 35 63 109 162 56 297 375 191 53 52 77 101 96 146 131 101 127 121 115 159 157 170 126 90 82 88 87 115 147 143 132 139
54 44 38 36 31 38 28 24 13 15 20 30 25 59 69 72 28 47 35 199 274 97 72 62 119 89 121 138 102 78 129 127 135 128 133 112 77 88 70 83 82 93 111 114 111
42 41 30 30 40 31 23 12 6 11 4 -3 1 43 52 13 29 59 -26 36 195 296 97 55 121 127 142 128 58 140 73 85 124 115 101 86 65 37 74 71 76 70 83 96 86
37 34 27 6 26 25 12 1 -1 5 -1 -4 18 57 80 53 7 72 15 82 87 235 92 51 95 70 150 151 51 74 120 57 46 70 126 83 51 48 45 28 61 67 73 89 85
43 38 25 14 1 -2 -17 7 12 1 -1 -7 56 85 49 41 26 51 -6 -76 100 174 78 67 84 148 152 75 95 76 62 52 45 62 88 68 88 54 121 56 101 70 63 71 73
9 9 20 26 23 -1 -22 17 12 40 76 83 122 80 48 25 30 72 26 5 121 96 115 101 121 160 174 149 204 90 87 74 67 123 64 63 49 38 55 119 90 100 96 78 81
3 22 15 25 39 69 25 19 49 62 42 53 53 52 39 47 5 121 72 17 93 70 149 105 115 90 159 70 119 87 48 46 79 83 73 64 49 40 89 93 78 72 75 74 69
17 4 0 -7 23 84 8 63 107 97 -1 14 7 22 11 12 50 69 118 99 101 104 75 151 46 -1 113 73 119 54 34 31 114 87 114 56 42 25 31 51 67 81 84 85 93
-9 -6 -12 -7 60 71 37 122 158 99 10 1 -10 -6 17 -5 20 96 88 153 56 77 51 110 79 83 98 54 103 60 59 65 116 107 119 97 53 35 68 91 78 85 92 96 102
-3 25 8 5 58 36 30 39 4 3 27 -7 -3 8 0 2 13 198 24 277 68 74 220 99 124 108 74 88 96 128 118 93 95 105 152 123 105 86 94 108 109 124 148 152 148
3 44 48 83 60 57 46 35 2 20 40 29 39 41 61 119 109 32 111 307 -33 176 181 90 52 139 117 114 138 95 118 137 134 141 147 127 163 77 79 95 136 177 194 196 185
10 38 74 123 91 39 59 39 50 146 79 103 117 117 111 137 73 58 163 218 180 89 136 69 38 50 74 318 270 132 258 217 166 159 138 125 187 83 108 111 133 193 226 220 197
18 71 127 107 104 84 98 124 290 146 151 74 31 51 129 88 156 106 201 132 107 91 72 97 162 83 143 166 177 235 250 244 206 169 177 155 152 183 129 153 142 183 199 204 185
24 104 144 124 117 135 134 189 118 163 60 -1 -3 131 199 121 187 143 151 156 135 44 105 82 64 77 110 98 83 91 277 225 181 158 180 150 168 150 116 126 142 159 151 135 130
42 91 141 161 158 139 121 50 3 171 105 77 174 378 237 97 212 170 157 142 120 146 96 87 107 70 77 95 80 74 154 151 158 168 150 128 103 104 130 127 125 123 105 94 79
66 56 126 131 134 145 71 45 50 109 251 180 232 161 180 73 122 103 110 126 143 74 48 47 68 76 40 34 82 73 54 88 128 125 123 79 93 77 106 139 115 100 82 56 51
62 42 107 89 66 59 64 46 108 145 162 168 87 66 77 83 102 112 94 87 107 72 40 58 79 69 73 69 45 72 74 77 89 107 102 101 73 57 66 117 147 133 85 52 45
42 51 39 63 10 61 76 72 121 122 106 105 65 77 54 67 66 63 65 74 90 84 65 58 57 69 65 70 72 65 59 64 107 71 94 111 79 54 83 97 132 122 72 19 7
60 45 68 42 17 31 30 67 103 61 59 50 38 55 71 87 39 63 61 56 66 69 28 16 36 73 59 39 46 39 30 49 58 74 68 111 103 70 33 30 32 13 -3 -26 -11
51 57 35 35 19 17 39 45 46 59 56 48 40 54 52 58 54 45 51 61 93 90 85 50 38 51 57 62 46 50 36 44 63 56 55 82 86 46 47 49 43 12 -27 -34 -5
20 21 3 7 23 46 40 38 19 28 41 45 22 47 31 10 16 38 39 36 71 104 77 62 42 38 39 46 48 51 38 22 43 58 53 79 71 72 64 46 32 15 -6 0 1
13 13 -28 -16 17 -5 16 58 56 21 34 45 24 46 43 33 45 34 37 41 37 50 66 68 25 35 28 23 26 42 29 19 17 23 32 49 100 72 59 34 15 27 27 9 22
14 11 5 -8 -28 -37 -20 -2 33 38 28 47 27 19 41 49 53 86 62 34 28 39 63 54 31 35 30 40 41 47 36 34 37 50 58 47 81 95 65 36 31 20 18 19 24

GFSSW_con_3kmhel_069.txt.gz
Helicity
30 32 45 50 58 72 73 78 92 91 41 52 82 76 87 99 114 108 95 78 27 44 138 138 81 121 116 130 133 155 184 122 81 61 61 48 48 57 80 73 61 48 110 94 76
22 42 53 48 59 68 73 70 65 76 89 67 75 67 86 85 113 110 136 68 15 30 85 137 89 94 156 98 172 203 165 98 95 58 61 101 145 47 80 81 67 65 94 92 45
24 47 44 36 37 25 38 58 66 71 75 73 74 68 46 81 128 76 40 29 18 18 51 74 100 93 140 117 112 158 150 113 105 134 142 105 98 61 45 85 66 55 51 65 84
16 17 27 20 33 27 28 37 27 28 25 36 59 50 67 58 145 150 344 110 18 35 37 76 108 115 115 157 75 146 95 202 80 97 224 109 51 52 69 68 62 88 168 111 89
6 31 34 34 23 25 28 35 32 24 23 38 32 42 55 70 73 24 177 248 317 17 41 55 93 90 125 106 124 79 156 168 262 88 134 88 63 66 54 96 167 159 153 106 123
32 23 33 17 24 21 29 19 14 15 16 31 16 35 20 -4 24 50 16 71 333 224 58 64 79 64 105 108 111 97 165 114 165 111 150 96 81 115 105 109 72 80 85 94 113
38 28 17 24 25 17 22 19 3 -9 11 23 21 19 -9 -43 37 41 -36 5 201 337 268 49 61 86 131 122 39 157 78 177 119 125 119 131 92 61 97 86 68 54 66 85 106
34 28 -0 11 24 27 34 9 -6 15 15 5 19 22 25 16 12 -2 60 -36 111 271 248 170 52 152 88 116 105 82 132 105 87 118 103 110 89 14 13 65 72 65 68 73 75
12 11 10 11 26 32 33 16 3 11 16 6 29 37 17 69 8 45 42 -37 26 254 346 108 80 162 80 79 133 101 99 87 36 19 93 80 76 54 71 53 56 59 55 73 75
6 14 16 -7 8 18 29 8 41 19 -0 38 66 66 31 33 61 76 81 -44 4 317 307 92 113 244 155 203 209 92 82 44 71 37 41 50 102 114 140 106 95 95 87 86 77
-2 13 22 -1 7 31 100 54 38 35 47 40 50 21 77 32 48 26 4 -148 -62 153 105 186 293 168 79 56 71 98 44 110 15 107 76 60 57 67 56 64 85 99 68 72 92
13 15 27 25 57 71 70 28 89 98 42 19 8 -1 12 46 42 21 -48 -136 53 124 108 132 68 183 110 54 77 170 115 75 96 114 92 86 57 56 62 50 63 79 96 89 88
21 12 20 43 74 36 38 48 76 36 21 13 22 26 11 -17 27 22 -16 -97 178 67 72 133 149 103 117 95 91 144 148 106 97 85 100 195 95 79 41 49 79 94 78 96 122
9 19 21 13 81 44 53 34 9 -15 20 7 2 -12 -24 -4 5 -18 55 -25 151 65 119 76 117 81 28 90 48 130 163 76 90 82 128 59 146 -21 36 56 64 57 62 82 72
12 22 37 64 100 118 74 50 10 26 17 10 10 27 -2 47 100 116 63 20 109 112 180 147 69 63 22 72 64 157 171 96 59 98 120 62 194 45 64 61 78 99 110 120 129
22 12 54 118 108 64 74 55 67 145 57 103 94 35 46 69 139 54 57 72 73 107 134 120 175 163 93 162 76 154 152 164 153 152 164 68 135 73 33 75 97 117 118 148 155
35 8 96 100 134 98 59 91 188 214 203 204 149 17 58 57 110 28 77 54 15 237 298 199 179 149 117 254 226 171 151 203 187 174 175 150 139 208 133 122 92 97 144 178 161
30 16 131 121 129 108 114 83 38 223 129 93 134 156 -45 71 65 205 85 82 28 189 229 123 139 113 120 174 215 302 176 218 209 168 128 113 155 142 113 120 189 167 164 157 155
65 80 95 147 108 70 92 100 124 159 179 187 142 65 93 37 177 211 137 116 101 59 52 84 122 52 83 185 212 294 213 151 227 266 173 132 158 97 99 129 117 138 136 136 125
65 66 104 77 68 58 59 56 117 118 219 299 145 67 69 64 121 119 99 122 76 57 66 24 57 83 61 83 109 211 166 232 249 124 130 80 91 103 104 126 137 126 111 104 87
68 70 82 44 67 49 56 83 125 124 114 142 59 21 29 59 64 92 97 109 102 80 64 65 30 37 27 48 52 91 131 173 200 228 198 79 114 99 45 98 128 127 117 95 77
49 49 10 57 30 12 51 78 91 80 69 105 121 47 42 54 61 54 42 86 84 74 54 61 43 48 49 49 74 77 93 66 89 59 94 123 56 39 64 139 177 149 104 65 58
40 48 39 47 24 17 25 45 56 39 44 32 39 29 44 31 23 39 40 60 74 66 31 17 26 47 55 35 29 35 40 57 63 66 72 107 35 31 84 76 87 63 46 21 9
27 26 34 19 14 6 27 38 32 24 23 28 32 48 43 44 32 24 26 27 49 51 67 47 31 65 73 68 47 49 31 40 66 79 66 92 36 36 39 27 48 29 7 -9 -22
16 16 22 26 -12 21 11 28 -6 7 21 21 9 32 29 16 18 37 46 26 40 64 64 56 34 43 67 56 47 43 45 29 60 60 110 136 73 35 40 35 39 35 25 11 3
35 15 6 38 -20 -15 6 33 50 19 26 10 8 31 35 22 42 11 29 31 25 42 51 61 36 35 29 26 31 40 36 25 20 19 25 77 100 89 48 47 55 46 24 6 12
43 17 8 12 6 -6 -13 -17 17 37 29 49 36 20 21 37 37 69 70 49 34 35 38 49 35 26 25 15 24 20 9 13 32 42 25 40 45 74 85 61 45 30 27 32 32

GFSSW_con_3kmhel_072.txt.gz
Helicity
4 20 34 50 51 47 29 39 36 33 54 77 50 35 90 96 81 74 81 54 31 44 90 159 62 84 139 166 138 137 219 96 85 74 52 48 45 113 102 105 29 71 76 79 82
38 30 25 22 40 37 32 35 27 30 35 60 74 47 47 68 67 52 68 80 31 44 53 104 79 87 155 149 198 234 178 96 94 118 94 47 82 189 130 137 82 66 91 49 65
25 30 33 37 35 30 27 22 24 29 24 26 45 65 76 63 78 25 38 15 20 17 28 44 96 69 130 155 168 169 130 60 124 109 65 71 48 67 99 99 110 92 94 75 30
31 39 34 36 47 35 21 21 22 21 23 25 26 15 55 62 115 113 226 256 14 39 42 74 111 86 131 154 122 132 65 144 138 30 81 164 167 211 154 81 70 84 85 155 100
33 30 41 48 38 24 25 19 19 16 30 40 45 46 50 48 54 20 192 137 271 104 66 80 109 124 99 106 119 89 133 93 168 182 153 161 205 203 180 110 82 132 226 210 54
36 37 40 37 29 17 26 14 14 12 21 19 40 45 40 27 35 52 36 56 135 251 84 93 138 73 93 116 96 131 87 208 130 144 192 225 184 157 92 133 72 84 151 184 147
24 31 37 33 24 18 23 23 14 14 18 5 7 24 15 -10 36 29 48 18 91 172 289 107 59 101 101 91 108 120 137 129 216 203 147 178 162 86 96 134 130 57 71 96 84
16 28 28 35 28 7 11 25 17 -6 0 0 18 22 -5 -3 9 -13 1 80 -52 83 267 215 90 147 92 139 126 131 133 150 110 183 174 173 117 98 69 113 183 111 78 72 69
19 13 21 37 47 24 16 31 27 3 -1 9 40 42 26 28 -10 12 7 51 -20 81 188 210 105 169 172 130 133 154 131 145 130 95 211 139 68 48 63 95 79 78 87 101 68
33 28 38 47 29 3 20 57 80 57 18 14 27 59 18 15 38 48 75 33 0 149 242 223 181 223 167 170 152 132 132 87 116 64 70 104 98 177 141 88 83 92 66 78 79
38 35 47 43 68 20 18 52 20 28 3 40 55 24 44 27 16 35 39 67 38 1 239 122 254 216 106 93 176 100 91 93 46 74 -10 53 72 106 157 130 75 107 152 106 86
39 33 30 33 47 29 49 38 46 13 17 10 15 6 14 56 38 76 23 29 -63 3 256 214 126 154 126 106 103 59 76 74 62 133 94 46 70 85 83 104 94 84 117 116 123
49 32 9 17 6 47 64 20 14 16 6 16 15 12 23 17 19 43 32 -3 -30 -96 191 159 85 121 120 134 104 152 92 102 112 131 159 140 122 86 78 93 88 92 94 118 143
47 30 10 0 82 64 84 48 32 5 49 60 13 10 6 6 -33 9 -38 -45 -191 121 131 128 27 77 85 105 126 86 63 120 75 173 127 112 104 81 96 127 102 109 106 63 86
37 21 12 52 82 114 64 48 23 36 120 74 55 27 24 4 1 -50 -53 -2 32 103 33 185 158 240 188 155 150 127 185 157 127 121 118 89 171 135 86 109 167 110 106 170 141
21 11 13 79 104 104 36 25 95 192 129 100 86 74 114 83 49 26 -41 5 106 177 249 313 284 186 141 48 119 165 254 182 78 136 142 107 137 145 146 143 148 163 189 138 113
23 8 62 60 94 108 59 67 83 143 54 200 195 177 151 149 102 40 11 123 96 256 190 212 243 222 193 160 99 122 107 278 277 222 138 94 129 153 111 82 137 197 157 151 131
22 7 97 62 119 70 59 66 15 121 203 191 182 155 49 38 32 89 152 78 92 98 122 149 149 125 114 126 110 148 215 220 166 198 200 276 156 144 211 190 144 151 170 134 151
33 81 56 129 82 70 54 8 68 132 146 58 138 63 109 68 66 36 67 93 102 180 73 105 119 115 98 106 138 177 167 121 225 149 193 161 171 232 217 225 243 190 129 142 152
65 49 103 103 77 65 60 61 14 94 117 119 61 134 147 132 71 68 21 73 46 56 81 102 111 119 80 120 103 128 186 103 92 222 164 96 115 124 111 192 165 149 122 147 140
60 60 59 97 79 49 27 57 -12 109 137 66 71 62 61 109 67 44 22 27 15 47 10 -2 76 75 24 49 70 139 253 207 188 141 176 81 101 73 84 169 128 133 148 146 133
44 47 58 69 19 33 19 53 21 28 91 86 82 22 55 44 79 27 2 29 70 65 25 63 23 73 32 31 40 81 132 194 155 156 160 123 73 69 72 85 164 195 154 135 124
23 35 58 50 37 12 14 36 43 6 3 28 18 22 23 30 20 28 32 41 76 35 13 24 20 40 37 27 35 31 58 141 139 142 154 139 71 88 236 241 134 114 96 103 85
23 17 29 29 23 24 9 39 26 -5 9 14 13 31 19 28 39 35 49 35 56 42 53 55 48 42 55 48 39 40 49 67 99 94 28 52 43 98 149 71 79 40 55 69 42
36 36 32 17 20 6 6 17 32 4 20 2 -9 23 26 19 9 37 30 16 18 25 29 41 32 38 53 37 33 17 47 70 91 73 86 167 55 48 95 60 31 41 48 60 43
41 45 27 29 17 7 13 12 25 44 21 10 18 22 44 44 46 23 22 22 26 33 58 61 41 43 32 42 32 33 32 28 48 42 66 129 166 82 67 73 82 42 70 66 56
-4 16 12 12 24 20 22 6 -3 18 7 29 32 40 22 29 44 64 70 65 61 37 44 57 42 36 35 26 33 48 34 43 64 57 64 78 72 116 110 98 79 86 82 59 75

GFSSW_con_3kmhel_075.txt.gz
Helicity
32 27 21 20 49 49 41 50 48 50 49 65 79 78 81 75 78 59 36 38 62 62 169 155 82 101 145 189 202 171 250 125 107 93 96 77 153 60 30 57 137 132 79 92 113
27 29 31 43 41 50 53 44 41 34 41 40 42 60 72 61 68 35 34 6 36 76 64 95 98 118 169 144 195 208 175 115 83 80 60 48 41 25 95 164 133 151 164 117 87
27 24 34 49 56 73 74 51 35 30 24 23 27 36 42 88 67 -9 -26 -0 17 49 58 57 68 118 138 170 191 199 111 79 86 83 68 -19 -45 37 185 174 107 40 69 80 86
17 34 43 44 53 56 60 44 33 23 26 23 32 44 60 59 71 84 339 376 115 36 76 46 59 123 148 164 171 174 82 138 72 147 91 61 -30 -32 128 132 17 62 69 110 50
16 31 45 49 47 41 34 34 24 13 19 23 26 61 59 68 19 6 310 317 319 48 76 78 66 111 152 125 190 96 159 76 106 216 186 179 115 122 59 90 91 119 135 115 61
20 32 40 51 35 24 31 30 29 21 24 18 12 60 62 -2 33 143 15 65 261 206 101 70 118 82 106 124 99 101 91 106 151 73 102 128 143 179 112 135 153 96 185 193 119
26 34 49 48 33 32 21 14 27 31 15 16 7 42 59 13 20 104 41 -2 40 177 206 124 65 148 133 93 116 132 123 112 162 129 151 102 149 123 154 167 202 234 78 124 160
28 46 56 42 37 38 23 1 11 31 9 8 9 47 15 3 38 6 30 67 -35 91 95 198 77 136 124 124 126 126 149 167 112 163 193 129 63 114 141 182 174 212 229 89 86
29 44 36 37 63 51 17 -4 16 20 34 26 39 31 30 2 12 19 14 37 70 43 97 182 118 148 89 141 194 164 125 133 178 124 200 165 89 102 76 97 105 160 179 155 126
39 41 31 35 81 35 30 36 33 30 28 46 34 29 24 38 25 38 44 79 62 59 160 146 148 102 155 149 125 126 166 173 159 116 163 162 102 192 163 137 117 107 94 80 63
45 33 21 30 59 49 57 87 38 13 4 12 29 32 81 72 20 39 44 48 36 22 149 135 132 139 65 104 156 171 179 160 82 142 139 103 105 104 127 144 116 123 87 87 55
35 23 16 7 40 62 52 80 50 30 11 23 3 10 23 30 35 79 64 24 28 -32 189 198 64 128 133 153 146 113 114 92 131 37 90 100 60 69 90 134 125 66 91 84 139
30 19 -3 1 37 76 44 32 22 15 38 29 18 -10 35 18 16 43 60 35 26 -30 93 152 126 6 168 131 105 97 118 114 134 165 193 122 113 106 98 88 127 110 96 101 123
21 11 9 -4 110 82 91 33 -13 -4 59 85 28 4 -0 31 26 45 32 20 29 -128 104 126 162 39 107 95 101 91 77 74 143 131 145 140 82 110 101 68 90 115 128 114 109
-7 -6 22 33 80 157 75 69 24 23 230 80 91 10 24 4 2 -5 39 33 42 -36 91 140 76 61 164 129 142 102 117 131 66 51 123 159 112 84 81 104 77 135 138 112 100
-32 -7 23 74 83 151 88 50 116 161 126 153 172 107 53 -0 -8 11 13 34 23 91 92 164 184 163 140 190 197 133 179 170 91 130 130 130 161 57 122 67 162 219 183 150 158
-26 -5 43 51 109 154 90 97 77 72 77 93 164 173 103 34 -56 -73 -32 12 69 47 43 215 295 243 206 241 177 128 172 128 113 124 90 135 147 48 122 108 200 251 225 201 148
-7 -12 42 87 115 110 65 41 55 60 78 99 106 64 75 31 91 84 152 134 132 139 349 265 328 287 206 176 168 123 113 187 110 125 178 203 120 79 73 113 186 227 239 198 155
-6 48 53 128 121 95 53 25 45 93 111 132 161 151 35 87 114 147 55 185 109 81 68 161 197 157 160 144 108 115 86 101 265 229 170 209 223 139 165 261 239 208 186 174 173
72 49 42 102 108 50 25 17 56 109 103 102 114 155 27 47 75 57 79 129 173 142 60 67 144 78 70 95 106 119 124 99 100 116 140 119 190 103 140 184 231 224 164 164 160
63 55 43 82 57 46 29 21 52 114 190 59 88 103 67 47 38 42 -1 54 101 119 53 37 86 116 88 55 62 148 142 134 119 122 234 119 67 85 99 209 284 196 163 152 144
33 36 67 72 38 7 16 14 41 66 71 68 67 94 78 55 23 -28 4 -12 62 54 50 120 114 119 71 40 27 66 100 165 137 105 82 89 67 79 103 222 233 143 146 157 140
48 31 30 57 34 39 47 47 49 4 -15 25 5 17 58 38 21 4 17 71 52 28 27 25 51 106 58 41 42 37 57 104 170 170 131 87 85 67 119 192 147 165 157 143 134
62 72 23 -9 11 31 27 20 29 29 28 -9 -5 14 9 12 26 18 22 56 67 31 57 35 46 24 10 26 56 53 58 80 101 111 125 125 132 110 114 147 117 90 82 94 100
72 61 69 47 22 20 27 12 25 33 10 14 -12 42 5 8 12 28 28 15 28 34 30 23 17 32 39 54 48 38 51 75 85 93 98 107 116 49 144 96 41 39 74 93 77
45 71 73 63 24 20 43 35 12 34 27 28 22 44 14 29 34 29 32 36 20 23 45 56 33 44 38 36 43 45 29 41 55 62 72 99 105 65 74 59 59 45 60 82 87
51 104 115 83 76 38 52 37 27 25 -2 13 27 31 17 6 29 48 31 30 39 33 38 50 54 49 36 24 51 76 38 57 71 70 92 104 91 131 91 72 95 72 84 92 94

GFSSW_con_3kmhel_078.txt.gz
Helicity
34 16 22 22 32 48 60 54 42 29 40 58 82 89 117 100 88 133 72 46 18 70 188 161 155 136 121 179 164 203 224 154 128 121 100 123 53 72 26 -6 129 118 66 116 163
14 -6 26 38 45 51 65 66 57 47 38 33 57 68 70 108 105 56 85 58 70 83 84 140 132 141 179 168 178 217 208 163 138 113 106 138 192 95 34 168 178 124 217 246 169
4 11 28 40 44 47 41 43 28 26 28 35 31 43 51 53 53 -16 -17 3 69 77 82 97 94 141 189 187 184 204 140 192 159 119 194 121 228 -19 83 198 220 64 92 148 140
9 9 28 39 53 45 30 34 41 48 31 26 29 40 52 51 92 38 242 307 83 193 72 91 121 149 181 172 177 169 98 123 172 209 182 141 127 -58 89 151 168 16 75 140 116
13 21 31 48 53 50 25 40 38 46 52 14 26 45 51 44 38 -2 115 265 189 120 52 85 107 122 160 159 176 128 166 111 186 134 170 6 33 116 32 176 130 42 106 121 105
22 27 37 30 42 43 39 44 29 18 57 -6 24 52 55 20 29 103 12 6 117 275 76 91 116 93 102 123 154 123 122 138 121 108 102 72 73 13 34 89 30 79 105 103 104
21 29 22 18 35 49 42 -4 2 26 55 -8 30 44 33 29 27 103 108 -7 -62 310 186 105 112 132 127 137 104 165 112 117 120 117 101 36 50 35 113 44 38 91 157 111 81
28 27 20 24 26 43 26 3 -14 32 66 -22 26 30 -2 -6 8 -10 26 33 -192 266 381 115 23 72 148 185 170 142 145 148 98 119 116 108 51 31 86 126 147 73 123 148 121
23 20 16 19 25 42 20 17 6 37 35 28 26 2 -2 14 -1 8 25 11 -82 -90 407 165 52 69 168 204 215 192 172 167 162 118 164 169 70 25 107 87 93 111 97 149 148
20 11 13 4 14 26 5 38 20 29 11 12 20 13 20 30 19 56 33 2 -11 -54 307 206 62 173 209 163 167 204 169 166 168 149 173 163 103 126 139 129 97 54 94 118 159
8 3 9 -6 19 26 42 68 34 11 9 4 -5 43 82 67 38 14 -17 -10 9 -1 334 143 54 197 102 113 186 191 221 135 135 166 113 85 93 90 113 120 100 111 112 113 109
11 -1 12 6 20 51 66 93 55 49 35 19 9 -9 20 35 50 66 5 4 36 12 158 263 101 88 95 104 118 112 130 152 126 78 117 87 62 101 95 86 79 68 83 120 91
4 -7 1 25 50 104 108 94 26 21 64 22 4 -15 4 11 3 33 7 6 40 78 115 168 -8 105 100 126 100 117 125 134 127 112 96 82 57 71 83 66 72 80 66 74 99
0 -21 7 43 103 108 135 82 18 18 221 105 9 0 -23 4 20 52 27 16 32 38 9 111 131 142 95 84 82 117 91 115 104 112 130 128 64 83 33 67 71 63 79 81 106
-10 -28 19 94 126 113 83 58 13 2 120 190 111 -14 -3 -27 12 32 68 25 38 45 53 167 82 55 84 103 133 87 71 79 100 139 140 121 101 62 99 85 53 27 55 67 141
-17 -34 38 133 130 90 57 32 42 51 73 158 167 95 16 -16 -52 -24 -18 51 48 62 104 160 53 97 35 234 153 98 139 165 117 113 102 83 124 34 103 57 88 58 75 130 167
-17 -25 47 79 85 78 59 53 57 40 74 96 132 109 109 41 5 22 9 -1 77 77 167 153 109 96 125 221 229 134 135 132 148 109 60 89 128 134 47 82 67 135 187 186 234
-3 10 50 71 109 107 64 39 37 67 119 216 101 101 146 32 -33 -55 -34 19 77 72 120 129 110 88 150 220 127 185 92 105 72 47 37 96 56 86 51 23 56 168 247 241 211
38 50 52 67 114 99 77 53 41 70 106 124 78 45 117 194 173 172 80 44 -8 49 96 206 125 179 124 172 146 151 106 131 68 59 90 66 67 110 85 96 173 199 245 229 222
57 47 62 79 105 70 56 22 36 106 112 81 38 84 49 109 130 154 67 115 53 16 198 144 224 190 164 159 185 126 84 88 88 71 88 51 81 89 96 128 174 177 213 227 204
57 58 75 95 64 41 74 45 44 101 117 66 52 47 75 72 84 53 33 36 72 57 80 99 100 119 139 121 119 155 136 127 95 120 82 50 -1 61 137 130 190 192 184 162 150
49 68 59 51 56 37 65 37 46 39 50 35 -8 55 46 31 4 25 42 33 93 70 59 62 99 141 65 65 68 98 93 124 116 120 109 78 48 66 23 156 183 194 162 131 120
58 64 74 54 61 16 49 69 40 30 22 11 -5 -4 8 10 -12 16 35 54 41 31 40 54 96 176 105 106 93 91 87 102 143 152 126 128 81 70 69 167 184 204 151 122 131
14 50 46 96 59 47 -2 25 57 35 16 2 -1 13 14 20 28 1 28 40 33 27 30 24 51 34 39 51 105 77 70 76 143 151 130 124 85 95 85 141 161 171 147 132 110
65 92 98 43 125 107 66 32 38 58 57 34 3 1 14 7 19 31 20 32 35 39 23 22 33 43 55 46 60 59 78 97 87 75 109 88 76 79 68 85 108 122 109 118 101
76 92 138 109 81 118 154 87 49 50 56 54 45 31 22 13 19 32 53 33 27 46 41 41 22 43 63 51 57 56 43 72 83 83 72 75 28 64 31 82 97 68 73 58 68
81 106 124 177 203 222 216 178 82 66 37 30 25 34 44 22 16 22 39 44 38 25 32 46 53 61 43 42 41 54 15 73 79 85 94 97 51 81 86 51 77 50 47 49 78

GFSSW_con_3kmhel_081.txt.gz
Helicity
9 -16 -5 29 35 39 47 54 58 50 41 36 48 66 84 89 110 81 85 105 190 104 172 163 160 153 148 195 193 216 290 185 153 120 129 71 106 -29 -60 7 91 155 51 77 166
8 -5 12 27 32 34 48 46 40 32 37 24 21 44 57 74 75 63 71 48 64 137 150 162 162 148 179 210 213 240 245 209 175 166 121 152 125 48 -35 45 161 149 93 159 148
19 13 25 22 38 56 50 34 38 47 49 40 23 43 48 55 62 8 19 -5 23 70 151 143 138 138 172 208 226 225 181 253 153 160 90 82 162 188 16 134 155 264 198 116 122
25 24 22 32 37 30 29 8 34 23 26 45 49 39 57 61 80 7 145 194 72 35 126 123 154 168 161 208 182 226 178 194 188 170 160 101 123 187 69 79 90 194 198 52 72
29 17 23 27 25 21 28 26 22 11 5 55 47 43 51 39 38 23 72 185 178 148 116 79 134 188 180 173 213 150 136 154 268 121 93 90 113 111 156 -52 14 117 206 109 37
24 25 25 20 24 26 45 32 13 -1 9 68 29 38 51 37 29 64 10 2 67 77 147 72 103 159 159 189 196 102 151 149 181 170 113 100 112 85 50 29 59 137 294 73 86
25 21 25 18 22 28 46 20 11 15 80 53 -0 20 36 17 20 71 37 -22 -56 37 192 150 96 113 113 191 177 147 120 145 201 156 132 122 111 36 64 13 50 322 243 93 64
13 13 6 7 13 30 40 18 10 24 73 -5 -24 1 8 3 1 14 25 20 -57 -37 227 393 83 93 142 162 254 157 174 158 157 170 163 115 70 83 51 19 111 533 235 110 109
19 22 -7 -0 6 25 18 36 61 51 25 8 -12 1 -5 -2 10 2 38 -6 -85 -197 298 452 167 89 98 175 285 230 195 201 203 118 153 158 53 41 143 50 72 90 150 83 111
18 22 -11 6 5 17 22 45 46 27 2 -5 -4 4 8 23 19 17 9 -37 -79 -187 219 316 218 119 130 194 203 218 183 198 195 137 145 150 115 70 124 90 41 13 19 63 43
18 24 -11 18 15 18 63 38 47 40 23 46 32 25 6 68 20 33 -6 -24 -72 -80 272 270 297 115 61 180 155 202 200 175 150 149 157 116 120 149 183 125 66 59 21 -3 45
24 32 -5 33 33 47 70 93 61 39 69 46 40 18 15 11 34 21 -21 -26 -44 8 127 299 121 47 -74 187 151 129 225 152 142 122 133 107 90 81 97 64 103 63 49 -23 20
12 35 16 60 92 68 82 82 14 19 105 79 36 28 -23 -29 -10 15 -14 -16 -26 22 209 219 133 -13 150 144 191 189 136 199 129 108 122 100 75 51 27 55 65 90 84 65 50
-3 17 27 65 133 81 82 62 31 21 173 139 76 38 -6 -45 -45 26 32 1 5 25 136 177 62 -193 242 168 148 197 107 114 138 175 124 94 31 86 35 -13 52 59 55 67 87
-13 13 34 77 101 111 65 71 47 39 38 157 75 17 7 -45 -33 -9 33 9 15 55 128 177 -12 -159 202 161 135 124 110 134 144 138 142 122 69 12 86 63 -17 9 39 42 114
-15 24 82 77 56 82 75 45 63 54 46 120 97 49 41 -32 -50 -21 22 25 10 57 66 104 175 4 31 209 121 125 154 198 172 135 93 63 95 -46 103 89 74 61 96 87 98
-26 39 77 87 76 62 68 60 68 58 78 70 137 92 24 23 -20 -43 -49 40 57 117 134 92 127 71 90 111 112 102 125 197 192 145 77 56 80 3 99 79 57 68 79 111 154
-28 53 97 83 84 105 62 71 116 63 77 105 87 121 175 88 12 -6 -24 22 55 109 103 130 131 93 25 108 149 146 106 154 211 145 76 69 18 8 13 36 33 34 85 159 207
20 56 84 85 94 83 68 112 56 54 72 87 53 99 163 154 67 12 12 -5 18 46 84 76 193 125 163 138 188 176 127 139 156 129 84 41 9 19 16 18 38 47 123 154 215
94 80 80 113 111 90 105 75 62 73 82 70 32 45 75 107 98 97 47 1 20 54 24 106 106 20 102 191 221 154 109 120 81 32 8 10 -39 -19 -32 5 68 119 166 159 217
84 89 93 114 102 105 144 75 73 69 85 75 42 31 61 62 62 38 18 15 22 37 29 125 73 27 63 146 111 133 120 109 112 92 -1 -44 -30 12 18 30 76 136 182 187 175
96 61 77 124 126 151 141 99 76 70 80 40 41 51 45 42 30 35 13 19 39 23 62 49 78 136 103 109 55 116 76 117 98 108 90 31 -1 21 -2 13 82 131 153 133 128
120 91 116 144 154 147 134 119 91 67 93 83 49 33 27 5 20 7 -9 74 80 28 24 43 34 124 114 64 74 46 93 116 119 119 45 87 62 30 76 67 91 150 135 120 123
117 121 120 125 151 137 132 122 100 67 73 97 55 43 35 13 13 29 -22 -5 45 35 35 54 49 60 46 28 73 76 94 94 130 102 77 100 19 -0 33 44 100 140 162 144 103
140 183 162 201 234 156 171 180 95 44 22 54 101 65 30 33 26 39 29 -16 -4 21 56 37 41 53 71 47 84 89 129 98 66 78 102 69 45 57 59 58 65 146 157 144 103
136 184 210 261 261 281 269 158 128 68 15 11 45 74 50 30 28 28 42 51 43 29 27 41 45 66 71 65 49 43 61 52 47 109 57 69 46 26 56 100 78 98 143 117 82
93 165 217 273 308 334 342 188 102 28 5 14 10 32 61 48 35 44 41 55 50 50 42 37 35 59 50 61 48 44 23 84 101 132 100 70 68 15 38 75 58 78 92 63 48

GFSSW_con_3kmhel_084.txt.gz
Helicity
16 20 5 23 24 46 57 50 51 29 38 19 16 24 34 34 78 58 78 50 74 121 189 232 177 161 164 202 195 211 306 191 190 196 173 127 90 64 1 60 85 96 113 130 34
18 20 26 25 36 59 58 58 43 24 29 34 30 23 45 53 33 43 32 13 30 158 168 246 224 159 184 176 240 247 240 207 159 197 134 134 127 96 -9 107 128 161 73 169 58
11 19 16 34 43 54 54 49 48 33 33 22 49 38 54 50 9 -6 62 1 29 23 141 188 209 223 168 178 234 230 211 245 193 170 141 82 102 111 33 72 63 170 224 219 166
6 24 25 25 47 41 35 51 48 29 22 12 60 28 66 59 13 3 77 146 64 58 66 120 131 224 179 199 205 226 183 199 285 161 173 109 84 90 128 77 -24 89 131 175 171
8 15 28 22 43 42 27 57 43 27 12 59 71 87 76 49 29 42 38 119 149 110 57 125 103 174 192 158 235 171 166 155 228 159 121 140 80 56 113 90 -2 82 132 221 125
17 11 25 13 30 23 29 28 24 20 39 72 36 17 65 36 24 58 12 8 94 65 93 72 190 125 185 128 187 129 199 162 161 208 140 141 125 66 92 84 -73 12 126 169 147
17 13 23 12 21 23 23 10 21 44 64 36 -6 14 44 23 41 27 29 -7 3 55 80 107 129 103 113 172 174 199 139 174 177 193 205 176 164 96 81 80 104 -71 59 129 221
11 11 18 18 17 25 18 28 50 91 41 6 9 5 21 3 24 57 34 -2 -20 -75 44 147 181 159 25 199 247 215 180 181 157 177 195 140 112 110 51 26 120 65 79 173 315
11 13 16 17 22 25 32 40 63 90 38 13 11 23 19 0 13 38 51 -6 -37 -57 -19 193 295 47 148 175 257 239 209 177 223 140 167 137 98 88 79 56 76 171 161 234 312
5 11 21 28 37 35 49 37 22 50 31 10 22 37 28 30 24 13 -12 -33 -34 -27 60 223 215 92 134 158 277 291 234 195 227 186 167 147 138 125 115 104 62 166 182 239 323
4 11 23 28 48 55 66 60 84 47 92 89 50 46 25 3 20 33 -29 -40 -69 -14 77 313 271 53 21 193 169 205 246 224 219 198 174 132 114 81 76 140 98 81 243 356 276
2 1 22 41 78 96 86 121 103 63 139 84 43 27 22 7 2 22 12 -31 -50 48 84 253 148 91 39 78 191 119 168 173 169 196 171 117 98 63 72 89 95 70 74 63 117
7 7 17 57 112 103 101 108 48 45 135 98 71 60 17 0 11 10 4 -11 -34 76 162 277 147 117 67 95 171 123 125 216 168 208 215 129 121 101 49 79 67 61 72 26 53
16 13 28 71 99 117 112 73 50 49 144 125 96 78 33 -7 -2 18 9 -10 -3 142 146 210 206 68 8 41 148 160 107 165 138 191 155 128 81 109 74 42 42 45 108 69 37
27 35 41 103 132 125 101 53 43 31 109 119 97 56 36 22 5 1 15 -4 4 148 133 158 164 69 20 12 183 144 101 199 201 190 159 127 92 73 132 95 -2 -18 18 35 69
41 61 111 113 113 110 103 60 38 117 106 88 98 100 101 49 15 0 12 21 -18 38 148 138 177 46 -51 125 205 143 237 231 183 169 120 91 90 -20 80 99 75 69 41 58 80
41 82 131 133 118 118 103 100 159 183 107 114 102 124 88 68 71 14 7 30 17 92 186 129 42 -132 -52 127 179 169 228 313 215 151 70 65 81 -17 77 70 53 62 70 71 107
91 122 125 113 122 134 115 152 231 157 107 93 74 97 138 101 38 72 9 -14 -1 33 76 87 -108 -62 -3 146 108 180 193 254 228 175 113 99 50 0 24 16 45 82 71 103 138
176 146 123 112 149 124 170 226 186 142 118 105 81 52 93 119 53 34 27 -16 40 18 54 11 -24 13 19 75 150 148 90 162 156 186 156 101 67 45 43 32 9 58 29 8 93
137 150 126 134 163 154 205 201 151 126 117 99 73 66 66 102 85 67 38 -4 33 62 100 59 -56 10 18 60 131 115 105 109 129 98 91 90 55 44 37 49 58 56 29 44 105
116 152 137 117 161 149 178 165 179 104 116 78 65 51 50 64 90 37 41 -11 -1 49 16 114 117 36 56 73 80 207 172 122 97 86 56 33 47 6 58 71 89 49 74 87 145
124 158 170 125 164 175 188 187 209 128 95 42 48 54 42 40 49 17 23 17 0 34 0 98 104 71 49 131 77 149 119 146 85 46 46 10 51 55 24 23 35 32 81 112 147
159 131 158 174 292 270 174 163 193 220 101 54 21 32 11 -8 -13 5 -32 21 9 -22 30 66 42 38 55 86 116 92 105 114 114 66 7 26 -16 66 76 50 109 12 49 107 137
159 139 206 272 325 279 260 227 209 122 94 40 24 27 12 4 -1 5 -8 50 56 13 53 63 49 70 59 40 79 80 96 102 108 80 67 99 92 41 19 1 24 47 78 96 128
130 161 209 250 220 169 269 291 195 100 74 21 13 53 36 19 22 30 19 -20 60 34 44 40 18 50 36 30 64 75 99 129 147 147 94 50 24 56 36 18 50 72 109 142 114
80 120 156 112 133 164 236 297 228 91 43 -11 -24 33 19 22 19 34 46 42 19 39 68 63 67 58 73 60 47 44 39 73 82 77 70 21 19 11 53 66 69 70 105 113 96
13 11 79 -9 77 190 172 157 113 68 -20 -14 -37 -39 117 60 31 33 31 28 13 15 28 46 49 67 59 55 40 37 36 71 73 98 55 101 155 84 41 44 34 42 48 73 60

GFSSW_con_3kmhel_087.txt.gz
Helicity
4 6 12 21 20 40 36 33 56 69 62 37 23 33 26 35 50 45 37 42 27 90 145 184 124 151 165 210 215 243 302 181 94 92 52 76 58 44 59 60 140 88 67 127 143
7 6 7 19 17 35 31 33 52 76 64 46 13 30 56 48 25 -1 15 44 13 49 116 162 201 211 174 222 225 241 228 187 129 118 74 65 35 16 51 73 128 118 50 61 143
8 -0 12 18 20 36 44 35 58 60 52 36 20 56 84 56 24 -1 76 69 26 15 102 184 209 227 194 192 250 228 213 195 205 126 134 77 92 87 29 46 57 126 74 43 145
12 2 10 23 17 30 33 36 50 37 42 35 64 41 35 36 34 50 58 79 134 60 51 123 229 188 193 140 216 217 192 163 172 133 131 117 83 120 125 -11 14 84 109 50 168
14 7 11 23 11 21 32 26 32 31 42 79 44 67 7 27 47 37 39 18 79 144 108 39 91 147 172 154 169 176 210 150 174 145 125 115 109 108 116 43 33 84 125 84 118
18 11 12 19 15 15 34 17 30 53 65 100 36 42 19 48 27 40 25 11 34 88 164 60 103 110 182 160 147 111 250 131 125 160 153 123 133 110 114 79 59 44 68 106 80
27 15 18 21 17 17 28 28 48 92 70 56 27 -4 34 47 25 14 25 -4 6 15 86 2 103 144 98 142 125 163 196 207 139 119 156 109 117 141 113 68 95 66 80 103 104
32 25 25 28 30 27 32 48 67 92 63 37 44 11 46 13 15 30 26 10 -16 8 19 5 131 109 79 147 130 191 198 224 157 136 173 129 62 118 101 95 97 73 178 102 99
31 25 30 34 45 48 37 56 51 69 55 53 58 44 46 16 24 30 9 -1 7 17 5 12 78 104 33 233 234 209 230 186 217 96 194 162 96 138 92 90 121 121 156 104 117
31 20 34 43 61 67 47 65 38 30 34 55 63 91 31 26 24 31 -14 -28 -13 -16 -10 73 127 89 142 200 232 281 267 200 198 172 158 154 114 157 72 85 99 146 119 139 128
31 25 33 43 72 88 91 86 141 119 74 119 145 128 45 8 27 18 4 -13 -19 -11 35 134 123 90 -1 -7 179 193 279 149 212 194 142 109 82 84 87 90 106 116 141 165 137
37 30 30 48 86 123 120 185 150 126 125 105 103 97 58 9 10 19 32 11 -14 23 48 74 -12 30 40 16 163 169 233 205 225 177 145 116 72 87 87 87 96 92 120 100 144
46 41 41 67 120 122 148 164 98 90 138 110 127 122 92 18 5 23 11 13 -11 67 60 38 58 58 60 73 116 169 202 225 141 170 172 104 91 103 106 112 97 92 99 89 45
52 50 63 98 129 121 144 130 88 85 175 134 139 97 78 33 -5 16 3 6 13 132 120 97 198 53 134 83 112 114 118 169 127 140 160 161 83 104 104 99 99 63 64 49 51
58 61 87 130 166 145 150 129 70 89 172 165 127 73 73 59 -8 15 -2 9 90 140 145 91 113 58 73 -19 77 87 63 135 169 168 153 143 103 75 149 72 82 65 70 46 65
64 87 151 136 143 129 148 135 127 190 175 138 116 131 126 67 17 -10 -10 18 3 113 142 102 149 106 68 -3 -21 289 162 165 179 132 125 90 90 12 90 101 80 63 44 54 58
90 122 139 152 163 125 139 192 252 253 151 128 102 125 132 97 39 14 -5 33 45 76 112 85 109 93 10 -58 79 196 156 282 219 161 97 101 85 37 48 50 67 57 46 63 77
121 183 156 131 169 147 147 228 316 209 141 107 103 123 141 152 66 45 -2 -17 13 56 73 65 36 64 -61 -12 122 116 164 266 216 140 125 123 45 25 38 -22 30 58 96 82 73
168 193 166 128 142 135 171 313 323 205 139 135 102 60 89 153 87 63 37 -18 29 16 52 50 -10 10 -136 -40 136 163 129 172 173 208 129 85 85 87 -3 55 30 25 18 42 54
161 228 168 134 149 136 246 240 234 151 154 126 81 47 51 100 141 90 62 3 49 23 65 94 7 -23 -100 22 56 248 158 141 145 120 104 78 74 86 83 87 78 52 25 47 41
176 229 172 148 134 252 315 256 153 108 181 124 91 44 47 41 100 95 40 -0 13 16 47 54 27 -6 16 77 67 111 81 123 101 107 118 87 93 86 102 105 97 94 63 67 37
183 195 184 181 256 262 264 246 127 70 105 93 66 35 31 -20 30 45 43 13 -3 36 -3 31 47 19 72 71 36 124 94 108 47 49 100 109 132 49 87 96 129 99 75 73 83
169 193 167 157 253 290 173 147 151 139 76 66 33 23 -23 -36 -6 30 5 25 10 19 -1 70 66 28 83 66 63 68 102 124 105 79 23 32 77 26 33 50 19 80 50 48 83
116 116 148 185 162 190 172 170 110 46 22 -13 12 -16 -14 -22 -40 -11 8 29 18 24 52 64 67 76 56 46 62 61 99 107 127 79 65 77 53 51 3 17 -22 19 43 34 71
87 85 81 85 62 88 140 164 88 55 -3 -81 -62 -124 41 11 -13 -24 7 101 49 72 38 52 66 82 96 36 48 68 75 110 110 109 69 22 43 44 -4 -17 41 32 48 59 103
3 39 13 -7 21 67 120 161 203 49 1 -91 -166 -189 -16 146 61 19 7 22 31 88 73 69 67 64 110 73 40 53 50 40 29 42 40 87 41 10 45 33 92 91 103 98 74
-50 -42 -25 -66 4 113 126 176 174 73 43 -62 -182 -189 -33 122 120 121 48 -13 -17 -1 47 47 44 81 149 75 59 68 33 41 49 80 69 76 84 49 47 76 78 82 80 68 38

GFSSW_con_3kmhel_090.txt.gz
Helicity
6 8 11 12 3 5 19 22 36 60 80 71 42 36 28 29 37 -5 16 49 50 36 79 175 131 111 132 163 145 205 247 113 96 120 92 97 138 133 124 115 132 166 148 151 127
23 14 10 21 15 18 25 34 35 54 68 63 48 42 45 25 0 -4 37 49 54 53 81 140 145 127 134 137 171 214 149 56 53 65 81 76 142 57 85 65 106 100 81 50 86
28 28 14 25 24 6 17 29 29 39 50 52 40 75 55 7 -4 40 78 80 39 55 58 92 158 133 107 121 230 199 124 97 139 152 169 132 104 111 39 68 68 78 43 24 73
38 28 26 31 26 22 21 32 21 28 31 63 54 53 29 -8 40 23 29 50 97 72 82 147 219 172 205 153 197 200 123 224 92 158 117 87 67 55 49 53 35 27 34 0 38
40 34 32 42 40 37 27 20 26 31 58 82 70 70 28 21 8 6 24 20 27 87 54 56 174 199 167 228 163 157 133 122 195 180 155 150 103 74 27 70 58 62 98 38 -2
30 38 31 41 49 48 40 26 34 46 89 74 64 43 29 23 9 17 34 25 27 32 98 88 101 193 93 103 191 131 150 124 107 88 139 49 60 75 78 55 49 65 79 106 35
27 35 40 46 56 56 62 43 64 62 74 62 69 25 35 43 14 7 43 39 54 57 67 59 92 97 112 117 136 135 106 179 96 77 114 82 46 55 65 52 74 76 74 90 86
21 34 32 50 55 70 74 50 71 58 57 59 59 36 64 26 14 11 -3 23 29 61 49 92 41 112 130 156 161 129 143 139 100 102 142 110 89 55 80 75 117 72 139 105 90
21 33 30 41 54 89 86 63 61 56 53 64 73 65 96 37 34 13 -15 2 11 6 21 42 -22 112 71 131 126 194 225 113 86 78 108 112 77 65 50 65 99 132 96 135 70
28 33 35 43 71 92 92 93 69 62 45 61 73 105 83 55 29 11 2 5 7 8 43 72 60 130 96 38 225 178 208 106 146 98 96 80 98 79 63 73 86 115 119 134 115
29 34 47 53 92 110 132 140 175 177 121 88 133 118 123 29 27 22 10 17 -2 1 68 80 132 103 43 13 229 67 171 126 146 129 77 62 80 85 121 105 101 128 155 147 115
35 37 49 63 124 133 141 181 199 152 168 78 98 80 72 22 19 32 27 6 0 13 33 89 101 74 92 42 148 280 99 134 113 124 92 68 79 66 92 90 119 113 114 134 118
38 43 57 82 152 143 166 194 145 111 149 83 120 94 97 27 10 40 36 8 3 26 72 124 61 45 83 85 161 95 81 135 80 154 160 106 69 63 59 63 78 104 125 116 121
49 52 73 115 131 149 164 167 124 88 147 127 122 89 69 41 20 28 37 13 -7 69 128 116 108 -9 51 -80 58 54 109 122 100 81 106 115 87 39 49 61 55 82 88 110 110
56 73 100 116 146 138 165 146 107 94 248 188 115 83 61 66 7 31 18 29 40 108 142 65 45 15 101 49 7 162 162 101 62 49 93 73 116 98 74 48 76 68 74 73 118
23 71 140 147 131 122 140 133 132 235 288 144 112 108 116 81 38 14 23 38 22 91 98 139 56 84 92 76 42 64 101 148 103 103 146 101 103 94 46 41 32 36 40 50 74
16 94 140 134 140 163 110 120 315 382 184 151 115 124 143 101 49 38 35 37 40 82 104 59 81 69 21 86 63 188 94 215 187 124 112 136 92 113 71 65 67 42 28 27 39
60 174 151 160 163 158 117 303 407 414 162 135 124 131 122 160 53 42 22 7 44 46 81 91 74 38 33 -2 -64 179 135 212 156 124 81 98 68 52 67 2 28 72 69 101 38
161 205 180 180 147 145 232 251 428 325 153 132 79 52 79 127 114 45 20 -18 19 21 47 31 37 40 21 49 -48 103 114 138 167 242 116 69 141 99 56 57 47 0 49 73 42
156 222 194 164 125 213 261 262 266 157 115 88 52 50 53 87 97 92 54 -8 -2 12 56 61 48 9 -12 -8 13 178 241 125 129 89 94 49 89 87 69 67 107 90 59 66 44
158 210 206 132 163 240 249 222 168 77 70 43 36 18 63 38 94 156 28 -11 23 0 60 46 23 6 37 51 136 148 116 163 123 122 134 73 67 108 121 179 143 103 66 39 47
189 165 210 97 252 212 163 153 95 55 15 6 24 42 64 13 29 82 43 -39 -1 2 -6 52 20 127 110 16 9 118 70 141 109 93 113 147 110 74 103 123 178 144 96 91 65
170 146 203 143 256 150 84 85 142 34 8 -57 -37 -43 -4 30 15 13 59 22 -3 4 9 27 40 29 9 47 54 68 57 69 63 82 76 138 100 63 43 60 88 95 79 78 64
115 119 139 185 150 126 68 97 82 40 47 -105 -83 -69 136 29 3 12 44 24 22 22 25 49 70 112 99 87 42 58 34 35 83 67 36 44 44 16 2 38 27 23 10 47 54
75 86 50 97 98 111 96 97 87 34 47 -90 -99 -125 -22 106 49 33 64 38 56 35 44 48 87 58 79 52 19 43 38 74 70 60 42 19 34 47 57 23 -4 11 22 38 60
58 13 -15 47 66 65 75 84 42 62 48 -88 -151 -91 -20 37 40 77 108 60 21 56 35 50 45 59 71 41 16 35 41 0 6 25 29 32 51 33 37 43 31 65 59 72 71
-6 -52 -60 0 47 32 52 67 64 71 72 -75 -96 -34 -17 62 99 83 15 42 39 25 46 29 43 72 88 83 60 67 46 28 36 31 26 27 46 42 82 82 78 88 72 82 76

GFSSW_con_3kmhel_093.txt.gz
Helicity
24 31 20 23 34 39 32 25 25 37 31 49 51 58 45 47 28 8 11 77 108 107 63 58 90 108 108 170 141 164 234 136 111 51 50 91 100 59 99 93 180 197 258 153 91
22 28 28 19 29 37 39 21 23 28 22 36 31 39 55 50 29 -6 30 55 75 63 59 49 145 99 88 119 141 187 187 86 86 50 57 129 89 137 164 126 149 121 122 89 47
18 28 25 25 30 38 37 38 20 27 17 34 44 59 56 31 11 29 36 68 80 58 37 80 122 132 118 127 139 168 90 55 81 69 122 180 89 45 82 90 94 101 100 126 77
12 28 27 25 36 31 40 42 26 29 27 56 61 65 34 38 99 21 -8 31 55 76 37 55 98 200 144 134 116 211 57 170 118 69 73 166 70 102 88 104 69 56 46 71 48
16 22 31 24 37 39 45 57 37 39 44 62 68 56 44 61 49 15 0 12 5 42 39 60 70 120 179 109 130 141 199 142 60 106 62 228 58 78 72 92 71 92 39 29 47
15 19 27 31 42 50 58 70 75 70 66 54 43 19 24 79 41 27 28 45 31 40 30 40 103 90 161 223 255 132 176 215 109 33 146 47 198 78 127 44 73 104 46 35 14
13 20 29 22 41 55 79 86 98 82 69 50 45 21 59 88 31 36 33 64 57 70 95 -3 32 223 119 56 330 302 313 289 226 134 69 136 146 98 83 34 75 49 33 47 36
19 22 30 22 42 68 95 97 103 79 55 44 31 30 85 46 14 14 11 24 40 54 81 77 -1 172 96 38 119 211 393 210 150 135 114 32 103 54 45 79 48 75 74 47 49
16 23 30 35 47 81 94 105 103 77 64 48 43 58 109 49 40 14 1 1 16 16 33 52 3 33 162 117 83 97 131 145 100 152 114 75 74 15 33 29 41 95 129 69 49
23 24 31 42 60 78 84 117 110 83 75 53 31 77 114 83 42 14 5 1 12 8 26 73 84 -26 87 144 251 135 110 62 90 69 110 79 120 96 16 61 73 107 144 60 80
18 22 36 46 84 91 94 135 159 186 132 108 120 101 109 51 20 20 9 14 11 2 30 90 123 73 44 57 106 207 44 54 67 76 77 74 52 57 125 74 67 89 120 95 68
23 28 38 62 88 95 102 135 183 175 178 115 83 107 70 36 19 29 8 15 22 1 3 67 140 116 66 37 26 181 189 72 19 61 45 92 53 85 13 56 86 110 107 87 96
25 33 44 73 104 105 128 149 127 99 171 86 96 111 88 49 23 34 21 18 5 9 19 121 143 107 57 63 -40 188 159 128 61 158 101 113 98 95 76 66 70 116 107 76 83
17 22 40 64 108 136 158 145 107 98 183 127 98 118 89 39 40 35 22 8 29 20 36 122 118 93 60 72 41 158 82 73 89 123 145 181 132 72 71 61 64 84 87 107 119
17 16 60 78 149 141 160 144 119 82 209 184 115 132 112 33 34 51 31 30 16 30 54 103 84 71 47 43 -14 120 188 69 58 85 105 64 149 152 16 54 51 54 62 76 107
24 45 124 104 138 132 108 119 146 212 297 137 110 99 144 91 71 35 33 35 16 60 67 152 110 114 56 51 -2 83 92 121 111 100 119 61 84 143 50 57 46 57 48 54 73
50 100 138 114 216 123 80 121 293 342 238 171 74 132 137 181 50 59 60 34 13 54 57 123 110 71 88 129 46 45 144 213 167 152 129 68 75 195 158 74 93 42 42 41 69
100 157 154 175 165 106 94 216 265 356 193 68 39 129 98 161 63 36 64 22 59 51 80 80 99 66 26 122 9 71 119 144 163 164 104 146 119 149 59 105 79 122 145 74 53
148 175 160 209 114 93 160 216 277 230 56 -4 -39 19 88 111 81 48 32 15 41 33 110 47 27 21 35 46 14 59 -12 186 256 140 86 64 133 86 50 -7 65 79 54 91 118
119 193 171 117 103 108 184 136 176 80 -15 -31 -33 -24 1 77 81 104 31 9 10 32 52 55 20 -16 24 46 -21 60 201 171 169 153 126 55 82 87 70 74 59 39 11 60 62
107 172 181 76 121 168 189 124 143 49 -9 -29 -65 8 68 50 94 164 -14 -40 23 -4 37 39 38 9 3 39 -25 68 141 144 134 103 108 46 95 138 82 87 93 91 78 50 67
124 165 162 82 163 188 176 115 117 40 -41 -39 -49 -4 16 41 35 105 -12 -45 -1 -3 11 27 31 -45 26 17 33 103 115 124 81 73 91 110 90 73 82 106 133 71 50 48 37
118 153 159 103 174 145 105 131 104 59 -13 -87 -54 -7 -16 31 13 40 -58 -42 33 18 31 17 10 30 55 24 53 102 137 100 120 104 103 128 59 57 59 97 94 129 98 47 54
108 131 142 136 114 114 89 63 83 60 -11 -101 -54 0 -15 -5 -2 7 -18 -2 25 11 53 33 58 89 95 77 52 58 41 49 65 57 74 96 59 39 41 53 40 41 35 44 38
78 100 93 98 145 94 70 52 62 95 -33 -104 -59 -47 -6 -12 -22 5 23 48 52 2 28 38 57 78 99 69 36 36 14 33 52 20 29 43 36 54 49 22 39 -5 -24 -6 32
85 85 57 84 94 56 66 68 67 74 28 -73 -96 -56 -21 -2 -10 -3 77 3 19 9 -4 10 63 66 80 43 42 66 55 24 7 -14 2 12 17 34 29 42 45 22 20 22 48
79 54 -19 61 83 45 49 45 49 30 25 -87 -70 -38 -13 -6 11 56 45 76 41 45 53 7 21 59 47 21 18 43 17 14 30 35 9 0 42 78 60 63 69 79 66 55 55

GFSSW_con_3kmhel_096.txt.gz
Helicity
22 26 27 24 22 28 37 35 40 43 32 35 37 53 52 37 36 46 33 60 37 56 21 111 101 132 95 173 243 69 51 253 223 182 135 58 96 83 105 152 149 266 321 155 84
16 21 23 26 26 30 34 42 47 43 36 34 34 45 37 33 38 40 74 50 12 69 41 61 107 100 93 102 154 195 182 134 113 203 89 78 134 120 195 187 173 202 191 97 115
19 18 26 26 27 34 37 48 45 44 33 39 42 40 42 27 68 87 100 25 10 67 47 23 59 204 122 104 124 164 134 104 145 66 27 104 144 169 230 195 135 149 161 92 88
19 14 25 34 26 31 42 52 52 47 48 47 43 43 32 33 155 62 14 -1 -14 41 55 20 37 74 139 118 136 175 34 178 153 37 -31 161 154 398 221 170 61 55 118 138 89
23 14 23 28 39 33 49 60 60 72 68 57 44 43 48 94 103 57 21 10 1 21 19 47 45 33 236 112 117 132 182 60 175 70 31 153 125 139 153 111 171 89 57 92 95
11 8 26 23 33 35 53 66 74 89 82 65 32 31 57 96 70 65 23 20 39 48 20 69 76 89 78 220 175 176 183 216 149 11 99 150 93 123 30 158 159 65 62 40 96
10 7 23 26 33 39 67 70 81 100 84 59 41 37 41 76 50 48 31 18 28 87 80 56 54 50 158 193 173 146 299 94 261 33 32 115 171 118 218 144 75 119 103 96 43
6 8 16 30 41 46 75 66 74 94 72 62 33 22 73 60 37 35 25 14 15 36 45 45 36 7 18 136 192 114 232 269 242 55 48 144 120 159 35 157 190 133 70 96 78
12 9 15 25 47 70 70 60 52 98 79 58 58 60 89 48 56 31 16 6 9 9 18 18 -3 -15 115 144 128 10 295 217 299 251 95 55 162 195 44 42 47 158 69 80 68
2 8 17 34 45 79 83 65 62 82 76 59 38 50 78 107 107 30 15 7 4 12 -1 15 59 -48 59 131 149 136 213 199 181 220 251 107 66 110 80 97 98 78 103 108 37
7 13 26 32 52 73 80 94 108 199 146 120 121 50 144 66 42 28 20 5 14 6 19 -0 24 20 85 101 137 21 130 141 175 101 149 177 103 120 104 71 89 71 77 126 106
14 17 19 36 58 70 75 107 194 215 147 70 58 87 157 28 61 35 24 12 9 11 24 2 10 58 -62 88 105 190 168 71 177 62 58 102 94 100 183 142 107 130 106 118 89
4 8 24 57 65 82 92 151 150 144 129 52 68 95 175 52 56 48 24 22 21 -2 -2 28 88 129 -56 45 94 126 204 140 83 124 143 103 103 122 139 99 110 92 70 75 81
4 8 52 62 110 125 163 150 143 99 149 90 85 95 143 86 51 22 43 30 26 -14 19 30 96 113 23 39 78 153 147 168 82 56 87 46 164 100 93 96 77 93 115 142 113
14 35 70 90 130 162 142 115 123 52 294 140 120 123 175 89 49 54 34 33 23 28 16 55 110 116 87 65 -8 109 194 201 101 76 73 50 160 77 24 109 97 94 111 132 171
28 49 91 92 106 122 98 97 97 163 331 86 80 107 189 168 30 56 51 47 36 35 3 128 114 138 93 23 10 61 217 139 121 132 131 77 84 26 64 123 115 90 90 99 106
29 93 115 87 178 117 86 99 255 261 161 42 -7 110 139 139 65 52 65 46 14 39 81 71 141 104 92 104 27 78 168 163 158 173 167 71 90 152 85 67 71 54 85 69 71
53 120 115 132 94 101 68 179 210 168 103 -102 -44 59 86 121 73 49 48 6 50 61 104 143 119 76 60 57 -11 58 76 143 162 284 221 112 115 99 124 82 108 212 145 79 78
47 83 112 105 75 92 130 226 224 146 -29 -22 -32 15 69 70 88 42 35 -5 21 85 126 152 78 54 17 40 87 19 45 174 180 150 148 115 176 121 83 109 107 111 158 220 197
26 105 136 92 64 91 137 211 172 40 -51 -45 8 4 38 76 106 22 48 42 44 51 28 32 38 6 17 30 58 71 77 150 168 189 136 90 81 87 91 68 75 63 66 111 174
24 93 154 92 95 108 161 158 154 -16 -72 -31 -57 9 26 31 84 30 -0 15 47 34 36 38 29 28 21 49 32 55 112 79 140 175 179 87 79 124 153 160 50 90 111 96 107
27 103 163 95 157 117 172 144 87 -0 -74 -28 -9 10 20 30 31 10 -22 -4 28 22 -0 4 27 25 22 64 26 73 45 103 93 127 53 111 109 112 91 93 104 88 96 89 132
54 116 152 97 125 133 162 123 100 32 -25 -53 -26 18 2 40 14 -7 -37 15 74 30 31 8 -5 4 62 79 99 41 53 109 95 82 53 60 51 71 87 103 75 86 69 61 60
55 75 116 124 124 100 150 127 106 24 -33 -60 -22 -1 -20 1 -20 -12 -25 -19 18 19 13 10 27 35 78 55 73 22 41 68 71 69 110 14 89 24 58 63 43 60 57 70 36
52 58 94 126 142 117 121 108 89 36 -22 -59 2 -29 -8 -12 -4 -17 -37 -20 7 31 22 51 35 76 84 49 21 2 51 58 35 63 34 45 84 107 90 70 30 -9 -24 20 57
73 80 99 131 122 73 134 153 97 14 -6 -4 -31 -33 -5 5 -1 -11 -9 -9 26 16 21 31 66 54 86 52 28 45 22 39 40 31 4 -24 11 26 34 41 52 46 -2 -23 10
63 75 92 102 92 61 108 107 72 -24 -28 -75 -51 -33 9 -3 -21 6 25 32 37 31 32 20 53 59 59 29 15 56 35 10 35 33 23 -1 33 53 77 77 38 112 55 31 21

GFSSW_con_3kmhel_099.txt.gz
Helicity
33 31 29 25 31 28 40 29 43 49 49 55 48 39 47 42 45 56 83 59 51 31 0 64 136 143 140 68 104 101 94 222 135 182 125 123 196 208 158 238 249 240 193 144 168
35 25 27 24 35 25 36 32 39 45 55 57 51 56 48 53 76 54 50 20 27 25 -37 -17 170 102 128 45 99 141 114 -210 380 303 180 194 162 116 205 333 254 237 305 184 149
32 25 18 23 35 24 36 35 36 32 51 67 55 56 65 70 96 65 40 26 18 9 6 16 42 69 94 89 109 96 37 101 72 216 143 181 242 299 238 269 200 163 211 165 119
22 15 14 35 27 36 30 37 39 45 62 73 58 71 63 63 125 45 8 5 6 1 -2 31 39 10 61 104 78 110 -19 175 164 20 196 230 273 300 397 254 117 117 119 115 119
18 7 9 32 21 34 34 44 44 58 72 83 68 73 76 83 109 28 23 19 43 26 22 33 49 25 77 119 107 92 160 84 89 39 183 234 242 218 173 382 243 125 175 125 115
-1 8 8 27 30 38 36 55 57 75 73 77 61 62 100 84 73 66 39 65 70 70 57 31 57 -8 103 158 186 110 110 153 202 17 69 166 250 241 157 283 279 150 163 151 91
-9 0 11 18 28 40 38 64 70 82 66 62 55 77 74 59 46 85 36 33 26 35 39 41 24 -12 71 179 165 116 116 150 122 -85 40 97 176 187 302 277 421 158 126 142 106
-10 -3 15 19 29 45 50 44 59 64 56 53 47 79 73 34 37 60 32 30 18 22 26 17 11 2 -3 213 195 101 143 183 186 38 -48 151 190 210 72 125 276 102 113 148 157
-27 0 14 23 39 40 41 39 31 59 50 40 79 67 58 45 57 41 33 23 13 29 13 12 5 -22 -225 82 152 164 116 175 156 55 95 123 -82 85 88 146 243 171 153 110 131
-15 8 19 38 44 61 30 19 43 64 51 28 33 41 69 104 95 62 24 25 13 -1 30 23 9 -71 -150 15 125 180 164 151 177 148 108 135 34 31 35 98 221 268 62 96 84
-24 1 16 50 44 62 85 109 149 137 96 61 56 60 119 109 55 41 22 16 22 0 30 25 31 -68 -24 -25 293 170 113 282 258 160 90 67 90 230 -5 -11 135 94 240 94 126
-20 -1 20 54 47 51 108 158 148 121 88 -3 -11 50 120 82 72 38 43 15 21 25 39 47 101 52 19 43 101 194 39 68 358 150 151 77 120 -2 30 81 44 59 -17 45 117
-14 3 36 63 28 88 133 146 103 60 83 18 59 60 126 81 54 22 54 21 21 1 4 36 70 109 44 93 -28 173 125 56 167 206 161 53 56 90 61 56 48 65 59 63 83
-7 11 47 47 82 114 165 141 87 17 201 83 62 66 122 52 44 19 43 55 20 -3 11 30 78 114 51 96 45 134 94 256 156 174 151 227 -42 29 67 54 107 106 104 105 69
10 22 42 62 93 140 142 103 48 5 370 51 52 106 147 81 14 48 25 46 50 21 8 7 99 79 60 106 93 110 134 187 162 153 164 185 138 66 102 36 73 169 120 88 105
21 25 11 72 89 118 102 69 4 205 218 18 34 118 145 104 37 43 35 41 40 7 14 74 86 104 61 30 47 118 141 97 143 135 96 69 86 113 109 -20 143 169 125 77 120
29 31 43 70 99 87 59 98 264 264 54 3 11 124 72 92 44 36 28 46 43 73 27 82 84 93 70 78 48 115 206 199 164 114 119 53 58 66 111 93 115 60 106 85 99
52 27 26 90 56 81 83 169 253 172 123 -44 -9 59 49 96 41 21 27 17 65 74 66 103 176 117 77 46 28 84 211 236 134 167 197 74 79 52 31 34 6 103 149 115 97
30 -4 38 55 34 66 139 190 180 162 31 -8 -18 15 51 71 22 16 34 32 86 168 103 120 121 39 73 37 17 12 248 214 255 176 145 104 104 112 150 158 134 99 120 104 105
29 38 45 53 48 86 144 142 160 57 -20 -30 37 8 42 51 38 8 26 56 71 34 63 93 54 33 31 7 36 86 26 203 205 196 182 137 127 120 113 120 119 119 133 179 116
30 49 57 59 74 108 87 110 120 7 -55 2 -8 -1 14 41 31 10 18 39 42 40 49 47 13 40 11 37 27 63 71 90 176 149 108 125 146 79 92 66 91 129 135 134 149
34 45 75 60 88 97 82 99 83 22 -53 -41 3 20 38 49 -7 2 -2 17 87 44 41 26 12 47 32 37 49 55 43 67 173 203 159 130 114 140 137 150 98 108 130 182 163
57 61 62 63 83 79 85 84 85 51 -5 -41 -15 22 19 36 -7 -33 -41 65 69 14 57 56 52 67 47 46 71 54 44 69 57 86 114 83 104 112 99 80 63 84 86 90 108
61 48 57 53 82 110 90 86 107 16 -17 -47 -22 -13 -2 0 -31 -14 -35 14 57 2 19 46 50 39 40 43 40 49 18 95 71 73 69 14 110 94 125 88 76 71 76 83 75
49 30 67 60 52 105 84 80 83 45 -40 -55 -15 -20 0 -10 11 1 -16 -12 20 20 60 33 26 53 65 40 61 26 5 15 37 56 42 90 121 133 78 44 40 33 26 52 63
50 48 59 65 91 102 70 81 69 10 -31 -34 -19 -35 -12 -5 6 21 -7 -19 -2 25 60 21 42 57 56 68 56 35 16 41 51 51 66 45 62 70 46 61 52 12 0 -13 0
42 48 73 45 64 78 75 93 54 -14 -72 -66 -52 -31 8 5 -10 5 -9 7 15 34 25 12 33 31 47 47 32 76 36 -6 8 33 17 29 20 72 61 62 44 39 41 -3 -28

GFSSW_con_3kmhel_102.txt.gz
Helicity
4 23 18 22 33 27 24 43 35 57 51 41 46 49 55 58 54 93 94 68 54 29 39 53 77 72 125 121 81 135 148 91 -35 137 116 76 213 214 117 163 175 217 156 201 243
2 13 14 13 26 30 20 47 49 65 42 57 53 50 53 64 81 79 55 -2 -3 23 50 69 37 48 87 106 54 135 164 -146 66 121 67 253 203 223 150 266 213 194 242 264 256
-5 9 5 4 9 20 30 38 57 63 74 70 61 53 62 70 108 84 35 12 10 11 40 49 62 86 112 64 35 58 93 138 -40 184 201 163 344 270 161 308 250 204 222 225 302
-2 -2 -2 1 9 18 24 36 69 70 81 86 75 67 71 71 172 47 21 21 8 15 32 34 36 14 78 102 89 34 40 37 23 29 170 100 331 242 140 212 242 135 166 225 262
-5 -16 -10 -7 11 19 27 41 88 86 83 83 74 73 97 108 60 28 57 51 43 50 48 31 34 29 17 50 167 26 30 41 -44 127 176 372 191 238 168 201 297 187 131 160 225
-16 -15 -20 -10 5 24 31 51 84 82 83 78 81 67 97 79 60 47 47 40 48 57 57 35 23 52 -5 -19 235 45 24 18 18 -38 202 238 450 217 280 152 371 259 139 140 119
-20 -9 -17 -0 16 22 51 71 68 61 70 58 69 75 49 48 52 54 46 30 41 41 32 34 38 39 15 18 220 105 47 79 34 -151 15 249 466 244 188 314 385 325 235 143 139
-16 -7 5 11 20 30 42 56 54 50 57 48 53 56 40 37 35 40 29 25 30 20 25 37 25 12 -38 28 241 112 75 54 61 -76 -36 106 300 403 93 348 506 401 324 220 142
-10 1 4 10 20 38 56 40 40 48 46 25 27 46 17 36 57 38 39 37 14 22 14 9 11 -22 -55 -42 201 219 97 95 53 -54 -0 7 214 261 227 398 534 435 376 286 172
-3 3 6 10 29 50 38 20 69 88 36 5 1 27 31 60 62 51 29 23 24 4 27 34 8 -23 -8 -109 170 148 163 141 99 19 11 -111 87 121 243 240 215 370 369 350 202
-5 8 15 14 42 52 77 103 160 125 56 49 28 30 50 63 68 46 27 43 22 11 15 16 28 32 11 -188 44 232 150 146 168 91 12 -102 -41 -38 148 134 321 279 323 304 221
-0 16 14 29 48 57 87 144 146 93 153 8 4 19 57 73 33 22 42 46 24 20 21 36 55 70 -28 -167 17 197 178 164 236 186 116 -33 -58 9 -68 35 135 138 161 307 159
8 20 22 44 52 69 103 140 79 11 103 43 36 29 71 64 28 21 46 45 35 22 7 32 29 69 12 -66 30 185 201 130 179 164 210 115 137 54 77 82 54 -36 160 233 118
8 25 38 58 86 87 117 106 46 6 188 71 45 40 76 55 35 11 27 45 24 21 18 26 34 37 64 57 68 177 127 94 232 310 161 193 164 107 104 156 122 44 151 215 100
15 30 54 75 75 90 98 81 8 10 302 98 45 64 107 56 18 45 20 50 61 10 9 40 57 22 110 91 38 94 141 35 116 248 148 149 54 66 36 72 71 38 76 90 67
27 41 43 77 65 69 89 41 29 184 236 85 43 61 78 63 13 25 34 43 36 15 39 47 41 82 75 45 49 48 156 152 213 99 143 61 15 -36 -95 -7 21 14 -10 26 63
31 41 44 67 50 70 80 80 169 210 87 79 17 73 91 58 22 29 40 56 63 -12 41 50 97 86 103 73 87 65 148 193 133 100 88 46 70 53 69 28 68 46 30 70 96
36 39 13 57 67 69 75 101 174 154 123 7 12 63 73 44 25 12 25 38 57 23 151 129 158 105 116 86 87 105 161 144 227 177 115 96 54 94 57 88 143 88 51 132 102
68 38 32 38 39 41 80 108 156 151 55 31 9 58 52 42 2 -0 26 63 124 102 79 119 75 51 61 63 125 88 146 90 253 218 150 98 121 64 50 136 110 137 86 50 78
79 50 26 33 22 53 83 91 123 59 11 14 58 18 47 20 1 -16 -8 41 55 100 88 55 60 57 9 4 35 81 189 183 129 124 181 142 123 92 92 54 98 82 47 54 114
97 61 29 38 27 53 77 64 73 -0 -9 27 26 8 17 10 -0 -13 2 12 27 70 44 34 18 4 9 78 22 65 175 172 152 154 77 126 116 71 75 59 75 103 92 60 58
66 37 10 37 29 36 36 61 42 1 -26 -9 6 22 31 -11 -10 -5 -12 11 58 43 41 47 11 46 64 64 52 2 149 164 132 198 154 115 128 126 132 84 65 89 124 127 116
66 53 6 -45 21 33 21 39 28 14 -4 -5 -8 12 -1 -13 4 -15 -27 31 43 31 66 51 29 10 31 33 22 90 -6 95 115 132 142 131 120 129 166 137 100 84 100 132 149
73 39 25 18 13 67 35 34 43 -17 -11 -23 -26 -19 -16 -15 -24 -4 -3 17 41 13 18 38 35 -3 12 42 31 74 31 36 49 83 84 101 134 118 141 151 147 109 108 84 112
69 24 15 16 16 46 34 37 45 28 -29 -31 -24 -7 -9 -9 1 -10 -29 -20 16 19 56 40 32 18 35 52 41 33 2 1 56 26 38 83 174 263 171 115 96 83 98 112 87
44 35 52 35 72 63 31 34 31 -15 -12 -16 6 -8 -7 3 3 1 -10 -15 -3 59 35 48 49 34 55 54 35 38 46 15 76 90 20 48 124 98 110 83 80 49 41 37 52
67 55 34 17 34 32 36 43 13 -20 -56 -37 -7 -4 6 10 -10 -14 -24 -14 -3 -8 19 26 43 28 40 63 60 64 30 29 63 38 51 61 78 62 73 73 37 39 32 28 26

GFSSW_con_3kmhel_105.txt.gz
Helicity
9 14 20 8 1 17 19 11 43 38 55 51 56 63 70 68 71 100 120 65 67 17 68 79 88 88 78 67 124 130 157 137 100 -6 -84 87 92 57 128 230 174 157 108 137 287
2 9 14 12 2 12 23 30 40 50 54 61 60 75 83 79 99 90 58 14 -17 15 71 73 85 93 109 123 152 170 201 109 82 66 21 216 225 130 89 168 165 147 128 166 284
6 12 5 8 7 14 17 30 37 65 67 76 81 90 90 89 122 105 31 34 14 35 65 74 76 99 108 100 137 129 149 102 94 111 24 -65 258 55 139 198 165 215 104 153 179
9 8 2 3 -1 15 16 35 51 74 80 86 93 104 83 85 210 59 36 23 34 59 65 68 88 98 65 120 75 141 83 86 160 62 44 38 56 166 246 367 219 174 137 183 210
16 4 5 7 6 16 34 37 70 84 94 101 96 89 95 110 51 25 44 45 61 61 65 66 68 86 65 80 46 84 58 -119 91 58 125 23 67 249 268 252 172 248 168 174 165
16 3 1 18 23 27 43 50 82 93 88 90 86 74 87 108 35 31 30 37 46 59 62 66 47 40 41 33 -12 81 51 -165 137 14 71 293 82 324 315 214 199 287 198 144 146
19 12 11 25 32 40 34 51 77 77 76 74 59 55 58 48 40 25 30 43 37 48 47 35 43 48 58 60 46 51 93 -64 54 25 -135 54 57 218 337 187 231 446 372 268 183
20 10 20 24 29 35 47 55 66 71 63 60 35 38 65 17 29 35 27 35 29 23 27 24 43 52 42 10 19 23 75 20 -15 -6 -136 -134 139 86 388 244 370 380 364 325 268
31 22 26 31 29 37 50 54 57 66 60 31 16 56 33 11 48 33 42 57 21 27 25 30 40 36 -12 -51 -117 32 96 76 -1 22 -96 -153 -16 240 327 280 251 310 363 337 281
56 30 39 36 27 39 63 57 86 111 48 14 12 54 28 68 51 42 36 33 43 28 33 42 32 20 -19 -192 35 127 134 78 43 47 -114 -151 -42 236 401 276 378 353 350 332 285
47 38 50 34 26 55 101 121 138 136 84 84 79 34 46 40 50 49 31 59 45 49 31 33 35 52 -19 -104 -114 185 166 89 101 70 22 -130 -112 64 295 403 343 275 348 362 326
54 57 53 32 39 82 119 128 126 109 161 32 15 10 39 56 68 38 58 63 58 46 32 38 12 15 -10 -41 -156 177 164 134 145 95 51 -71 -51 -133 -121 286 238 387 403 332 317
50 61 41 47 75 112 122 132 87 39 112 46 39 31 41 54 62 41 46 51 53 29 12 30 9 36 17 21 -42 82 110 143 122 133 173 -42 -11 -120 -35 47 74 198 351 328 377
50 54 34 90 83 109 117 113 62 36 180 106 64 46 55 57 46 15 23 48 37 25 -18 15 16 49 68 38 20 81 123 155 159 151 122 166 -61 -4 -96 -112 122 234 271 345 387
37 40 44 94 101 99 112 94 36 31 204 120 71 45 48 69 20 42 23 53 60 24 -7 27 21 51 60 2 17 84 121 153 116 149 133 120 2 -8 -78 -90 50 236 228 207 337
37 31 67 96 105 95 114 84 55 142 158 125 67 75 87 34 36 25 41 69 60 80 42 53 -33 45 36 21 17 86 131 130 163 140 111 63 41 -64 -27 5 78 142 126 112 476
47 35 72 90 74 105 102 108 131 150 92 116 83 70 75 26 15 18 38 24 31 -25 75 73 85 96 62 26 49 116 119 130 160 148 175 95 44 40 -20 6 27 57 23 8 100
53 68 68 82 84 119 107 98 119 113 89 64 51 58 52 -0 11 12 14 61 116 110 109 135 121 112 43 -11 8 167 180 162 150 75 72 89 33 45 15 50 76 -0 13 -92 56
103 136 95 83 84 80 88 66 95 107 59 69 52 71 43 19 -22 -8 58 82 108 146 101 101 72 80 42 37 -9 133 148 135 177 130 91 73 104 72 69 101 96 31 41 3 -15
189 122 96 56 89 86 41 66 94 52 18 32 70 45 60 20 7 2 21 47 74 131 95 60 69 68 80 33 45 74 104 171 221 124 98 114 159 145 182 265 176 83 71 37 52
210 116 92 74 56 -60 -8 58 87 13 2 31 34 33 33 22 20 11 3 23 51 63 60 22 -1 82 36 84 96 100 95 80 161 136 87 139 132 81 136 158 178 140 88 72 38
172 103 83 76 -4 -24 26 68 46 13 -20 -8 2 20 19 4 -0 10 -9 23 44 47 36 35 20 80 71 69 49 77 130 95 71 85 129 70 132 138 117 113 90 106 116 105 85
191 118 88 37 15 9 37 56 12 10 -11 -0 4 -2 -5 -1 4 -8 8 42 50 55 41 35 24 7 49 71 37 117 90 101 75 84 105 72 99 162 105 103 93 73 83 89 95
135 93 85 4 -11 2 52 41 25 -21 -21 -22 -5 -11 -1 12 -4 16 11 23 33 37 44 48 14 8 32 52 21 34 19 57 59 85 45 77 101 137 134 120 94 70 82 96 108
185 41 26 31 4 15 47 44 46 30 -29 -31 -12 -2 16 13 20 6 14 4 -4 49 24 36 15 23 38 73 44 71 22 11 42 42 73 24 112 121 105 105 105 64 64 86 88
114 38 71 64 77 81 22 17 19 17 -2 -0 18 -10 -10 2 9 16 3 -19 -10 34 23 30 24 63 24 59 25 48 50 12 50 60 43 46 107 121 128 104 112 85 57 71 74
93 64 40 69 50 38 23 20 -9 3 -38 -12 6 -6 2 -4 -13 -13 -11 -6 6 -7 2 15 41 38 34 83 51 76 86 38 54 44 34 43 53 61 111 94 85 81 75 74 66

GFSSW_con_3kmhel_108.txt.gz
Helicity
29 8 26 34 26 27 29 28 36 32 54 46 60 71 78 104 116 131 151 74 80 38 34 65 79 104 86 106 144 189 168 81 132 71 25 8 31 85 78 162 166 98 113 134 221
8 3 18 33 39 40 35 32 23 36 55 72 82 87 96 118 133 112 56 36 9 3 64 77 84 97 96 87 118 147 161 100 109 49 38 96 21 222 66 206 198 25 89 107 222
1 7 13 25 33 34 29 44 23 52 66 82 93 101 118 122 160 125 27 44 30 44 57 69 87 102 95 86 115 142 90 96 83 99 64 45 40 10 49 152 309 81 49 92 202
6 13 8 21 33 39 48 44 42 80 92 95 100 112 117 112 212 58 45 58 48 55 72 90 114 97 77 87 90 117 124 74 29 58 84 131 49 72 55 212 252 109 32 102 151
28 13 14 19 29 34 55 46 60 98 100 97 115 122 132 134 89 35 46 39 52 65 87 93 103 104 75 100 87 108 96 67 48 10 75 87 56 58 -2 262 81 81 106 128 118
9 9 17 12 27 39 53 54 72 92 100 97 116 113 117 133 35 28 35 38 58 68 87 89 94 87 96 88 86 79 41 21 16 32 25 107 70 67 -97 125 153 125 90 117 116
28 39 30 14 31 45 46 75 93 101 91 99 102 89 98 66 32 30 41 48 47 61 75 53 63 87 93 64 90 95 51 32 41 45 38 79 -13 -74 61 230 183 136 155 137 142
43 48 31 19 41 45 50 88 85 88 87 99 87 58 92 25 29 31 55 42 39 43 46 39 42 61 66 67 16 13 18 24 28 38 -18 52 -99 -5 64 157 218 151 244 235 269
71 65 50 29 40 49 68 81 79 84 108 94 69 77 69 13 72 52 59 75 51 46 54 47 50 51 71 46 -9 -25 49 52 -0 20 141 48 -138 -69 94 373 204 330 485 349 330
68 72 58 41 31 62 92 97 102 136 126 73 43 83 54 76 78 65 50 50 66 55 45 70 56 56 53 44 -54 -51 39 51 28 -14 62 105 -32 -114 43 224 700 440 548 584 370
85 70 50 42 17 78 118 151 109 149 167 188 103 68 61 39 62 55 44 74 66 80 80 65 61 38 20 -20 -52 -44 -14 105 45 10 12 11 -37 -158 -104 41 597 763 641 595 445
26 75 61 36 28 90 146 123 112 154 206 119 41 36 38 55 56 64 61 94 90 93 74 42 36 -9 18 -48 -8 -68 189 81 78 56 28 -52 -169 -280 -251 -188 237 663 692 530 439
151 62 53 38 58 86 138 117 129 121 233 95 54 66 59 74 60 69 67 86 97 77 63 41 20 4 18 -50 50 108 111 106 75 57 70 -68 -248 -301 -341 -278 1 421 548 451 398
121 84 39 49 38 90 79 126 118 118 221 122 84 55 62 71 70 48 52 91 75 52 13 32 11 33 56 58 17 139 52 115 33 92 121 109 -248 -131 -203 -211 -4 168 381 433 343
111 44 28 40 66 67 70 121 91 139 157 96 75 36 47 63 49 41 38 63 84 64 17 44 56 28 76 37 16 65 110 126 132 65 47 47 -2 -64 -136 -141 -54 147 300 365 325
25 32 35 84 89 71 109 113 114 154 130 116 78 77 63 45 42 28 25 68 80 64 102 117 44 15 59 15 10 37 85 120 140 95 85 115 62 -58 -120 -103 -123 -28 361 352 351
48 16 52 46 20 73 121 114 62 137 98 93 100 79 48 14 18 -1 32 64 23 66 132 80 63 59 46 12 18 36 70 124 101 88 133 48 107 2 -117 -65 -10 10 94 453 424
25 30 69 67 100 115 92 -47 85 123 119 70 79 78 46 9 14 11 3 44 130 25 190 96 68 55 -9 -9 105 43 29 51 79 25 57 51 73 24 4 -46 8 -0 127 251 361
77 120 98 71 61 97 -12 -7 61 98 79 80 70 91 35 23 5 12 43 88 96 60 48 54 14 39 -11 -16 20 136 67 36 87 75 92 119 87 34 86 71 7 -4 -34 172 225
185 144 121 67 74 84 -45 20 49 57 39 33 95 61 62 24 20 8 18 56 81 23 39 12 -33 8 29 19 53 117 75 75 81 49 72 119 132 169 199 128 54 18 -27 -57 14
205 123 109 67 122 2 -6 22 30 20 18 45 60 57 32 24 15 10 17 47 53 52 2 -5 -0 29 -2 14 35 92 112 101 74 82 23 73 135 167 190 178 135 99 62 6 -55
205 67 101 101 23 -19 4 -5 12 18 -4 5 13 38 34 5 11 3 2 46 33 66 39 3 20 -38 -14 26 35 47 44 141 91 94 120 109 172 142 152 151 135 124 120 120 112
209 114 102 93 18 36 20 3 1 4 1 15 15 8 10 -3 9 -3 9 39 37 17 25 37 12 38 27 14 28 39 68 64 45 35 103 103 101 109 114 100 104 93 94 131 157
152 59 86 24 -8 2 39 30 17 -22 -21 -18 2 -3 20 -0 -19 18 -9 -1 12 21 18 8 18 13 29 6 10 31 40 35 62 48 30 29 76 136 133 123 127 112 82 87 97
116 32 29 30 30 19 29 30 34 17 -30 -23 2 6 29 34 13 16 15 6 -11 51 24 12 14 38 64 84 29 8 -1 18 34 24 46 -1 49 72 94 100 106 96 94 100 121
43 15 63 20 35 83 42 43 33 4 4 9 14 11 9 24 33 36 11 -18 12 35 15 33 28 37 34 43 40 27 24 -2 17 36 64 68 83 72 86 67 93 89 85 100 115
89 91 30 75 72 67 40 34 10 -14 -21 -16 2 5 -0 5 -3 13 14 21 5 -1 -10 1 7 -6 4 54 20 50 66 41 45 61 32 70 72 83 133 134 134 118 89 70 76

GFSSW_con_3kmhel_111.txt.gz
Helicity
17 26 2 10 11 26 31 43 16 25 44 62 79 67 71 95 121 128 154 89 91 69 54 103 109 99 96 125 150 167 238 264 115 151 86 130 55 72 108 109 156 219 191 102 118
-12 6 11 2 8 22 31 18 32 40 55 69 79 79 78 106 131 131 84 54 45 39 85 106 121 107 111 105 121 164 198 121 114 94 80 120 183 95 80 109 64 210 266 186 65
12 -26 11 2 5 14 17 23 34 49 66 101 88 88 98 122 158 149 62 63 46 78 96 114 121 129 130 117 148 148 154 82 53 55 76 100 94 86 21 30 111 196 337 212 79
26 -1 39 19 7 13 8 17 43 60 95 88 97 96 112 124 160 75 53 85 96 75 88 109 128 137 114 124 107 134 93 76 25 50 65 61 75 40 15 38 58 225 164 352 59
49 42 46 35 13 22 16 26 39 74 88 97 102 110 132 170 116 66 67 65 70 82 101 115 141 145 153 117 118 83 49 56 51 50 38 58 58 75 58 67 19 215 141 272 164
86 71 40 60 29 4 12 9 38 86 89 101 108 118 140 156 60 42 60 56 78 98 109 115 117 105 133 129 106 133 81 23 37 34 64 12 48 49 12 31 106 94 129 161 138
59 27 38 50 35 9 17 4 42 86 89 101 108 119 133 74 57 45 55 71 75 81 93 75 68 96 112 117 120 84 78 45 -3 31 58 40 23 46 50 35 109 38 36 -22 160
50 73 1 45 42 31 22 10 38 74 94 103 120 102 94 42 33 37 78 78 56 62 58 48 58 63 79 102 85 63 -7 84 11 17 48 75 7 20 -13 -2 110 84 -202 -19 192
77 81 21 60 49 45 34 19 43 73 94 119 113 109 85 10 65 76 95 93 65 47 59 53 66 70 80 73 65 38 15 25 28 46 72 50 11 27 -4 -9 59 53 99 65 114
43 101 46 56 39 39 49 45 87 116 152 118 79 131 52 69 65 82 75 76 75 67 75 90 94 89 73 70 51 46 10 -3 42 35 34 -1 66 -6 -28 -45 45 90 173 387 153
77 70 44 52 35 36 76 82 77 99 148 146 168 88 53 33 60 66 59 101 89 99 98 93 93 57 44 36 33 -4 32 -8 62 86 7 -32 11 32 -34 27 110 201 381 465 305
85 90 -44 50 32 54 81 60 71 102 128 152 92 44 37 53 82 63 66 98 103 86 96 76 55 39 22 9 4 23 -10 103 131 56 14 58 83 43 -47 -36 0 -166 253 381 496
177 106 -30 48 54 57 48 61 59 99 164 178 68 74 60 76 64 44 74 106 91 70 55 54 34 -17 -6 23 55 73 18 121 53 28 34 20 40 -68 -81 -126 -148 -157 -24 340 509
52 18 -81 94 62 50 38 64 38 99 160 124 57 48 58 60 43 29 56 84 80 55 26 47 47 21 103 136 105 120 67 108 54 29 46 102 -39 -118 -130 -163 -19 -208 -73 471 414
57 -38 -6 100 51 53 27 31 50 84 39 67 60 25 50 39 37 46 38 63 87 91 73 100 66 11 62 72 33 49 55 102 51 37 140 158 58 71 -32 -170 -126 -163 6 358 481
4 12 14 97 77 34 56 -6 6 3 85 87 54 58 47 24 32 14 33 47 39 107 104 97 40 63 61 34 66 77 99 175 80 49 48 105 152 101 -62 -187 -316 -149 129 523 564
80 12 45 101 78 58 4 -13 8 56 39 61 72 60 49 22 23 10 40 32 78 50 90 86 100 67 92 60 47 78 115 167 124 130 107 135 161 77 -50 -92 -40 3 201 489 483
36 35 58 70 67 60 -11 14 68 57 75 60 72 59 44 21 -10 0 12 4 92 88 54 51 38 43 98 89 39 -2 83 95 112 69 14 64 78 59 -29 -47 -24 47 130 499 292
137 107 87 93 88 14 -9 56 92 36 44 75 68 57 36 -4 -20 2 42 77 87 116 38 6 74 78 100 64 55 -10 36 82 94 94 54 49 27 28 89 97 -6 -37 112 359 381
258 78 71 95 64 14 23 78 56 23 25 29 73 41 60 -7 -26 -10 34 62 58 69 79 55 25 25 59 164 116 27 24 81 69 85 83 55 79 120 172 111 87 22 4 262 456
230 53 96 95 75 33 50 72 31 12 1 24 49 49 31 10 -28 0 23 53 62 33 53 34 31 23 34 112 68 47 44 37 26 55 139 39 77 192 162 159 65 54 17 101 452
145 -19 92 120 49 28 47 30 -6 12 -12 -5 8 28 21 15 -17 0 27 41 32 35 39 45 20 7 33 99 69 59 77 54 33 57 91 122 148 107 137 144 115 114 93 43 76
115 187 117 100 27 42 48 24 4 10 -6 0 10 5 -12 1 11 -8 27 37 34 18 23 64 15 -53 -15 56 62 49 118 59 27 39 94 56 89 68 53 85 110 127 122 124 115
101 67 106 35 9 31 66 49 24 5 -10 -20 -1 -10 9 7 -20 16 -12 15 25 27 5 -3 25 25 -29 -14 59 -7 83 85 26 79 85 86 54 127 148 109 118 119 99 98 103
100 38 22 64 20 31 24 25 31 14 -16 -13 -7 3 22 27 12 16 18 4 24 27 0 -9 33 30 12 35 59 36 30 48 26 17 10 -1 64 96 97 95 104 91 115 128 157
71 42 62 21 60 94 53 46 30 13 -2 12 14 5 5 28 40 45 21 2 23 30 10 18 17 0 18 -18 0 24 44 45 35 46 45 45 82 58 58 63 88 96 108 125 145
80 95 35 24 53 114 71 36 15 -13 3 -11 0 16 20 18 4 11 4 6 9 5 0 3 1 3 14 6 24 36 71 34 25 35 18 58 63 69 84 83 90 91 65 67 89

GFSSW_con_3kmhel_114.txt.gz
Helicity
1 -6 7 3 -17 10 6 23 30 24 35 23 49 52 37 66 59 52 82 124 117 81 68 118 122 124 120 140 122 136 380 394 271 186 138 108 95 82 86 115 122 147 203 267 185
21 4 -11 7 4 3 5 10 27 25 28 32 43 47 47 56 55 71 110 86 66 56 78 132 131 112 135 127 137 173 266 178 65 61 81 59 110 146 129 73 85 103 155 211 194
23 34 0 -9 -16 12 31 24 24 28 39 55 46 38 60 51 52 148 75 58 69 47 79 98 109 110 109 111 113 151 151 50 52 69 65 46 57 115 120 131 100 27 75 164 197
56 40 43 8 9 10 45 23 14 45 33 44 37 63 47 47 41 133 79 101 94 85 96 105 120 132 143 136 81 143 65 68 40 48 46 43 65 77 91 96 66 61 45 140 245
98 19 111 54 58 36 49 35 20 21 36 25 62 53 46 73 118 115 88 88 81 77 92 106 115 131 140 126 116 94 59 62 48 55 47 58 52 68 85 55 107 38 102 -24 173
54 104 169 37 7 33 41 44 21 26 44 30 56 48 62 48 81 56 62 66 85 92 104 105 127 113 122 90 98 94 79 63 73 77 55 57 37 52 51 52 31 39 115 -61 69
182 147 93 3 30 28 56 50 27 42 28 46 35 55 73 35 55 47 56 76 77 78 95 86 81 83 121 98 47 49 59 62 45 46 37 50 39 28 16 38 85 71 36 13 55
201 105 89 66 7 72 64 50 36 36 41 48 49 66 39 45 20 30 66 85 64 56 57 72 45 60 59 57 55 71 95 77 60 48 1 37 22 18 39 41 42 40 66 19 25
126 151 91 67 23 90 45 65 40 52 37 58 75 50 57 16 37 75 78 86 71 66 60 58 60 67 67 85 110 100 81 29 29 17 2 24 26 19 29 37 55 41 85 -15 -2
86 122 129 113 37 69 90 69 68 88 74 80 59 60 72 65 63 82 91 71 67 64 69 71 87 77 68 100 88 51 45 12 12 33 15 15 11 6 27 14 -10 -10 -5 -6 23
68 48 136 69 -8 55 135 79 58 53 30 13 98 124 53 34 48 68 63 77 68 60 75 94 65 58 25 33 33 -27 -44 -1 70 70 54 42 12 18 74 19 13 4 -48 36 56
80 6 149 35 -21 64 72 60 63 62 12 40 76 53 27 40 47 72 46 34 45 40 71 46 11 -5 14 -5 40 66 62 122 130 93 43 18 -19 31 15 14 20 -22 -20 134 186
36 151 81 -4 -3 68 52 61 54 53 -22 96 78 31 36 28 46 50 26 44 26 -6 23 2 33 21 46 38 117 111 110 109 109 78 2 -8 -8 13 25 8 27 -18 30 39 124
18 43 -9 -58 -7 46 40 50 48 18 -79 69 29 26 31 26 50 14 32 42 68 -37 23 50 70 88 84 91 70 184 110 88 57 26 -65 1 8 -17 -8 -18 -3 -58 11 47 201
73 -15 -81 -91 28 53 51 66 46 -48 -17 60 48 12 21 11 4 42 40 48 44 84 85 66 95 63 60 120 2 137 18 2 32 -4 19 55 59 31 -99 -11 36 2 55 44 91
70 25 -1 25 37 59 52 64 -9 -50 -23 65 37 39 25 -4 1 1 18 66 67 62 65 114 65 62 110 110 129 143 135 38 57 77 159 75 125 71 -20 -38 -38 -56 78 47 69
48 19 23 6 8 32 54 11 -20 -6 -7 42 35 44 10 -17 15 -14 2 53 32 25 31 35 114 90 85 99 59 78 164 73 112 197 237 277 123 17 22 39 41 60 114 179 188
18 57 96 46 37 31 52 -3 -10 -33 56 53 36 37 19 -10 4 -1 10 27 63 41 31 60 64 87 35 40 31 69 111 68 141 189 263 190 174 153 53 41 48 47 142 275 399
62 102 60 43 36 70 33 -57 -4 -2 52 61 36 28 20 -15 7 12 19 43 57 80 64 66 84 193 128 67 66 76 97 62 1 28 154 202 95 80 78 61 41 142 193 277 401
177 115 83 32 47 85 27 -35 3 1 37 27 27 12 10 -22 20 31 5 36 43 69 70 81 45 133 125 107 46 41 137 76 63 17 101 118 135 146 141 146 43 236 255 301 320
143 77 59 63 97 66 -26 -2 -4 21 26 5 15 14 -16 -18 16 45 45 45 36 60 64 90 67 69 66 43 56 83 32 69 90 58 63 82 98 206 130 41 11 40 156 342 502
119 9 95 57 46 26 -14 -4 -10 43 -8 -9 -8 -15 3 -30 2 38 53 40 49 26 62 53 59 27 88 104 156 136 103 55 124 78 102 89 117 126 90 78 13 -20 53 221 394
119 128 129 61 2 1 6 16 20 37 -5 -2 -4 -17 -20 -19 -25 13 44 42 49 47 35 29 36 31 63 145 195 127 139 40 33 79 99 61 63 76 32 52 37 -2 -12 56 187
149 84 31 20 7 17 40 48 49 3 -18 -18 -14 -13 -2 8 -14 -8 12 32 31 26 35 51 45 42 -34 21 132 94 115 17 -11 77 40 69 48 102 97 44 53 28 1 29 39
110 14 31 37 1 33 35 28 60 20 -18 -8 -7 3 7 21 19 19 6 1 25 4 19 34 16 45 60 71 66 46 80 61 86 -27 44 15 73 104 98 76 38 24 20 44 68
-8 6 60 53 27 68 68 69 70 11 9 6 14 19 7 15 6 29 18 14 13 14 13 18 32 34 42 22 37 25 70 28 50 49 17 25 76 69 55 42 54 64 65 67 86
53 51 20 12 35 91 94 50 52 -4 -1 -8 -2 22 23 3 -13 -12 -8 -9 3 2 2 3 15 23 20 39 64 24 82 33 14 26 18 36 50 45 42 47 51 55 48 58 78

GFSSW_con_3kmhel_117.txt.gz
Helicity
44 29 15 18 15 -2 4 12 14 39 37 27 31 21 21 17 19 10 18 116 111 105 61 97 72 85 93 106 117 130 238 177 120 106 79 90 133 64 39 90 6 33 56 59 120
83 39 31 34 21 19 -2 17 26 17 44 37 22 22 27 29 2 6 117 97 59 36 7 19 67 76 75 74 131 134 175 132 83 89 119 113 122 86 68 90 55 53 57 44 60
92 73 72 31 38 32 12 19 30 33 59 32 31 17 22 1 -13 84 58 3 -1 19 41 61 70 57 53 61 87 109 170 108 100 90 103 147 187 124 123 145 132 71 42 63 169
152 88 59 69 62 23 32 23 27 56 49 57 19 32 17 -4 19 130 77 93 76 64 66 62 49 48 67 85 61 136 83 71 89 99 153 171 118 100 131 117 58 95 62 57 33
163 200 83 123 95 47 74 41 33 39 48 72 28 25 17 -4 9 124 86 69 41 49 38 46 52 69 83 105 91 117 72 78 76 103 111 106 108 64 71 66 37 37 116 102 84
121 170 91 171 109 23 18 57 61 44 57 62 33 19 -6 -4 105 63 69 52 48 40 64 70 79 124 122 90 114 90 96 123 105 117 126 110 94 74 63 35 77 92 79 94 137
98 126 98 191 75 50 29 70 67 65 44 40 41 9 30 34 58 58 53 48 52 44 62 69 97 91 123 98 72 91 105 87 71 79 53 41 68 73 -1 47 46 51 63 100 44
82 113 69 115 62 37 34 31 83 84 48 31 53 39 14 46 37 25 38 31 46 48 46 69 74 63 51 68 74 90 107 114 43 37 23 36 108 41 32 25 50 40 39 54 46
85 102 112 61 57 -21 10 45 95 63 56 45 78 46 -17 42 31 46 44 26 71 54 49 47 61 45 44 67 99 62 84 67 77 21 30 75 97 34 35 44 33 33 23 45 71
59 88 54 23 66 64 46 73 87 55 104 58 74 43 68 94 55 63 57 38 29 43 39 41 56 38 35 68 68 68 86 26 27 -4 40 63 31 49 60 5 25 37 42 42 93
44 56 36 60 93 67 128 119 124 137 78 74 75 109 134 48 43 38 37 23 15 29 4 21 40 10 -12 8 17 -10 -38 -62 -54 -24 32 24 35 23 -0 21 37 63 59 61 11
64 91 39 139 92 56 55 65 91 102 84 9 35 101 39 30 17 33 26 7 20 -27 25 6 -68 -55 -25 -34 -17 -33 -42 4 104 69 26 39 59 -1 9 10 28 44 36 11 2
84 66 161 75 51 72 -7 29 56 42 104 55 94 53 26 15 6 34 17 10 -40 -58 -43 -42 -58 39 15 34 44 110 161 157 74 36 8 69 8 -17 -1 22 13 33 47 12 2
24 21 109 -17 36 2 1 14 11 32 -69 -7 33 25 20 4 -14 23 32 -10 7 -58 -45 3 38 56 60 111 54 229 133 247 226 86 10 -24 -34 -20 -13 3 24 17 9 28 -26
37 52 -2 -178 20 -13 39 7 17 -18 -57 60 53 11 2 -17 -14 26 39 35 -40 -3 62 16 -9 50 91 119 51 167 25 33 -5 -61 -4 -5 -40 -86 -39 -0 27 21 53 32 33
51 18 -8 -14 9 35 30 36 9 -88 -28 49 47 22 7 3 -8 -11 15 24 28 34 46 124 47 32 57 78 106 108 102 86 -9 -38 29 63 93 -14 -59 -22 8 18 34 58 98
41 3 45 1 -5 31 26 57 -22 -26 -18 38 30 25 14 -8 4 -21 9 36 -0 6 94 42 115 19 19 61 22 62 87 167 77 11 22 25 37 37 82 97 60 48 63 96 33
87 -5 77 45 24 40 59 26 -3 -38 -19 10 25 34 7 7 -20 -10 31 11 27 44 59 84 61 29 -4 31 42 96 81 180 262 91 56 57 53 104 57 22 60 47 131 173 210
44 150 110 63 29 37 44 -31 -35 -42 -8 5 24 16 -9 11 12 17 28 18 16 41 66 78 88 80 41 47 39 57 25 80 296 161 157 146 63 129 31 -18 29 173 236 204 299
23 82 54 34 16 43 11 -10 -23 -28 -23 -1 10 5 -9 12 27 16 1 9 29 33 45 80 117 65 18 44 111 95 89 35 145 149 198 196 235 254 196 76 101 375 257 298 341
29 75 47 54 12 9 -6 -42 -38 -25 -17 -6 -7 -19 -37 8 18 26 29 33 11 28 54 72 77 44 48 30 111 98 73 82 131 139 177 241 235 173 92 -48 96 229 231 365 594
65 73 64 65 2 11 -9 -10 -16 -40 -27 -34 -31 -30 -33 -2 12 20 30 41 -9 34 65 58 80 107 105 129 175 196 163 88 69 79 110 109 154 90 9 -51 35 275 190 244 468
92 90 90 72 3 -15 -4 -14 -15 -30 -27 -33 -18 -17 -26 -15 -8 15 32 35 32 43 35 34 39 124 101 91 101 187 89 86 100 78 56 78 55 31 14 33 -24 95 160 209 263
47 -5 47 47 36 41 -9 -17 -27 -15 -34 -33 -25 -17 1 -14 -37 5 11 22 24 48 51 53 51 97 68 65 132 119 -0 -1 45 93 28 33 19 65 48 23 16 -17 -2 126 118
53 -0 56 64 1 39 22 -6 -2 -18 -17 -10 -6 2 -7 2 6 7 5 21 43 56 58 56 53 39 43 50 49 36 26 53 80 29 45 13 45 36 23 23 -0 -4 9 8 68
31 22 55 38 32 43 20 20 31 -9 2 1 13 10 1 3 -7 20 19 18 22 46 36 38 40 31 37 30 35 27 66 26 35 12 -17 -1 14 -2 5 -2 21 16 17 52 67
35 40 73 96 53 55 48 11 24 -7 -7 3 7 10 7 -7 -7 -12 -9 3 8 -6 5 14 23 38 21 51 77 4 46 14 13 20 20 17 9 7 8 18 30 32 30 36 47

GFSSW_con_3kmhel_120.txt.gz
Helicity
101 71 101 37 65 56 42 36 37 49 32 24 41 23 36 13 12 -6 -27 25 87 83 69 60 50 44 70 89 77 160 247 187 120 113 112 130 162 163 140 165 119 74 73 41 68
112 123 63 62 65 46 44 40 35 56 46 45 30 21 47 17 -14 -35 18 74 59 48 38 22 -10 40 69 73 133 182 193 143 87 122 160 157 186 197 226 239 206 143 32 -37 86
121 154 129 43 95 51 38 61 59 62 81 59 35 29 31 31 -15 79 90 31 12 8 -1 -9 36 101 72 64 102 114 121 99 138 154 174 207 206 198 222 253 227 209 69 20 111
82 103 167 241 123 91 33 30 50 80 79 54 39 37 30 32 10 121 95 76 51 11 -6 14 48 44 79 91 32 73 43 37 47 94 153 206 211 237 235 178 180 144 117 53 173
42 61 92 165 82 173 84 65 44 59 64 80 84 50 42 38 37 130 90 63 19 25 22 36 42 39 51 63 63 77 52 67 89 89 112 112 146 147 140 116 96 169 157 116 189
21 51 88 131 133 143 78 82 52 70 66 82 48 36 56 54 171 87 42 38 -7 13 30 56 72 103 131 86 96 71 90 100 100 106 113 143 127 124 122 97 68 85 106 138 163
18 39 90 149 116 160 87 46 57 84 67 55 45 59 23 44 82 82 49 16 34 26 44 32 72 109 96 84 41 70 93 100 74 51 64 62 106 122 80 27 80 100 93 77 169
21 40 98 108 63 46 33 54 70 64 74 30 53 4 62 86 59 56 8 11 31 44 54 68 99 61 48 68 78 102 105 76 59 29 30 38 158 101 81 90 79 82 49 76 65
21 28 81 87 36 72 60 52 28 35 36 50 71 74 149 96 90 23 4 8 31 41 50 33 53 40 41 69 95 64 68 35 34 27 48 62 104 73 66 85 43 87 87 64 82
30 23 38 43 43 65 59 96 75 66 63 63 95 94 67 84 112 38 34 36 55 42 39 35 24 11 6 16 46 52 -3 -22 9 19 42 49 93 58 77 58 15 -17 68 93 81
15 14 13 56 16 88 118 142 42 78 52 61 55 95 80 126 59 27 18 40 19 2 -45 -39 -10 24 -45 -45 2 8 -20 -23 18 7 25 8 -95 -72 34 68 -17 54 33 100 60
11 26 85 4 97 161 134 117 83 69 35 21 67 46 34 95 20 30 42 5 -2 -26 -50 -19 4 -2 -50 -59 -35 -8 8 5 24 26 5 -38 -144 -71 -27 13 19 14 60 54 64
-18 36 112 142 146 107 124 129 78 69 37 53 58 57 33 14 6 38 29 -8 -54 -65 -49 6 -24 -45 -17 5 21 48 120 105 91 94 19 22 -18 128 75 8 46 27 22 60 92
-4 2 29 81 40 91 26 32 20 51 -20 14 25 8 -1 3 -8 24 19 -1 -25 -27 -24 -21 4 7 18 13 53 109 143 111 111 83 42 -60 -160 -26 11 9 -1 40 10 32 38
29 -66 -11 2 22 -10 66 24 13 33 -31 -4 30 9 10 -3 -9 3 25 10 -26 -9 18 9 12 42 -3 43 5 174 50 57 50 69 -4 24 10 34 -11 12 16 22 -18 33 34
34 26 -23 -7 7 2 28 27 53 -28 -73 -11 22 16 -0 -5 -9 1 -2 -5 -24 -9 39 51 30 30 43 34 42 93 93 83 38 32 64 125 127 58 -31 -55 28 -5 14 19 62
34 36 48 18 17 20 31 66 -12 -27 -10 -0 32 17 12 -22 -15 -22 -17 8 -18 -19 18 75 35 70 17 42 19 34 69 107 13 31 107 53 113 66 5 -107 -38 -50 54 84 74
41 32 46 47 12 28 65 24 -14 -53 1 21 37 25 -14 -3 -33 -3 -4 3 56 46 17 14 53 69 46 30 64 72 163 134 76 -6 16 40 32 62 109 43 -20 -5 54 68 54
-11 44 65 70 -2 60 68 2 -20 -12 8 48 27 -15 -3 6 9 25 25 -9 -9 35 56 65 70 24 104 54 25 33 112 125 125 68 29 53 124 165 52 104 176 85 33 56 78
37 80 79 33 54 68 46 15 -19 5 8 27 9 15 4 12 5 3 1 -7 8 37 30 56 82 74 30 71 119 87 65 175 161 85 196 230 226 96 139 103 230 138 74 140 194
68 76 56 17 40 65 11 -18 -17 9 15 10 -20 -11 -31 12 43 36 43 4 -14 18 18 89 86 69 74 91 138 119 164 110 189 195 116 171 152 148 150 275 155 196 212 221 294
85 57 54 46 -6 13 1 -11 5 4 23 -10 -15 -47 -20 8 35 48 62 32 -23 20 44 73 69 119 107 110 189 210 193 121 123 137 152 209 137 161 184 100 112 91 325 350 321
81 81 39 46 -4 25 -11 -1 14 4 5 5 -26 -34 -10 -0 16 19 44 24 -15 -3 21 53 51 81 90 125 135 187 87 61 80 79 83 166 140 93 101 89 243 158 236 396 583
65 46 53 39 73 56 -0 8 -6 16 -22 -14 -24 -11 -25 -22 -2 13 22 18 15 46 56 87 126 100 130 96 121 113 83 83 51 10 30 60 71 83 90 61 150 204 144 169 243
64 45 54 53 43 63 14 8 4 5 -1 -5 -9 -16 -14 -18 -0 5 20 50 51 82 85 55 75 57 64 33 27 110 98 95 50 18 49 3 57 71 73 43 37 45 121 105 230
56 52 56 102 79 50 18 28 22 5 11 4 -1 1 4 -9 13 18 26 41 35 76 50 84 42 48 60 67 15 68 135 46 52 69 -2 12 16 -34 41 46 50 60 81 107 125
51 26 92 102 45 32 34 11 16 2 -5 -7 3 10 16 -7 -3 -2 4 14 23 27 49 32 47 56 78 103 67 29 67 19 30 57 32 38 11 -28 26 30 57 54 63 77 115

GFSSW_con_3kmhel_123.txt.gz
Helicity
129 123 128 36 57 58 30 49 54 48 46 53 54 62 43 44 42 18 23 -1 18 -38 57 72 50 85 137 139 142 186 251 209 166 152 130 118 144 80 78 97 72 15 114 4 -78
108 146 156 213 36 72 47 44 54 50 40 54 52 63 58 40 42 4 -9 23 46 61 18 34 63 83 123 141 178 214 206 202 158 163 175 194 218 202 175 173 123 63 178 21 -165
91 111 104 146 116 64 95 48 54 62 73 85 69 59 58 57 97 45 20 28 6 24 49 54 110 113 132 137 118 141 138 123 113 110 128 168 157 121 157 149 175 191 88 197 -22
56 56 60 67 104 129 127 91 63 93 67 74 58 56 103 68 96 40 55 44 21 38 55 69 82 83 78 98 84 113 112 107 113 122 157 169 119 121 127 98 102 127 155 29 84
34 41 53 54 74 77 84 69 100 108 58 65 49 66 85 101 74 55 100 94 67 65 65 65 62 65 76 91 110 113 85 105 116 123 123 109 106 81 78 74 66 62 53 73 16
24 31 36 58 84 52 131 130 87 69 101 67 46 83 82 95 70 84 79 80 55 61 56 70 78 81 91 77 95 105 125 101 87 92 55 90 87 102 102 96 88 87 60 23 18
16 26 31 54 114 45 140 73 47 96 77 66 69 52 73 69 57 38 57 41 74 66 72 52 67 98 133 112 105 129 107 125 90 52 83 74 93 106 65 64 84 94 102 95 57
9 10 29 46 93 10 66 83 131 106 69 65 44 52 77 54 66 75 46 62 85 68 69 74 121 95 81 71 96 98 94 62 72 60 74 99 99 104 86 111 156 197 167 137 117
21 12 30 33 67 69 59 110 75 165 103 29 27 40 55 69 58 69 92 72 34 25 41 26 71 62 73 85 98 83 81 129 106 -4 35 70 85 59 78 76 78 93 170 168 124
15 20 19 19 11 39 80 93 52 78 20 33 65 82 55 72 42 77 56 34 62 55 52 49 48 14 5 30 80 61 97 80 125 124 23 -5 -3 1 12 44 81 79 81 89 110
13 14 30 -12 -33 5 98 166 103 54 57 51 43 81 63 83 84 71 52 68 46 22 -20 -17 -23 -41 -34 -23 -0 22 38 77 112 80 40 22 33 60 17 39 -7 49 65 65 76
17 15 21 69 -4 49 159 136 48 38 14 8 87 77 102 79 25 19 36 31 3 -31 -4 -3 -28 -25 -15 -36 -54 -6 58 56 37 84 40 27 19 51 49 75 69 55 46 47 37
33 16 19 24 109 120 134 111 172 123 49 41 37 43 77 25 13 62 42 -1 -6 -33 -35 -20 -71 6 -23 18 27 59 90 56 66 47 28 26 40 27 65 84 97 66 23 90 79
38 -22 93 50 64 162 168 92 285 184 36 6 13 19 7 -0 26 42 5 8 -6 -26 -23 -16 10 -10 5 12 64 55 61 52 48 29 11 83 -23 -65 43 20 45 26 -22 90 34
29 -21 -38 35 -8 47 -6 -72 91 45 -19 -6 12 -10 9 -5 7 -0 22 8 -0 -28 -5 -18 15 24 9 24 17 77 27 54 62 23 25 42 83 103 -59 20 -6 -31 49 72 -8
22 -8 -15 10 -6 14 79 36 26 34 -22 4 9 -0 -8 -25 -9 -4 8 -4 -12 -13 54 106 46 18 47 29 26 49 59 111 134 105 61 116 190 64 -12 -20 -66 -78 -101 1 3
11 -2 37 34 20 17 17 25 33 53 -3 -19 -2 -4 -18 -19 -16 -22 3 -2 -6 -11 -12 26 25 55 81 58 15 8 89 69 19 43 121 3 107 98 28 2 -57 -47 -71 -88 4
27 15 88 38 39 8 42 38 40 24 17 8 -6 -8 -24 -27 -23 -6 -18 -16 24 12 31 25 31 54 59 50 95 47 80 84 -43 -45 78 96 74 42 46 24 -63 -3 -59 -35 -75
23 82 42 57 31 10 24 4 51 35 25 -1 -33 -48 -63 -39 23 8 5 7 44 64 44 69 91 66 66 63 63 74 104 69 75 130 90 193 241 152 237 171 153 -18 -31 -63 -74
49 72 79 70 41 60 34 30 35 40 18 -14 4 1 -10 20 21 -5 -9 27 41 50 57 98 62 84 71 74 105 117 175 94 46 75 111 260 232 204 197 212 210 20 -34 -30 -71
109 65 72 56 68 38 27 22 27 28 3 23 35 19 22 30 10 1 21 34 24 42 63 67 93 118 74 89 185 209 176 132 137 119 191 240 214 205 148 121 178 191 177 132 1
111 52 33 20 25 38 28 23 26 32 19 23 45 21 20 22 25 23 19 26 31 25 34 49 94 137 148 179 184 159 143 136 77 151 125 197 189 120 130 131 149 360 445 357 226
83 44 34 48 28 41 42 25 19 33 27 22 13 24 33 21 26 14 41 12 21 35 44 70 112 137 117 97 112 122 106 60 58 101 167 223 246 95 151 179 151 343 651 642 391
59 51 52 42 60 71 30 43 39 20 13 30 23 7 11 6 17 10 16 34 68 82 119 115 150 113 99 72 85 72 94 124 67 100 157 151 179 233 231 273 254 263 462 974 548
57 80 59 46 44 61 35 43 42 21 19 23 19 6 7 -19 9 34 40 53 63 81 70 88 82 25 45 50 40 84 73 90 68 81 94 132 132 139 108 134 127 272 322 652 608
63 72 95 72 36 37 38 55 44 23 20 36 17 8 5 3 22 23 48 52 62 77 40 36 23 30 64 46 -12 33 54 78 64 58 59 97 90 110 18 28 82 243 353 352 597
45 81 80 50 33 49 72 50 22 18 33 16 23 12 -7 14 33 40 32 37 52 50 67 42 42 31 88 76 44 42 39 18 55 42 42 65 113 90 34 27 57 93 112 126 249